[[{"header":{"parameterUnit":"m.s-1","parameterCategory":1,"la1":31.0,"la2":29.5877,"lo1":-88.7671,"lo2":-86.6584,"dx":0.0162,"dy":0.0185,"nx":115,"ny":88,"refTime":"2022-11-04T06:00:00:Z","depth":0,"parameterNumber":2,"parameterNumberName":"U-component_of_WINDS"},"data":[0.0,0.0,0.0,0.0,0.0,0.0,0.0,0.0,0.0,0.0,0.0,0.0,0.0,0.0,0.0,0.0,0.0,0.0,0.0,0.0,0.0,0.0,0.0,0.0,0.0,0.0,0.0,0.0,0.0,0.0,0.0,0.0,0.0,0.0,0.0,0.0,0.0,0.0,0.0,0.0,0.0,0.0,0.0,0.0,0.0,0.0,0.0,0.0,0.0,0.0,0.0,0.0,0.0,0.0,0.0,0.0,0.0,0.0,0.0,0.0,0.0,0.0,0.0,0.0,0.0,0.0,0.0,0.0,0.0,0.0,0.0,0.0,0.0,0.0,0.0,0.0,0.0,0.0,0.0,0.0,0.0,0.0,0.0,0.0,0.0,0.0,0.0,0.0,0.0,0.0,0.0,0.0,0.0,0.0,0.0,0.0,0.0,0.0,0.0,0.0,0.0,0.0,0.0,0.0,0.0,0.0,0.0,0.0,0.0,0.0,0.0,0.0,0.0,0.0,0.0,0.0,0.0,0.0,0.0,0.0,0.0,0.0,0.0,0.0,0.0,0.0,0.0,0.0,0.0,0.0,0.0,0.0,0.0,0.0,0.0,0.0,0.0,0.0,0.0,0.0,0.0,0.0,0.0,0.0,0.0,0.0,0.0,0.0,0.0,0.0,0.0,0.0,0.0,0.0,0.0,0.0,0.0,0.0,0.0,0.0,0.0,0.0,0.0,0.0,0.0,0.0,0.0,0.0,0.0,0.0,0.0,0.0,0.0,0.0,0.0,0.0,0.0,0.0,0.0,0.0,0.0,0.0,0.0,0.0,0.0,0.0,0.0,0.0,0.0,0.0,0.0,0.0,0.0,0.0,0.0,0.0,0.0,0.0,0.0,0.0,0.0,0.0,0.0,0.0,0.0,0.0,0.0,0.0,0.0,0.0,0.0,0.0,0.0,0.0,0.0,0.0,0.0,0.0,0.0,0.0,0.0,0.0,0.0,0.0,0.0,0.0,0.0,0.0,0.0,0.0,0.0,0.0,0.0,0.0,0.0,0.0,0.0,0.0,0.0,0.0,0.0,0.0,0.0,0.0,0.0,0.0,0.0,0.0,0.0,0.0,0.0,0.0,0.0,0.0,0.0,0.0,0.0,0.0,0.0,0.0,0.0,0.0,0.0,0.0,0.0,0.0,0.0,0.0,0.0,0.0,0.0,0.0,0.0,0.0,0.0,0.0,0.0,0.0,0.0,0.0,0.0,0.0,0.0,0.0,0.0,0.0,0.0,0.0,0.0,0.0,0.0,0.0,0.0,0.0,0.0,0.0,0.0,0.0,0.0,0.0,0.0,0.0,0.0,0.0,0.0,0.0,0.0,0.0,0.0,0.0,0.0,0.0,0.0,0.0,0.0,0.0,0.0,0.0,0.0,0.0,0.0,0.0,0.0,0.0,0.0,0.0,0.0,0.0,0.0,0.0,0.0,0.0,0.0,0.0,0.0,0.0,0.0,0.0,0.0,0.0,0.0,0.0,0.0,0.0,0.0,0.0,0.0,0.0,0.0,0.0,0.0,0.0,0.0,0.0,0.0,0.0,0.0,0.0,0.0,0.0,0.0,0.0,0.0,0.0,0.0,0.0,0.0,0.0,0.0,0.0,0.0,0.0,0.0,0.0,0.0,0.0,0.0,0.0,0.0,0.0,0.0,0.0,0.0,0.0,0.0,0.0,0.0,0.0,0.0,0.0,0.0,0.0,0.0,0.0,0.0,0.0,0.0,0.0,0.0,0.0,0.0,0.0,0.0,0.0,0.0,0.0,0.0,0.0,0.0,0.0,0.0,0.0,0.0,0.0,0.0,0.0,0.0,0.0,0.0,0.0,0.0,0.0,0.0,0.0,0.0,0.0,0.0,0.0,0.0,0.0,0.0,0.0,0.0,0.0,0.0,0.0,0.0,0.0,0.0,0.0,0.0,0.0,0.0,0.0,0.0,0.0,0.0,0.0,0.0,0.0,0.0,0.0,0.0,0.0,0.0,0.0,0.0,0.0,0.0,0.0,0.0,0.0,0.0,0.0,0.0,0.0,0.0,0.0,0.0,0.0,0.0,0.0,0.0,0.0,0.0,0.0,0.0,0.0,0.0,0.0,0.0,0.0,0.0,0.0,0.0,0.0,0.0,0.0,0.0,0.0,0.0,0.0,0.0,0.0,0.0,0.0,0.0,0.0,0.0,0.0,0.0,0.0,0.0,0.0,0.0,0.0,0.0,0.0,0.0,0.0,0.0,0.0,0.0,0.0,0.0,0.0,0.0,0.0,0.0,0.0,0.0,0.0,0.0,0.0,0.0,0.0,0.0,0.0,0.0,0.0,0.0,0.0,0.0,0.0,0.0,0.0,0.0,0.0,0.0,0.0,0.0,0.0,0.0,0.0,0.0,0.0,0.0,0.0,0.0,0.0,0.0,0.0,0.0,0.0,0.0,0.0,0.0,0.0,0.0,0.0,0.0,0.0,0.0,0.0,0.0,0.0,0.0,0.0,0.0,0.0,0.0,0.0,0.0,0.0,0.0,0.0,0.0,0.0,0.0,0.0,0.0,0.0,0.0,0.0,0.0,0.0,0.0,0.0,0.0,0.0,0.0,0.0,0.0,0.0,0.0,0.0,0.0,0.0,0.0,0.0,0.0,0.0,0.0,0.0,0.0,0.0,0.0,0.0,0.0,0.0,0.0,0.0,0.0,0.0,0.0,0.0,0.0,0.0,0.0,0.0,0.0,0.0,0.0,0.0,0.0,0.0,0.0,0.0,0.0,0.0,0.0,0.0,0.0,0.0,0.0,0.0,0.0,0.0,0.0,0.0,0.0,0.0,0.0,0.0,0.0,0.0,0.0,0.0,0.0,0.0,0.0,0.0,0.0,0.0,0.0,0.0,0.0,0.0,0.0,0.0,0.0,0.0,0.0,0.0,0.0,0.0,0.0,0.0,0.0,0.0,0.0,0.0,0.0,0.0,0.0,0.0,0.0,0.0,0.0,0.0,0.0,0.0,0.0,0.0,0.0,0.0,0.0,0.0,0.0,0.0,0.0,0.0,0.0,0.0,0.0,0.0,0.0,0.0,0.0,0.0,0.0,0.0,0.0,0.0,0.0,0.0,0.0,0.0,0.0,0.0,0.0,0.0,0.0,0.0,0.0,0.0,0.0,0.0,0.0,0.0,0.0,0.0,0.0,0.0,0.0,0.0,0.0,0.0,0.0,0.0,0.0,0.0,0.0,0.0,0.0,0.0,0.0,0.0,0.0,0.0,0.0,0.0,0.0,0.0,0.0,0.0,0.0,0.0,0.0,0.0,0.0,0.0,0.0,0.0,0.0,0.0,0.0,0.0,0.0,0.0,0.0,0.0,0.0,0.0,0.0,0.0,0.0,0.0,0.0,0.0,0.0,0.0,0.0,0.0,0.0,0.0,0.0,0.0,0.0,0.0,0.0,0.0,0.0,0.0,0.0,0.0,0.0,0.0,0.0,0.0,0.0,0.0,0.0,0.0,0.0,0.0,0.0,0.0,0.0,0.0,0.0,0.0,0.0,0.0,0.0,0.0,0.0,0.0,0.0,0.0,0.0,0.0,0.0,0.0,0.0,0.0,0.0,0.0,0.0,0.0,0.0,0.0,0.0,0.0,0.0,0.0,0.0,0.0,0.0,0.0,0.0,0.0,0.0,0.0,0.0,0.0,0.0,0.0,0.0,0.0,0.0,0.0,0.0,0.0,0.0,0.0,0.0,0.0,0.0,0.0,0.0,0.0,0.0,0.0,0.0,0.0,0.0,0.0,0.0,0.0,0.0,0.0,0.0,0.0,0.0,0.0,0.0,0.0,0.0,0.0,0.0,0.0,0.0,0.0,0.0,0.0,0.0,0.0,0.0,0.0,0.0,0.0,0.0,0.0,0.0,0.0,0.0,0.0,0.0,0.0,0.0,0.0,0.0,0.0,0.0,0.0,0.0,0.0,0.0,0.0,0.0,0.0,0.0,0.0,0.0,0.0,0.0,0.0,0.0,0.0,0.0,0.0,0.0,0.0,0.0,0.0,0.0,0.0,0.0,0.0,0.0,0.0,0.0,0.0,0.0,0.0,0.0,0.0,0.0,0.0,0.0,0.0,0.0,0.0,0.0,0.0,0.0,0.0,0.0,0.0,0.0,0.0,0.0,0.0,0.0,0.0,0.0,0.0,0.0,0.0,0.0,0.0,0.0,0.0,0.0,0.0,0.0,0.0,0.0,0.0,0.0,0.0,2.3604,0.0,0.0,0.0,2.3277,0.0,0.0,0.0,0.0,0.0,0.0,0.0,0.0,0.0,0.0,0.0,0.0,0.0,0.0,0.0,0.0,0.0,0.0,0.0,0.0,0.0,0.0,0.0,0.0,0.0,0.0,0.0,0.0,0.0,0.0,0.0,0.0,0.0,0.0,0.0,0.0,0.0,0.0,0.0,0.0,0.0,0.0,0.0,0.0,0.0,0.0,0.0,0.0,0.0,0.0,0.0,0.0,0.0,0.0,0.0,0.0,0.0,0.0,0.0,0.0,0.0,0.0,0.0,0.0,0.0,0.0,0.0,0.0,0.0,0.0,0.0,0.0,0.0,0.0,0.0,0.0,0.0,0.0,0.0,0.0,0.0,0.0,0.0,0.0,0.0,0.0,0.0,0.0,0.0,0.0,0.0,0.0,0.0,0.0,0.0,0.0,0.0,0.0,0.0,0.0,0.0,0.0,0.0,0.0,0.0,0.0,0.0,0.0,0.0,0.0,2.4681,2.4681,2.4454,2.4333,2.4327,0.0,0.0,0.0,0.0,0.0,0.0,0.0,0.0,0.0,0.0,0.0,0.0,0.0,0.0,0.0,0.0,0.0,0.0,0.0,0.0,0.0,0.0,0.0,0.0,0.0,0.0,0.0,0.0,0.0,0.0,0.0,0.0,0.0,0.0,0.0,0.0,0.0,0.0,0.0,0.0,0.0,0.0,0.0,0.0,0.0,0.0,0.0,0.0,0.0,0.0,0.0,0.0,0.0,0.0,0.0,0.0,0.0,0.0,0.0,0.0,0.0,0.0,0.0,0.0,0.0,0.0,0.0,0.0,0.0,0.0,0.0,0.0,0.0,0.0,0.0,0.0,0.0,0.0,0.0,0.0,0.0,0.0,0.0,0.0,0.0,0.0,0.0,0.0,0.0,0.0,0.0,0.0,0.0,0.0,0.0,0.0,0.0,0.0,0.0,0.0,0.0,0.0,0.0,0.0,0.0,0.0,0.0,0.0,0.0,0.0,0.0,0.0,2.5337,2.5147,2.5081,0.0,0.0,0.0,0.0,0.0,0.0,0.0,0.0,0.0,0.0,0.0,0.0,0.0,0.0,0.0,0.0,0.0,0.0,0.0,0.0,0.0,0.0,0.0,0.0,0.0,0.0,0.0,0.0,0.0,0.0,0.0,0.0,0.0,0.0,0.0,0.0,0.0,0.0,0.0,0.0,0.0,0.0,0.0,0.0,0.0,0.0,0.0,0.0,0.0,0.0,0.0,0.0,0.0,0.0,0.0,0.0,0.0,0.0,0.0,0.0,0.0,0.0,0.0,0.0,0.0,0.0,0.0,0.0,0.0,0.0,0.0,0.0,0.0,0.0,0.0,0.0,0.0,0.0,0.0,0.0,0.0,0.0,0.0,0.0,0.0,0.0,0.0,0.0,0.0,0.0,0.0,0.0,0.0,0.0,0.0,0.0,0.0,0.0,0.0,0.0,0.0,0.0,0.0,0.0,0.0,0.0,0.0,0.0,0.0,0.0,2.5615,2.5603,2.5331,0.0,2.4838,0.0,0.0,0.0,0.0,0.0,0.0,0.0,0.0,0.0,0.0,0.0,0.0,0.0,0.0,0.0,0.0,0.0,0.0,0.0,0.0,0.0,0.0,0.0,0.0,0.0,0.0,0.0,0.0,0.0,0.0,0.0,0.0,0.0,0.0,0.0,0.0,0.0,0.0,0.0,0.0,0.0,0.0,0.0,0.0,0.0,0.0,0.0,0.0,0.0,0.0,0.0,0.0,0.0,0.0,0.0,0.0,0.0,0.0,0.0,0.0,0.0,0.0,0.0,0.0,0.0,0.0,0.0,0.0,0.0,0.0,0.0,0.0,0.0,0.0,0.0,0.0,0.0,0.0,0.0,0.0,0.0,0.0,0.0,0.0,0.0,0.0,0.0,0.0,0.0,0.0,0.0,0.0,0.0,0.0,0.0,0.0,0.0,0.0,0.0,0.0,0.0,0.0,0.0,0.0,0.0,0.0,0.0,0.0,0.0,0.0,2.6751,2.6659,2.6404,2.6171,0.0,0.0,0.0,0.0,0.0,0.0,0.0,0.0,0.0,0.0,0.0,0.0,0.0,0.0,0.0,0.0,0.0,0.0,0.0,0.0,0.0,0.0,0.0,0.0,0.0,0.0,0.0,0.0,0.0,0.0,0.0,0.0,0.0,0.0,0.0,0.0,0.0,0.0,0.0,0.0,0.0,0.0,0.0,0.0,0.0,0.0,0.0,0.0,0.0,0.0,0.0,0.0,0.0,0.0,0.0,0.0,0.0,0.0,0.0,0.0,0.0,0.0,0.0,0.0,0.0,0.0,0.0,0.0,0.0,0.0,0.0,0.0,0.0,0.0,0.0,0.0,0.0,0.0,0.0,0.0,0.0,0.0,0.0,0.0,0.0,0.0,0.0,0.0,0.0,0.0,0.0,0.0,0.0,0.0,0.0,0.0,0.0,0.0,0.0,0.0,0.0,0.0,0.0,0.0,0.0,0.0,0.0,0.0,0.0,0.0,2.7519,2.7801,2.7615,2.7355,2.7107,2.6807,0.0,0.0,0.0,0.0,0.0,0.0,0.0,0.0,0.0,0.0,0.0,0.0,0.0,0.0,0.0,0.0,0.0,0.0,0.0,0.0,0.0,0.0,0.0,0.0,0.0,0.0,0.0,0.0,0.0,0.0,0.0,0.0,0.0,0.0,0.0,0.0,0.0,0.0,0.0,0.0,0.0,0.0,0.0,0.0,0.0,0.0,0.0,0.0,0.0,0.0,0.0,0.0,0.0,0.0,0.0,0.0,0.0,0.0,0.0,0.0,0.0,0.0,0.0,0.0,0.0,0.0,0.0,0.0,0.0,0.0,0.0,0.0,0.0,0.0,0.0,0.0,0.0,0.0,0.0,0.0,0.0,0.0,0.0,0.0,0.0,0.0,0.0,0.0,0.0,0.0,0.0,0.0,0.0,0.0,0.0,0.0,0.0,0.0,0.0,0.0,0.0,0.0,0.0,0.0,0.0,0.0,0.0,0.0,2.7578,2.8194,2.8429,2.8168,2.7968,2.7515,0.0,0.0,0.0,0.0,0.0,0.0,0.0,0.0,0.0,0.0,0.0,0.0,0.0,0.0,0.0,0.0,0.0,0.0,0.0,0.0,0.0,0.0,0.0,0.0,0.0,0.0,0.0,0.0,0.0,0.0,0.0,0.0,0.0,0.0,0.0,0.0,0.0,0.0,0.0,0.0,0.0,0.0,0.0,0.0,0.0,0.0,0.0,0.0,0.0,0.0,0.0,0.0,0.0,0.0,0.0,0.0,0.0,0.0,0.0,0.0,0.0,0.0,0.0,0.0,0.0,0.0,0.0,0.0,0.0,0.0,0.0,0.0,0.0,0.0,0.0,0.0,0.0,0.0,0.0,0.0,0.0,0.0,0.0,0.0,0.0,0.0,0.0,0.0,0.0,0.0,0.0,0.0,0.0,0.0,0.0,0.0,0.0,0.0,0.0,0.0,0.0,0.0,0.0,0.0,0.0,0.0,0.0,0.0,0.0,2.8241,2.8704,2.8882,2.8751,2.8525,2.8272,0.0,0.0,0.0,0.0,0.0,0.0,0.0,0.0,0.0,0.0,0.0,0.0,0.0,0.0,0.0,0.0,0.0,0.0,0.0,0.0,0.0,0.0,0.0,0.0,0.0,0.0,0.0,0.0,0.0,0.0,0.0,0.0,0.0,0.0,0.0,0.0,0.0,0.0,0.0,0.0,0.0,0.0,0.0,0.0,0.0,0.0,0.0,0.0,0.0,0.0,0.0,0.0,0.0,0.0,0.0,0.0,0.0,0.0,0.0,0.0,0.0,0.0,0.0,0.0,0.0,0.0,0.0,0.0,0.0,0.0,0.0,0.0,0.0,0.0,0.0,0.0,0.0,0.0,0.0,0.0,0.0,0.0,0.0,0.0,0.0,0.0,0.0,0.0,0.0,0.0,0.0,0.0,0.0,0.0,0.0,0.0,0.0,0.0,0.0,0.0,0.0,0.0,0.0,0.0,0.0,0.0,0.0,0.0,0.0,2.9222,2.9331,2.9422,2.9429,2.9134,2.892,0.0,0.0,0.0,0.0,0.0,0.0,0.0,0.0,0.0,0.0,0.0,0.0,0.0,0.0,0.0,0.0,0.0,0.0,0.0,0.0,0.0,0.0,0.0,0.0,0.0,0.0,0.0,0.0,0.0,0.0,0.0,0.0,0.0,0.0,0.0,0.0,0.0,0.0,0.0,0.0,0.0,0.0,0.0,0.0,0.0,0.0,0.0,0.0,0.0,0.0,0.0,0.0,0.0,0.0,0.0,0.0,0.0,0.0,0.0,0.0,0.0,0.0,0.0,0.0,0.0,0.0,0.0,0.0,0.0,0.0,0.0,0.0,0.0,0.0,0.0,0.0,0.0,0.0,0.0,0.0,0.0,0.0,0.0,0.0,0.0,0.0,0.0,0.0,0.0,0.0,0.0,0.0,0.0,0.0,0.0,0.0,0.0,0.0,0.0,0.0,0.0,0.0,0.0,0.0,0.0,0.0,0.0,0.0,2.99,3.0441,3.0249,3.01,3.0099,2.9762,2.9334,0.0,0.0,0.0,0.0,0.0,0.0,0.0,0.0,0.0,0.0,0.0,0.0,0.0,0.0,0.0,0.0,0.0,0.0,0.0,0.0,0.0,0.0,0.0,0.0,0.0,0.0,0.0,0.0,0.0,0.0,0.0,0.0,0.0,0.0,0.0,0.0,0.0,0.0,0.0,0.0,0.0,0.0,0.0,0.0,0.0,0.0,0.0,0.0,0.0,0.0,0.0,0.0,0.0,0.0,0.0,0.0,0.0,0.0,0.0,0.0,0.0,0.0,0.0,0.0,0.0,0.0,0.0,0.0,0.0,0.0,0.0,0.0,0.0,0.0,0.0,0.0,0.0,0.0,0.0,0.0,0.0,0.0,0.0,0.0,0.0,0.0,0.0,0.0,0.0,0.0,0.0,0.0,0.0,0.0,0.0,0.0,0.0,0.0,0.0,0.0,0.0,0.0,0.0,0.0,0.0,0.0,0.0,0.0,0.0,3.1067,3.0887,3.0727,3.0573,3.0389,3.0198,0.0,0.0,0.0,0.0,0.0,0.0,0.0,0.0,0.0,0.0,0.0,0.0,0.0,0.0,0.0,0.0,0.0,0.0,0.0,0.0,0.0,0.0,0.0,0.0,0.0,0.0,0.0,0.0,0.0,0.0,0.0,0.0,0.0,0.0,0.0,0.0,0.0,0.0,0.0,0.0,0.0,0.0,0.0,0.0,0.0,0.0,0.0,0.0,0.0,0.0,0.0,0.0,0.0,0.0,0.0,0.0,0.0,0.0,0.0,0.0,0.0,0.0,0.0,0.0,0.0,0.0,0.0,0.0,0.0,0.0,0.0,0.0,0.0,0.0,0.0,0.0,0.0,0.0,0.0,0.0,0.0,0.0,0.0,0.0,0.0,0.0,0.0,0.0,0.0,0.0,0.0,0.0,0.0,0.0,0.0,0.0,0.0,0.0,0.0,0.0,0.0,0.0,0.0,0.0,0.0,0.0,0.0,0.0,0.0,3.1945,3.1589,3.1352,3.1194,3.0999,3.0777,3.0485,0.0,0.0,0.0,0.0,0.0,0.0,0.0,0.0,0.0,0.0,0.0,0.0,0.0,0.0,0.0,0.0,0.0,0.0,0.0,0.0,0.0,0.0,0.0,0.0,0.0,0.0,0.0,0.0,0.0,0.0,0.0,0.0,0.0,0.0,0.0,0.0,0.0,0.0,0.0,0.0,0.0,0.0,0.0,0.0,0.0,0.0,0.0,0.0,0.0,0.0,0.0,0.0,0.0,0.0,0.0,0.0,0.0,0.0,0.0,0.0,0.0,0.0,0.0,0.0,0.0,0.0,0.0,0.0,0.0,0.0,0.0,0.0,0.0,0.0,0.0,0.0,0.0,0.0,0.0,0.0,0.0,0.0,0.0,0.0,0.0,0.0,0.0,0.0,0.0,0.0,0.0,0.0,0.0,0.0,0.0,0.0,0.0,0.0,0.0,0.0,0.0,0.0,0.0,0.0,0.0,0.0,0.0,0.0,3.3048,3.242,3.202,3.1831,3.1653,3.1209,0.0,0.0,0.0,0.0,0.0,0.0,0.0,0.0,0.0,0.0,0.0,0.0,0.0,0.0,0.0,0.0,0.0,0.0,0.0,0.0,0.0,0.0,0.0,0.0,0.0,0.0,0.0,0.0,0.0,0.0,0.0,0.0,0.0,0.0,0.0,0.0,0.0,0.0,0.0,0.0,0.0,0.0,0.0,0.0,0.0,0.0,0.0,0.0,0.0,0.0,0.0,0.0,0.0,0.0,0.0,0.0,0.0,0.0,0.0,0.0,0.0,0.0,0.0,0.0,0.0,0.0,0.0,0.0,0.0,0.0,0.0,0.0,0.0,0.0,0.0,0.0,0.0,0.0,0.0,0.0,0.0,0.0,0.0,0.0,0.0,0.0,0.0,0.0,0.0,0.0,0.0,0.0,0.0,0.0,0.0,0.0,0.0,0.0,0.0,0.0,0.0,0.0,0.0,0.0,0.0,0.0,0.0,0.0,0.0,3.3712,3.343,3.2948,3.2344,3.2259,3.2053,0.0,0.0,0.0,0.0,0.0,0.0,0.0,0.0,0.0,0.0,0.0,0.0,0.0,0.0,0.0,0.0,0.0,0.0,0.0,0.0,0.0,0.0,0.0,0.0,0.0,0.0,0.0,0.0,0.0,0.0,0.0,0.0,0.0,0.0,0.0,0.0,0.0,0.0,0.0,0.0,0.0,0.0,0.0,0.0,0.0,0.0,0.0,0.0,0.0,0.0,0.0,0.0,0.0,0.0,0.0,0.0,0.0,0.0,0.0,0.0,0.0,0.0,0.0,0.0,0.0,0.0,0.0,0.0,0.0,0.0,0.0,0.0,0.0,0.0,0.0,0.0,0.0,0.0,0.0,0.0,0.0,0.0,0.0,0.0,0.0,0.0,0.0,0.0,0.0,0.0,0.0,0.0,0.0,0.0,0.0,0.0,0.0,0.0,0.0,0.0,0.0,0.0,0.0,0.0,0.0,0.0,0.0,0.0,3.416,3.4375,3.4211,3.3847,3.3309,3.3064,3.2653,0.0,0.0,0.0,0.0,0.0,0.0,0.0,0.0,0.0,0.0,0.0,0.0,0.0,0.0,0.0,0.0,0.0,0.0,0.0,0.0,0.0,0.0,0.0,0.0,0.0,0.0,0.0,0.0,0.0,0.0,0.0,0.0,0.0,0.0,0.0,0.0,0.0,0.0,0.0,0.0,0.0,0.0,0.0,0.0,0.0,0.0,0.0,0.0,0.0,0.0,0.0,0.0,0.0,0.0,0.0,0.0,0.0,0.0,0.0,0.0,0.0,0.0,0.0,0.0,0.0,0.0,0.0,0.0,0.0,0.0,0.0,0.0,0.0,0.0,0.0,0.0,0.0,0.0,0.0,0.0,0.0,0.0,0.0,0.0,0.0,0.0,0.0,0.0,0.0,0.0,0.0,0.0,0.0,0.0,0.0,0.0,0.0,0.0,0.0,0.0,0.0,0.0,0.0,0.0,0.0,0.0,0.0,0.0,3.5215,3.5083,3.4961,3.4784,3.4603,3.3927,3.3132,0.0,0.0,0.0,0.0,0.0,0.0,0.0,0.0,0.0,0.0,0.0,0.0,0.0,0.0,0.0,0.0,0.0,0.0,0.0,0.0,0.0,0.0,0.0,0.0,0.0,0.0,0.0,0.0,0.0,0.0,0.0,0.0,0.0,0.0,0.0,0.0,0.0,0.0,0.0,0.0,0.0,0.0,0.0,0.0,0.0,0.0,0.0,0.0,0.0,0.0,0.0,0.0,0.0,0.0,0.0,0.0,0.0,0.0,0.0,0.0,0.0,0.0,0.0,0.0,0.0,0.0,0.0,0.0,0.0,0.0,0.0,0.0,0.0,0.0,0.0,0.0,0.0,0.0,0.0,0.0,0.0,0.0,0.0,0.0,0.0,0.0,0.0,0.0,0.0,0.0,0.0,0.0,0.0,0.0,0.0,0.0,0.0,0.0,0.0,0.0,0.0,0.0,0.0,0.0,0.0,0.0,0.0,0.0,3.5903,3.6233,3.6058,3.5944,3.59,3.4652,3.3818,0.0,0.0,0.0,0.0,0.0,0.0,0.0,0.0,0.0,0.0,0.0,0.0,0.0,0.0,0.0,0.0,0.0,0.0,0.0,0.0,0.0,0.0,0.0,0.0,0.0,0.0,0.0,0.0,0.0,0.0,0.0,0.0,0.0,0.0,0.0,0.0,0.0,0.0,0.0,0.0,0.0,0.0,0.0,0.0,0.0,0.0,0.0,0.0,3.7572,0.0,0.0,0.0,0.0,0.0,0.0,0.0,0.0,0.0,0.0,0.0,0.0,0.0,0.0,0.0,0.0,0.0,0.0,0.0,0.0,0.0,0.0,0.0,0.0,0.0,0.0,0.0,0.0,0.0,0.0,0.0,0.0,0.0,0.0,0.0,0.0,0.0,0.0,0.0,0.0,0.0,0.0,0.0,0.0,0.0,0.0,0.0,0.0,0.0,0.0,0.0,0.0,0.0,0.0,0.0,0.0,0.0,0.0,0.0,3.6336,3.659,3.6404,3.6271,3.6152,3.5322,3.4702,0.0,0.0,0.0,0.0,0.0,0.0,0.0,0.0,0.0,0.0,0.0,0.0,0.0,0.0,0.0,0.0,0.0,0.0,0.0,0.0,0.0,0.0,0.0,0.0,0.0,0.0,0.0,0.0,0.0,0.0,0.0,0.0,0.0,0.0,0.0,0.0,0.0,0.0,0.0,0.0,0.0,0.0,0.0,0.0,0.0,0.0,0.0,0.0,0.0,0.0,0.0,0.0,0.0,0.0,0.0,0.0,0.0,0.0,0.0,0.0,0.0,0.0,0.0,0.0,0.0,0.0,0.0,0.0,0.0,0.0,0.0,0.0,0.0,0.0,0.0,0.0,0.0,0.0,0.0,0.0,0.0,0.0,0.0,0.0,0.0,0.0,0.0,0.0,0.0,0.0,0.0,0.0,0.0,0.0,0.0,0.0,0.0,0.0,0.0,0.0,0.0,0.0,0.0,0.0,0.0,0.0,0.0,3.6878,3.6777,3.6838,3.6651,3.647,3.6279,3.5974,3.556,3.5064,0.0,0.0,0.0,0.0,0.0,0.0,0.0,0.0,0.0,0.0,0.0,0.0,0.0,0.0,0.0,0.0,0.0,0.0,0.0,0.0,0.0,0.0,0.0,0.0,0.0,0.0,0.0,0.0,0.0,0.0,0.0,0.0,0.0,0.0,0.0,0.0,0.0,0.0,3.5302,3.653,0.0,0.0,0.0,0.0,0.0,0.0,0.0,0.0,3.9454,0.0,0.0,0.0,0.0,0.0,0.0,0.0,0.0,0.0,0.0,0.0,0.0,0.0,0.0,0.0,0.0,0.0,0.0,0.0,0.0,0.0,0.0,0.0,0.0,0.0,0.0,0.0,0.0,0.0,0.0,0.0,0.0,0.0,0.0,0.0,0.0,0.0,0.0,0.0,0.0,0.0,0.0,0.0,0.0,0.0,0.0,0.0,0.0,0.0,0.0,0.0,0.0,0.0,0.0,0.0,0.0,3.7425,3.7391,3.7534,3.7929,3.7735,3.7613,3.7546,3.674,3.6249,3.6107,0.0,0.0,0.0,0.0,0.0,0.0,0.0,0.0,0.0,0.0,0.0,0.0,0.0,0.0,0.0,0.0,0.0,0.0,0.0,0.0,0.0,0.0,0.0,0.0,0.0,0.0,0.0,0.0,0.0,0.0,0.0,0.0,0.0,0.0,0.0,0.0,0.0,0.0,0.0,3.7785,3.8639,0.0,0.0,0.0,0.0,0.0,0.0,0.0,0.0,4.198,0.0,0.0,0.0,0.0,0.0,0.0,0.0,0.0,0.0,0.0,0.0,0.0,0.0,0.0,0.0,0.0,0.0,0.0,0.0,0.0,0.0,0.0,0.0,0.0,0.0,0.0,0.0,0.0,0.0,0.0,0.0,0.0,0.0,0.0,0.0,0.0,0.0,0.0,0.0,0.0,0.0,0.0,0.0,0.0,0.0,0.0,0.0,0.0,0.0,0.0,0.0,0.0,0.0,0.0,0.0,3.8482,3.8429,3.8569,3.9016,3.8947,3.8782,3.8567,3.7783,3.7249,0.0,0.0,0.0,0.0,0.0,0.0,0.0,0.0,0.0,0.0,0.0,0.0,0.0,0.0,0.0,0.0,0.0,0.0,0.0,0.0,0.0,0.0,0.0,0.0,0.0,0.0,0.0,0.0,0.0,0.0,0.0,0.0,0.0,0.0,0.0,0.0,0.0,0.0,0.0,0.0,3.905,3.9837,3.9837,0.0,0.0,0.0,0.0,0.0,0.0,4.2621,4.2621,0.0,0.0,0.0,0.0,0.0,0.0,0.0,0.0,0.0,0.0,0.0,0.0,0.0,0.0,0.0,0.0,0.0,0.0,0.0,0.0,0.0,0.0,0.0,0.0,0.0,0.0,0.0,0.0,0.0,0.0,0.0,0.0,0.0,0.0,0.0,0.0,0.0,0.0,0.0,0.0,0.0,0.0,0.0,0.0,0.0,0.0,0.0,0.0,0.0,0.0,0.0,0.0,0.0,0.0,0.0,3.9498,3.9392,3.9449,3.9732,3.972,3.954,3.9197,3.8605,3.8112,0.0,0.0,0.0,0.0,0.0,0.0,0.0,0.0,0.0,0.0,0.0,0.0,0.0,0.0,0.0,0.0,0.0,0.0,0.0,0.0,0.0,0.0,0.0,0.0,0.0,0.0,0.0,0.0,0.0,0.0,0.0,0.0,0.0,0.0,0.0,0.0,0.0,0.0,0.0,0.0,0.0,4.1081,4.1092,4.2047,0.0,0.0,0.0,0.0,4.3324,4.3295,0.0,0.0,0.0,0.0,0.0,0.0,0.0,0.0,0.0,0.0,0.0,0.0,0.0,0.0,0.0,0.0,0.0,0.0,0.0,0.0,0.0,0.0,0.0,0.0,0.0,0.0,0.0,0.0,0.0,0.0,0.0,0.0,0.0,0.0,0.0,0.0,0.0,0.0,0.0,0.0,0.0,0.0,0.0,0.0,0.0,0.0,0.0,0.0,0.0,0.0,0.0,0.0,0.0,0.0,0.0,0.0,3.9746,3.9755,3.9683,3.952,3.9377,3.9266,3.9177,3.8733,3.8431,0.0,0.0,0.0,0.0,0.0,0.0,0.0,0.0,0.0,0.0,0.0,0.0,0.0,0.0,0.0,0.0,0.0,0.0,0.0,0.0,0.0,0.0,0.0,0.0,0.0,0.0,0.0,0.0,0.0,0.0,0.0,0.0,0.0,0.0,0.0,0.0,0.0,0.0,0.0,0.0,0.0,4.2396,4.2385,4.2947,4.3582,0.0,0.0,4.52,4.5774,4.5624,0.0,0.0,0.0,0.0,0.0,0.0,0.0,0.0,0.0,0.0,0.0,0.0,0.0,0.0,0.0,0.0,0.0,0.0,0.0,0.0,0.0,0.0,0.0,0.0,0.0,0.0,0.0,0.0,0.0,0.0,0.0,0.0,0.0,0.0,0.0,0.0,0.0,0.0,0.0,0.0,0.0,0.0,0.0,0.0,0.0,0.0,0.0,0.0,0.0,0.0,0.0,0.0,0.0,0.0,0.0,3.9823,4.0328,4.0207,4.0226,4.0342,4.0277,4.0121,3.9887,3.9302,3.8887,0.0,0.0,0.0,0.0,0.0,0.0,0.0,0.0,0.0,0.0,0.0,0.0,0.0,0.0,0.0,0.0,0.0,0.0,0.0,0.0,0.0,0.0,0.0,0.0,0.0,0.0,0.0,0.0,0.0,0.0,0.0,0.0,0.0,0.0,0.0,0.0,0.0,0.0,0.0,0.0,0.0,0.0,4.361,4.4284,0.0,0.0,0.0,4.5455,4.5758,0.0,0.0,0.0,0.0,0.0,0.0,0.0,0.0,0.0,0.0,0.0,0.0,0.0,0.0,0.0,0.0,0.0,0.0,0.0,0.0,0.0,0.0,0.0,0.0,0.0,0.0,0.0,0.0,0.0,0.0,0.0,0.0,0.0,0.0,0.0,0.0,0.0,0.0,0.0,0.0,0.0,0.0,0.0,0.0,0.0,0.0,0.0,0.0,0.0,0.0,0.0,0.0,0.0,0.0,0.0,0.0,0.0,4.1285,4.1128,4.1107,4.1282,4.1299,4.1105,4.0757,4.0198,0.0,0.0,0.0,0.0,0.0,0.0,0.0,0.0,0.0,0.0,0.0,0.0,0.0,0.0,0.0,0.0,0.0,0.0,0.0,0.0,0.0,0.0,0.0,0.0,0.0,0.0,0.0,3.2671,0.0,0.0,0.0,0.0,0.0,0.0,0.0,0.0,0.0,0.0,0.0,0.0,0.0,0.0,4.4717,4.4845,4.5637,4.6224,0.0,0.0,4.6338,4.6338,4.6288,4.6237,0.0,0.0,0.0,0.0,0.0,0.0,0.0,0.0,0.0,0.0,0.0,0.0,0.0,0.0,0.0,0.0,0.0,0.0,0.0,0.0,0.0,0.0,0.0,0.0,0.0,0.0,0.0,0.0,0.0,0.0,0.0,0.0,0.0,0.0,0.0,0.0,0.0,0.0,0.0,0.0,0.0,0.0,0.0,0.0,0.0,0.0,0.0,0.0,0.0,0.0,0.0,0.0,0.0,0.0,4.1778,4.2727,4.2734,4.249,4.2127,4.2132,4.1969,4.1724,4.1414,4.1233,0.0,0.0,0.0,0.0,0.0,0.0,0.0,0.0,0.0,0.0,0.0,0.0,0.0,0.0,0.0,0.0,0.0,0.0,0.0,0.0,0.0,0.0,0.0,0.0,0.0,0.0,0.0,0.0,0.0,0.0,0.0,0.0,0.0,0.0,0.0,0.0,0.0,0.0,0.0,0.0,0.0,4.5532,4.6072,4.6748,4.7371,0.0,0.0,4.8862,4.8821,4.8621,4.8488,4.8488,0.0,0.0,0.0,0.0,0.0,0.0,0.0,0.0,0.0,0.0,0.0,0.0,0.0,0.0,0.0,0.0,0.0,0.0,0.0,0.0,0.0,0.0,0.0,0.0,0.0,0.0,0.0,0.0,0.0,0.0,0.0,0.0,0.0,0.0,0.0,0.0,0.0,0.0,0.0,0.0,0.0,0.0,0.0,0.0,0.0,0.0,0.0,0.0,0.0,0.0,0.0,0.0,0.0,4.2439,4.2637,4.252,4.2312,4.196,4.1949,4.1835,4.1567,4.1436,4.1279,0.0,0.0,0.0,0.0,0.0,0.0,0.0,0.0,0.0,0.0,0.0,0.0,0.0,0.0,0.0,0.0,0.0,0.0,0.0,0.0,0.0,0.0,0.0,0.0,0.0,0.0,0.0,0.0,3.6614,3.7622,3.8684,0.0,0.0,0.0,0.0,0.0,0.0,0.0,0.0,0.0,0.0,4.6765,4.7319,4.7835,0.0,0.0,4.8804,4.9105,4.9105,4.9322,4.9498,4.9498,4.9401,0.0,0.0,0.0,0.0,0.0,0.0,0.0,0.0,0.0,0.0,0.0,0.0,0.0,0.0,0.0,0.0,0.0,0.0,0.0,0.0,0.0,0.0,0.0,0.0,0.0,0.0,0.0,0.0,0.0,0.0,0.0,0.0,0.0,0.0,0.0,0.0,0.0,0.0,0.0,0.0,0.0,0.0,0.0,0.0,0.0,0.0,0.0,0.0,0.0,0.0,0.0,0.0,4.3193,4.3345,4.3211,4.3017,4.2787,4.2799,4.2594,4.226,4.2084,4.1798,0.0,0.0,0.0,0.0,0.0,0.0,0.0,0.0,0.0,0.0,0.0,0.0,0.0,0.0,0.0,0.0,0.0,0.0,0.0,0.0,0.0,0.0,0.0,0.0,0.0,0.0,0.0,0.0,3.8217,3.9492,4.0638,0.0,0.0,0.0,0.0,0.0,0.0,0.0,0.0,0.0,0.0,4.784,4.8555,4.8913,4.9214,4.9569,4.9699,4.9759,4.9759,5.0025,5.0238,5.0238,0.0,0.0,0.0,0.0,0.0,0.0,0.0,0.0,0.0,0.0,0.0,0.0,0.0,0.0,0.0,0.0,0.0,0.0,0.0,0.0,0.0,0.0,0.0,0.0,0.0,0.0,0.0,0.0,0.0,0.0,3.5609,0.0,0.0,0.0,0.0,0.0,0.0,0.0,0.0,0.0,0.0,0.0,0.0,0.0,0.0,0.0,0.0,0.0,0.0,0.0,0.0,0.0,0.0,4.417,4.5302,4.5222,4.5193,4.4984,4.5011,4.4681,4.4112,4.3614,4.3218,4.2943,0.0,0.0,0.0,0.0,0.0,0.0,0.0,0.0,0.0,0.0,0.0,0.0,0.0,0.0,0.0,0.0,0.0,0.0,0.0,0.0,0.0,0.0,0.0,0.0,0.0,0.0,3.8522,4.0094,4.1373,0.0,0.0,0.0,0.0,0.0,0.0,0.0,0.0,0.0,0.0,4.7853,4.8612,4.9793,4.9956,5.0376,5.1473,5.1426,5.1262,5.125,5.1023,5.08,0.0,0.0,0.0,0.0,0.0,0.0,0.0,0.0,0.0,0.0,0.0,0.0,0.0,0.0,0.0,0.0,0.0,0.0,0.0,0.0,0.0,0.0,0.0,0.0,0.0,0.0,0.0,3.5977,3.6051,0.0,0.0,0.0,0.0,0.0,0.0,0.0,0.0,0.0,0.0,0.0,4.0116,4.0631,0.0,0.0,0.0,0.0,0.0,0.0,0.0,0.0,0.0,0.0,0.0,0.0,4.4927,4.5191,4.5179,4.4981,4.4513,4.4514,4.431,4.3967,4.3766,4.3532,4.3289,0.0,0.0,0.0,0.0,0.0,0.0,0.0,0.0,0.0,0.0,0.0,0.0,0.0,0.0,0.0,0.0,0.0,0.0,0.0,0.0,0.0,0.0,0.0,0.0,0.0,3.8988,0.0,0.0,0.0,0.0,0.0,0.0,0.0,0.0,0.0,0.0,0.0,4.7402,4.8407,4.8688,4.921,5.0374,5.0535,5.0695,0.0,0.0,0.0,0.0,0.0,0.0,0.0,0.0,0.0,0.0,0.0,0.0,0.0,0.0,5.1542,5.0389,5.0197,5.02,5.0329,0.0,0.0,0.0,0.0,0.0,0.0,0.0,0.0,0.0,0.0,0.0,0.0,0.0,0.0,3.7344,0.0,3.7464,0.0,0.0,0.0,0.0,0.0,0.0,0.0,0.0,4.0746,4.1168,4.14,4.1935,4.2289,0.0,4.3496,4.3518,0.0,0.0,0.0,0.0,0.0,0.0,0.0,0.0,4.5953,4.6016,4.59,4.5679,4.5286,4.5299,4.5048,4.4586,4.4097,4.3662,4.3283,4.3101,4.2657,0.0,0.0,0.0,0.0,0.0,0.0,0.0,0.0,0.0,0.0,0.0,0.0,0.0,0.0,0.0,0.0,0.0,0.0,0.0,0.0,0.0,0.0,0.0,4.0587,0.0,0.0,0.0,0.0,0.0,0.0,0.0,0.0,0.0,4.7377,4.7671,4.8377,4.9549,4.9709,5.012,5.125,0.0,0.0,0.0,0.0,0.0,0.0,0.0,5.399,5.399,5.399,5.399,5.399,5.3798,5.3616,5.3448,0.0,0.0,5.1899,5.1711,5.1742,5.1838,5.1853,5.1884,5.2006,5.201,5.2036,0.0,0.0,0.0,0.0,0.0,0.0,0.0,0.0,3.8311,3.8338,0.0,3.8897,0.0,0.0,0.0,0.0,0.0,4.1528,0.0,0.0,4.1601,4.1793,4.2343,4.2741,4.3241,4.3823,4.4422,4.4541,4.4286,4.5061,0.0,0.0,0.0,0.0,0.0,0.0,4.7203,4.77,4.7425,4.7272,4.7232,4.7232,4.6854,4.601,4.4701,4.3742,4.3167,4.3154,4.3127,4.3075,4.2787,0.0,0.0,0.0,0.0,0.0,0.0,0.0,0.0,0.0,0.0,0.0,0.0,0.0,0.0,0.0,0.0,0.0,0.0,0.0,0.0,4.1572,0.0,0.0,0.0,0.0,0.0,0.0,0.0,0.0,0.0,0.0,4.9087,4.9119,4.9547,5.0673,0.0,0.0,0.0,0.0,5.299,5.4054,5.4022,5.3798,5.3798,5.361,5.351,5.3494,0.0,0.0,5.3468,5.3452,5.3494,5.3468,5.3504,5.3452,5.3442,5.3327,5.3382,5.3645,5.364,5.3831,5.4161,5.398,5.4049,4.0453,0.0,0.0,0.0,0.0,4.0012,4.0172,4.0156,4.0559,4.0663,4.049,4.0643,0.0,0.0,0.0,0.0,0.0,0.0,4.2592,4.2606,4.2935,4.322,4.3368,4.3479,4.3628,4.3828,4.4831,4.5287,4.5248,4.625,4.6343,4.5576,0.0,0.0,0.0,0.0,4.7277,4.7423,4.734,4.7202,4.7007,4.7007,4.6788,4.6378,4.598,4.5677,4.5494,4.5273,4.4927,4.4497,4.3824,0.0,0.0,0.0,0.0,0.0,0.0,0.0,0.0,0.0,0.0,0.0,0.0,0.0,0.0,0.0,0.0,0.0,0.0,0.0,4.2801,4.3546,4.4304,0.0,0.0,0.0,0.0,0.0,0.0,0.0,0.0,0.0,5.0743,5.0154,5.0075,0.0,0.0,5.1809,5.2991,5.3191,5.328,5.3595,0.0,0.0,0.0,5.438,5.4628,5.4602,5.4602,5.4602,5.4628,5.4602,5.4602,5.4602,5.4602,5.4628,5.4576,5.3922,5.3484,5.3503,5.3519,5.3535,5.3632,5.3664,5.369,4.1776,4.088,4.0741,4.0608,4.0519,4.0926,4.1137,4.1189,4.1583,4.1676,4.1658,4.1913,4.1926,4.1821,4.2051,0.0,0.0,0.0,4.3267,4.3293,4.3866,4.4278,4.453,4.4717,4.4957,4.5209,4.5928,4.6207,4.6151,4.7265,4.7421,4.6676,0.0,0.0,4.8005,4.8117,4.8299,4.8497,4.8382,4.8253,4.8081,4.787,4.7622,4.7294,4.6877,4.6571,4.6417,4.6025,4.5642,4.5264,4.4663,4.4152,0.0,0.0,0.0,0.0,0.0,0.0,0.0,0.0,0.0,0.0,0.0,4.0506,4.1025,0.0,0.0,0.0,4.3009,4.3792,4.484,4.5414,0.0,0.0,0.0,0.0,0.0,0.0,0.0,5.0262,5.0377,5.0758,5.1723,5.1292,5.1205,5.2192,5.2318,5.2658,5.3583,0.0,5.387,5.4314,5.468,5.4951,5.5203,5.5543,5.5727,5.5575,5.5406,5.5321,5.5295,5.5295,5.5304,5.5295,5.5295,5.5278,5.5295,5.4733,5.4306,5.4379,5.4393,5.4471,5.468,5.4759,5.4759,4.3263,4.3206,4.2324,4.1834,4.1633,4.161,4.1668,4.1791,4.1779,4.1916,4.2178,4.2735,4.3001,4.308,4.3627,0.0,4.396,4.4,4.4041,4.4041,4.4598,4.5156,4.5675,4.6153,4.6697,4.7243,4.735,4.7237,4.7078,4.8157,4.858,4.8347,4.8315,4.8613,4.9143,4.9397,4.9818,5.0349,5.0037,4.9897,4.9841,4.9356,4.893,4.8523,4.7582,4.6893,4.6521,4.6005,4.5724,4.5724,4.5425,4.524,4.519,0.0,0.0,0.0,0.0,0.0,0.0,0.0,0.0,0.0,0.0,0.0,0.0,0.0,0.0,4.3155,4.4415,0.0,4.6467,4.7027,0.0,0.0,0.0,4.9315,4.99,4.9952,5.0273,5.1088,0.0,0.0,5.227,0.0,5.2689,5.342,5.3492,5.3632,5.4164,5.4287,5.4702,5.5626,5.5842,5.6068,5.6365,5.6521,5.6418,5.6089,5.5837,5.5594,5.5594,5.5594,5.5584,5.5568,5.561,5.5602,5.561,5.5517,5.5665,5.5854,5.5825,5.5999,5.6356,5.646,5.6417,4.3955,4.3942,4.3522,4.34,4.3525,4.3325,4.3243,4.3275,4.3275,4.3317,4.3387,4.352,4.3826,4.4278,4.4626,4.5049,4.5484,4.5742,4.5856,4.5856,4.6001,4.6159,4.6278,4.6421,4.6553,4.6736,4.7577,4.7968,4.7948,4.9049,4.9554,4.9509,4.9498,4.9557,4.9703,4.9786,4.9887,5.0018,4.9942,4.9776,4.9518,4.9399,4.917,4.8824,4.8552,4.8378,4.8277,4.7907,4.7709,4.7683,4.701,4.6441,4.6028,4.5441,0.0,0.0,0.0,0.0,0.0,0.0,0.0,0.0,0.0,4.3474,4.4049,0.0,4.4293,0.0,4.558,4.6293,4.6957,4.7522,0.0,0.0,4.8854,4.9343,5.0331,5.0434,5.084,5.1906,5.2018,5.2243,5.2836,5.3314,5.3833,5.4354,5.4105,5.4044,5.4568,5.4997,5.5357,5.5632,5.5701,5.5717,5.5915,5.5872,5.588,5.575,5.5671,5.561,5.5592,5.561,5.561,5.561,5.561,5.561,5.5652,5.561,5.5824,5.6206,5.5992,5.5717,5.5872,5.5915,5.5897,4.4805,4.4846,4.5076,4.5276,4.5329,4.4557,4.4412,4.4772,4.4772,4.4864,4.4995,4.4995,4.518,4.551,4.5651,4.591,4.6225,4.6427,4.6527,4.6513,4.7024,4.726,4.7272,4.7768,4.7989,4.803,4.8657,4.8856,4.8785,4.9633,5.0014,4.9887,5.0323,5.0571,5.0571,5.0248,5.0195,5.0425,5.0504,5.0617,5.0687,5.0671,5.0529,5.0187,4.9696,4.9379,4.9212,4.8543,4.8172,4.8172,4.7709,4.7324,4.7014,4.6728,4.6426,0.0,0.0,0.0,0.0,0.0,0.0,0.0,0.0,0.0,0.0,0.0,4.5447,4.6356,4.6928,4.7446,4.7903,4.8682,4.9296,4.9634,5.0095,5.0675,5.1299,5.1376,5.1618,5.233,5.2629,5.2944,5.3326,5.3885,5.4376,5.4672,5.4672,5.4743,5.5097,5.5431,5.5695,5.5943,5.6012,5.6114,5.6345,5.6236,5.6147,5.613,5.5987,5.5863,5.588,5.6065,5.62,5.6243,5.6421,5.6624,5.6624,5.6642,5.6743,5.6964,5.6845,5.659,5.6427,5.6396,5.6447,4.5755,4.5834,4.6555,4.6878,4.6853,4.5646,4.55,4.606,4.606,4.6225,4.6501,4.6527,4.6552,4.664,4.6666,4.6716,4.6818,4.6804,4.6804,4.687,4.7835,4.829,4.8342,4.9307,4.9776,4.9776,4.987,4.9729,4.9475,5.0126,5.0296,5.0066,5.1017,5.1504,5.1478,5.0826,5.0725,5.1232,5.1418,5.1744,5.2223,5.224,5.2075,5.1736,5.0775,5.0123,4.9807,4.8862,4.8335,4.8319,4.8319,4.8259,4.8134,4.8109,4.8058,0.0,4.7908,0.0,0.0,0.0,0.0,0.0,0.0,0.0,0.0,4.5813,4.6335,4.7557,4.8216,4.8663,4.8942,5.0005,5.0694,5.072,5.1579,5.2208,5.226,5.2336,5.2459,5.2692,5.3198,5.3635,5.3803,5.4328,5.4723,5.4783,5.5186,5.5533,5.5753,5.5749,5.5885,5.6399,5.6502,5.6701,5.7204,5.7157,5.6938,5.6877,5.6701,5.642,5.6456,5.6815,5.7079,5.7148,5.7461,5.7813,5.7901,5.7844,5.7844,5.7832,5.7781,5.771,5.7484,5.7393,5.7619,4.6648,4.6661,4.6619,4.6819,4.725,4.7453,4.7112,4.64,4.64,4.6439,4.6527,4.6527,4.6853,4.7451,4.7477,4.7822,4.8448,4.8448,4.8448,4.8474,4.8664,4.8782,4.8782,4.8988,4.9091,4.9117,4.958,4.978,4.9743,5.0703,5.1174,5.112,5.1802,5.2135,5.2119,0.0,0.0,0.0,5.21,5.2055,5.191,5.1894,5.1729,5.1405,5.1187,0.0,5.0962,5.0761,5.0645,5.0661,5.0661,0.0,0.0,0.0,0.0,0.0,0.0,0.0,0.0,0.0,0.0,0.0,4.7531,4.7315,4.7431,4.7456,4.7562,4.7835,4.8765,4.9391,4.9465,5.0505,5.1169,5.1169,5.1362,5.1665,5.2077,5.2539,5.2983,5.3452,5.3989,5.4409,5.4464,5.4906,5.5257,5.5308,5.5717,5.6205,5.6678,5.6337,5.6142,5.6286,5.6694,5.7118,5.7723,5.7692,5.7623,5.7668,5.7649,5.7549,5.7524,5.7625,5.7725,5.7725,5.7826,5.7926,5.7926,5.7901,5.7976,5.7901,5.7926,5.7863,5.7812,5.7799,5.7849,4.7261,0.0,4.7721,4.7992,0.0,4.8652,4.8381,4.7689,4.7865,4.785,4.7689,4.7689,4.791,4.8288,4.8313,4.8506,4.8892,4.8892,4.8892,4.8917,4.9214,4.9343,4.9368,4.9906,5.0121,5.0162,5.0752,5.0953,5.0834,5.1328,5.1511,5.1372,5.193,5.2193,5.2193,5.2304,5.2304,5.2193,5.2193,5.2236,5.2338,5.2346,5.2262,5.2076,0.0,0.0,0.0,0.0,0.0,0.0,0.0,0.0,0.0,0.0,0.0,4.9631,4.9565,4.9581,4.9565,4.959,4.9565,4.9581,4.9565,4.9339,4.8786,4.9264,4.959,4.959,5.0117,5.0435,5.0485,5.1197,5.18,5.2051,5.2327,5.2721,5.3248,5.3575,5.3833,5.4127,5.4629,5.4981,5.4981,5.5717,5.615,5.6219,5.6696,5.7123,5.733,5.6953,5.6677,5.6997,5.7248,5.7531,5.7826,5.7901,5.7901,5.7901,5.7901,5.7901,5.7901,5.8127,5.8303,5.8328,5.8504,5.8679,5.8704,5.8679,5.8679,5.8679,5.8679,5.8679,5.8654,5.8278,5.8001,4.8053,4.8553,4.899,4.9265,4.9407,4.9449,4.9338,4.9112,0.0,0.0,0.0,4.8892,4.8928,4.8968,4.9071,4.9142,4.9166,4.93,4.932,4.9335,4.982,5.0066,5.0117,5.0985,5.1377,5.1402,5.1904,5.196,5.1712,5.1813,5.1698,5.1507,5.1975,5.2277,5.241,5.2837,5.2887,5.2553,5.2427,5.2603,5.302,5.3138,5.3213,5.3213,5.2779,5.2503,5.2377,5.1967,5.1691,5.159,5.159,5.154,5.144,5.144,5.1414,5.1289,5.1289,5.1289,5.1289,5.1289,5.1289,5.1289,5.1389,5.1013,4.9983,5.0761,5.1289,5.1289,5.1465,5.159,5.1574,5.2176,5.2729,5.3163,5.3607,5.4052,5.4504,5.468,5.4723,5.4823,5.5308,5.5691,5.5742,5.6527,5.7179,5.723,5.7524,5.7976,5.7951,5.7531,5.738,5.7857,5.8027,5.8077,5.8177,5.8252,5.8177,5.8278,5.8227,5.8177,5.8252,5.8535,5.8811,5.8836,5.9232,5.9458,5.9583,5.9608,5.9684,5.9804,5.9809,5.9809,5.9734,5.9106,5.8654,4.9542,4.9647,4.9464,4.9375,4.9418,4.9657,4.9806,4.9879,4.9265,4.8938,4.8892,4.8892,4.8993,4.9197,4.9704,5.0042,5.0222,5.0742,5.0969,0.0,5.1044,5.107,5.1111,5.1237,5.1313,5.1296,5.1413,5.1405,5.1422,5.1833,5.2026,5.2051,5.2511,5.3013,5.3432,5.3557,5.3808,5.4202,5.3708,5.3507,5.359,5.4102,5.4353,5.4371,5.4253,5.4002,5.3482,5.3381,5.3155,5.2711,5.2669,5.246,5.2026,5.2026,5.1774,5.1339,5.1314,5.1289,5.1314,5.1289,5.1289,5.1314,5.1724,5.1741,5.1138,5.1214,5.1289,5.1339,5.2176,5.2661,5.2737,5.36,5.4195,5.4328,5.4421,5.4522,5.4697,5.5056,5.5333,5.5408,5.6175,5.6734,5.6803,5.733,5.7775,5.7775,5.7951,5.8102,5.8409,5.8127,5.8033,5.8434,5.8585,5.8761,5.9031,5.9257,5.9207,5.9257,5.9232,5.9251,5.9282,5.9382,5.9458,5.9408,5.9558,5.9734,6.0091,6.0191,6.0362,6.0713,6.0814,6.0858,6.0833,6.0613,6.0337,4.9822,5.0077,4.9739,4.9682,4.9802,5.0031,5.0364,5.0689,5.0355,5.0014,4.972,4.972,4.9944,5.0345,5.0622,5.0792,5.0896,5.1188,5.1289,5.1289,5.1289,5.1289,5.1339,5.1574,5.1741,5.1766,5.2026,5.2176,5.2201,5.241,5.2678,5.3005,5.3532,5.3951,5.4177,5.4177,5.4346,5.4597,5.4328,5.4177,5.4185,5.4471,5.4597,5.4597,5.4597,5.4471,5.4202,5.4202,5.4077,5.3833,5.3833,5.3708,5.3474,5.3449,5.3348,5.3097,5.3089,5.3072,5.3072,5.3072,5.3089,5.3115,5.3298,5.3348,5.3115,5.2796,5.2746,5.3064,5.3575,5.3826,5.3833,5.4278,5.4723,5.5024,5.5049,5.5282,5.5817,5.6093,5.6376,5.6721,5.7173,5.7481,5.7499,5.7957,5.8334,5.8334,5.8554,5.8855,5.9106,5.8956,5.883,5.9062,5.9112,5.9232,5.9483,5.9527,5.9608,5.9885,5.9935,6.0085,6.0311,6.0412,6.0406,6.0431,6.0406,6.0507,6.0763,6.0788,6.0914,6.104,6.119,6.119,6.119,6.119,6.1009,5.0075,5.0529,5.0178,5.0152,5.0374,5.0542,5.0887,5.1289,5.1289,5.1096,5.0804,5.0653,5.087,5.1289,5.1414,5.149,5.149,5.1615,5.1666,5.1666,5.1666,5.1649,5.1674,5.2101,5.2352,5.2477,5.2887,5.3138,5.3264,5.3289,5.3482,5.3909,5.4353,5.4647,5.478,5.4773,5.483,5.4931,5.4974,5.4924,5.478,5.4898,5.4956,5.4974,5.4956,5.4881,5.4798,5.4798,5.4723,5.4597,5.4597,5.4597,5.4597,5.4597,5.4597,5.4597,5.4597,5.4597,5.4597,5.4597,5.4597,5.4597,5.4597,5.4647,5.4723,5.4378,5.4185,5.4529,5.4672,5.4773,5.478,5.5056,5.5308,5.5717,5.5892,5.6319,5.7029,5.7186,5.7336,5.7826,5.8001,5.8077,5.8177,5.8535,5.888,5.8936,5.9357,5.9659,5.9684,5.9759,5.9879,5.9834,5.9784,5.9784,5.9834,5.9935,6.0111,6.0462,6.0512,6.0688,6.0989,6.114,6.1165,6.111,6.1135,6.121,6.1316,6.1366,6.1441,6.1617,6.1692,6.1637,6.1662,6.1642,6.1517,5.1054,5.1213,5.0909,5.0964,5.1179,5.1188,5.1264,5.1339,5.1314,5.1565,5.1875,5.144,5.1264,5.1364,5.1825,5.2026,5.2076,5.2536,5.2737,5.2737,5.2762,5.2762,5.2762,5.2812,5.3088,5.3482,5.3607,5.3884,5.4328,5.4396,5.4471,5.4522,5.4597,5.4856,5.5282,5.5333,5.5541,5.6043,5.605,5.5817,5.5383,5.5817,5.605,5.6068,5.6043,5.5817,5.5358,5.5333,5.5107,5.4647,5.4604,5.4622,5.4622,5.4622,5.4622,5.4622,5.4622,5.4597,5.4622,5.4597,5.4647,5.4597,5.468,5.4898,5.5315,5.5308,5.5056,5.4898,5.5107,5.5383,5.5383,5.615,5.6702,5.6778,5.7223,5.7725,5.7775,5.7826,5.7851,5.7876,5.8378,5.861,5.8704,5.9087,5.9408,5.9533,5.9935,6.0242,6.0267,6.0588,6.0909,6.0909,6.0613,6.0512,6.0808,6.1034,6.0984,6.1085,6.1135,6.121,6.1316,6.1341,6.1215,6.1492,6.1316,6.1492,6.1793,6.1943,6.2074,6.2325,6.2471,6.2576,6.2626,6.2551,6.2375,5.1546,5.1603,5.1284,5.1364,5.1766,5.1774,5.195,5.2234,5.2251,5.236,5.2536,5.2335,5.2234,5.2277,5.2485,5.2586,5.2611,5.313,5.3364,5.3406,5.3733,5.3884,5.3926,5.3884,5.4052,5.4228,5.4228,5.4353,5.4604,5.4906,5.5082,5.5107,5.5383,5.5666,5.5867,5.5867,5.5993,5.6194,5.6219,5.6093,5.5924,5.6093,5.6219,5.6219,5.6219,5.6118,5.5917,5.5867,5.5767,5.5541,5.5541,5.5541,5.5541,5.5541,5.5541,5.5541,5.5541,5.5541,5.5541,5.5559,5.5691,5.5993,5.6018,5.6269,5.6796,5.6872,5.6771,5.657,5.6445,5.6451,5.6821,5.7298,5.7531,5.7575,5.7775,5.8008,5.8334,5.8378,5.8459,5.8799,5.9031,5.9162,5.9257,5.9639,6.0111,6.0387,6.0713,6.0814,6.0864,6.104,6.1291,6.1567,6.1441,6.1266,6.1266,6.119,6.1361,6.1587,6.1667,6.1718,6.2044,6.2144,6.2169,6.2119,6.2069,6.2144,6.24,6.2476,6.2576,6.2802,6.2802,6.2802,6.2802,6.2802,6.2676,5.183,5.1866,5.1791,5.1975,5.231,5.231,5.2536,5.2912,5.3046,5.3113,5.3121,5.3289,5.3364,5.3339,5.3213,5.3213,5.3406,5.3758,5.3951,5.4002,5.4421,5.4597,5.4597,5.4597,5.4655,5.478,5.4823,5.4881,5.5056,5.539,5.5616,5.5666,5.6018,5.6219,5.6219,5.6219,5.6276,5.6401,5.6401,5.6502,5.6646,5.6652,5.6502,5.6244,5.6219,5.6251,5.6426,5.6445,5.6502,5.6671,5.6652,5.6671,5.6652,5.6652,5.6671,5.6671,5.6671,5.6671,5.6671,5.6652,5.6828,5.7204,5.7236,5.743,5.7801,5.7901,5.7976,5.8052,5.7713,5.7631,5.7826,5.8027,5.8127,5.8127,5.8227,5.8529,5.8861,5.8911,5.9131,5.9589,5.9709,5.9809,5.9985,6.0337,6.0713,6.1059,6.1311,6.1436,6.1441,6.1542,6.1818,6.2149,6.2199,6.2069,6.1718,6.1718,6.1868,6.2019,6.2199,6.235,6.2727,6.2777,6.2777,6.2501,6.2727,6.2777,6.2701,6.2752,6.2777,6.2802,6.2802,6.2802,6.2802,6.2802,6.2802,5.1899,5.2135,5.2611,5.2812,5.287,5.2887,5.287,5.3063,5.3464,5.3683,5.3758,5.4202,5.4496,5.4454,5.3934,5.4002,5.4446,5.4504,5.4547,5.4554,5.4647,5.4622,5.4597,5.4597,5.4881,5.5333,5.5358,5.5591,5.6043,5.61,5.6175,5.615,5.6226,5.6244,5.6294,5.6319,5.6477,5.6928,5.6979,5.7186,5.77,5.7775,5.7248,5.642,5.6244,5.6502,5.6885,5.6979,5.7204,5.7775,5.775,5.7775,5.7801,5.7775,5.775,5.775,5.7775,5.7775,5.775,5.7725,5.7775,5.7851,5.7851,5.7901,5.8027,5.8052,5.8227,5.861,5.8635,5.8485,5.8158,5.8459,5.866,5.8685,5.9131,5.9382,5.9458,5.9533,5.9709,6.0136,6.0286,6.0468,6.1009,6.1135,6.119,6.1366,6.1667,6.1969,6.2019,6.235,6.2601,6.2676,6.2701,6.2752,6.2701,6.2476,6.2551,6.2651,6.2601,6.2727,6.2777,6.2802,6.2802,6.2802,6.2802,6.2802,6.2802,6.2802,6.2802,6.2802,6.2802,6.2802,6.2802,6.2802,6.2877,5.2572,5.2636,5.2812,5.3088,5.3389,5.3414,5.3632,5.4002,5.4177,5.4278,5.4321,5.4522,5.4798,5.5107,5.4881,5.4705,5.4647,5.4931,5.5107,5.5157,5.5483,5.5616,5.5616,5.5634,5.5717,5.5892,5.5899,5.6018,5.6168,5.6219,5.6376,5.6677,5.6728,5.6903,5.7223,5.7298,5.738,5.7575,5.7556,5.77,5.7901,5.7901,5.7675,5.7323,5.7273,5.7374,5.7556,5.76,5.7681,5.7901,5.7901,5.7901,5.7901,5.7901,5.7901,5.7901,5.7901,5.7901,5.7901,5.7901,5.8052,5.8359,5.8409,5.8579,5.883,5.893,5.9006,5.9232,5.9564,5.9589,5.9463,5.9313,5.9207,5.9282,5.9684,6.001,6.0066,6.0337,6.0683,6.0814,6.0889,6.1115,6.1542,6.1718,6.1843,6.2169,6.2395,6.2476,6.2526,6.2701,6.2802,6.2802,6.2802,6.2802,6.2802,6.2802,6.2802,6.2802,6.2802,6.2777,6.2802,6.2802,6.2802,6.2802,6.2802,6.2802,6.2802,6.2802,6.2802,6.2902,6.2877,6.2952,6.2802,6.3028,6.3178,5.3457,5.3439,5.3457,5.3658,5.3959,5.3976,5.4202,5.4622,5.4798,5.4873,5.4881,5.5031,5.5333,5.5616,5.5666,5.5465,5.5157,5.5509,5.5666,5.5691,5.6025,5.6219,5.6219,5.6219,5.6219,5.6244,5.6401,5.6552,5.6728,5.6728,5.6928,5.728,5.7305,5.7481,5.7851,5.7901,5.7957,5.8127,5.8158,5.8252,5.8378,5.8428,5.8403,5.8428,5.8428,5.8328,5.8177,5.8152,5.8252,5.8397,5.8403,5.8403,5.8428,5.8428,5.8403,5.8403,5.8428,5.8403,5.8403,5.8403,5.8579,5.893,5.8961,5.9162,5.9684,5.974,5.9834,6.006,6.0337,6.0588,6.0518,6.0261,6.0055,6.006,6.0387,6.0588,6.0613,6.0939,6.1215,6.1436,6.1642,6.1893,6.2195,6.2245,6.24,6.2756,6.2802,6.2802,6.2802,6.2802,6.2802,6.2802,6.2802,6.2802,6.2802,6.2802,6.2802,6.2802,6.2802,6.2802,6.2802,6.2802,6.2802,6.2802,6.2827,6.2802,6.2802,6.2827,6.2902,6.3028,6.3178,6.3324,6.335,6.3429,6.3626,5.4572,5.4522,5.4597,5.4547,5.4597,5.4597,5.4622,5.478,5.5207,5.5408,5.5458,5.5892,5.6068,5.6168,5.6118,5.6143,5.6068,5.6168,5.615,5.6143,5.6194,5.6244,5.6276,5.6319,5.6351,5.642,5.6803,5.7305,5.7725,5.7725,5.7775,5.7895,5.7901,5.7976,5.7951,5.8077,5.8252,5.8604,5.871,5.8956,5.9408,5.9402,5.9332,5.9402,5.9382,5.9156,5.873,5.871,5.8911,5.9351,5.9427,5.9477,5.9357,5.9377,5.9452,5.9377,5.9408,5.9433,5.9458,5.9458,5.9433,5.9608,5.9558,5.9809,6.0236,6.0317,6.0512,6.0909,6.1135,6.1165,6.121,6.121,6.1135,6.116,6.1135,6.1165,6.121,6.1235,6.1436,6.1943,6.237,6.2727,6.2777,6.2727,6.2752,6.2777,6.2802,6.2802,6.2802,6.2802,6.2802,6.2802,6.2802,6.2802,6.2802,6.2802,6.2802,6.2802,6.2802,6.2802,6.2802,6.2802,6.2802,6.2827,6.3053,6.3053,6.3128,6.3178,6.3425,6.355,6.3672,6.3797,6.3877,6.4002,6.4228,5.4597,5.4597,5.4597,5.4805,5.5132,5.5157,5.5333,5.5691,5.5892,5.5968,5.5993,5.6143,5.6219,5.6219,5.6219,5.6219,5.6244,5.6552,5.6552,5.6294,5.6244,5.6426,5.6702,5.6753,5.6979,5.733,5.7531,5.7725,5.7876,5.7926,5.8052,5.8359,5.8434,5.8654,5.893,5.9025,5.9106,5.9207,5.9257,5.9357,5.9502,5.9527,5.9527,5.9527,5.9527,5.9408,5.9257,5.9257,5.9332,5.9527,5.9527,5.9527,5.9527,5.9527,5.9527,5.9527,5.9527,5.9684,6.001,6.0066,6.0236,6.0537,6.0638,6.0713,6.0889,6.0914,6.0989,6.126,6.1517,6.1743,6.1793,6.2119,6.1969,6.1285,6.1537,6.1743,6.1793,6.2024,6.235,6.2501,6.2681,6.2802,6.2802,6.2802,6.2802,6.2802,6.2802,6.2802,6.2802,6.2802,6.2802,6.2802,6.2802,6.2802,6.2802,6.2802,6.2802,6.2802,6.2802,6.2802,6.2802,6.2802,6.2802,6.3003,6.3203,6.3379,6.3475,6.3626,6.3873,6.4099,6.4224,6.435,6.445,6.4626,6.4852,5.5182,5.5182,5.5182,5.5383,5.5666,5.5691,5.5892,5.6194,5.6219,5.6219,5.6219,5.6219,5.6326,5.6451,5.6502,5.6627,5.6853,5.7179,5.7154,5.6853,5.6828,5.7029,5.7305,5.733,5.7631,5.8102,5.8183,5.8303,5.8478,5.8504,5.8654,5.8936,5.9006,5.9156,5.9502,5.9527,5.9527,5.9527,5.9502,5.9527,5.9527,5.9527,5.9527,5.9527,5.9527,5.9628,5.9759,5.9784,5.9709,5.9583,5.9684,5.979,5.9809,6.001,6.0111,6.0111,6.0161,6.0311,6.0588,6.0638,6.0788,6.1135,6.119,6.1291,6.1416,6.1492,6.1542,6.1818,6.2094,6.23,6.235,6.2576,6.245,6.1893,6.2094,6.2275,6.235,6.2576,6.2752,6.2777,6.2802,6.2802,6.2802,6.2802,6.2802,6.2802,6.2802,6.2802,6.2802,6.2802,6.2802,6.2802,6.2802,6.2802,6.2802,6.2802,6.2802,6.2802,6.2802,6.2802,6.2802,6.2827,6.2827,6.3324,6.3626,6.3902,6.4023,6.4149,6.435,6.4572,6.4827,6.4978,6.5107,6.5208,6.5409,5.6194,5.6219,5.6194,5.6143,5.6168,5.6168,5.6168,5.62,5.6294,5.6319,5.6294,5.642,5.6652,5.7004,5.706,5.7305,5.7801,5.7901,5.7926,5.7882,5.7907,5.8001,5.7951,5.8027,5.8328,5.8685,5.8736,5.8961,5.9301,5.9307,5.9483,5.9433,5.9433,5.9502,5.9527,5.9527,5.9527,5.9527,5.9527,5.9527,5.9583,5.9583,5.9653,5.9703,5.9753,5.9935,6.0286,6.0362,6.0136,5.9759,6.0116,6.0342,6.0442,6.0889,6.1065,6.1034,6.116,6.114,6.121,6.1215,6.1291,6.1461,6.1466,6.1486,6.1969,6.2044,6.2195,6.2551,6.2701,6.2752,6.2752,6.2777,6.2752,6.2777,6.2676,6.2727,6.2777,6.2781,6.2802,6.2802,6.2802,6.2802,6.2802,6.2802,6.2802,6.2802,6.2802,6.2802,6.2802,6.2802,6.2802,6.2802,6.2802,6.2802,6.2802,6.3103,6.3128,6.3199,6.3199,6.3224,6.3174,6.3149,6.3249,6.3701,6.4128,6.44,6.4626,6.4752,6.4953,6.5229,6.5434,6.5634,6.571,6.5735,6.576,5.6219,5.6219,5.6219,5.6219,5.6219,5.6219,5.6219,5.6251,5.6652,5.6803,5.6878,5.7255,5.7474,5.7656,5.7656,5.7775,5.8027,5.8334,5.8485,5.8579,5.8911,5.883,5.866,5.8905,5.9106,5.9257,5.9257,5.9382,5.9502,5.9527,5.9527,5.9527,5.9527,5.9527,5.9527,5.9527,5.9527,5.9527,5.9527,5.9759,6.006,6.0111,6.0311,6.0733,6.0708,6.0808,6.0959,6.0984,6.0914,6.0808,6.0864,6.0964,6.0984,6.116,6.1291,6.1311,6.126,6.1391,6.1718,6.1793,6.1969,6.2325,6.2275,6.245,6.2576,6.2576,6.2676,6.2802,6.2802,6.2802,6.2802,6.2802,6.2802,6.2802,6.2802,6.2802,6.2802,6.2802,6.2802,6.2802,6.2802,6.2802,6.2802,6.2802,6.2802,6.2802,6.2802,6.2802,6.2802,6.2802,6.2827,6.2827,6.2827,6.2802,6.2902,6.3274,6.35,6.3601,6.3726,6.3948,6.3898,6.3873,6.4023,6.4325,6.4756,6.5078,6.5233,6.5409,6.566,6.576,6.5835,6.5936,6.5961,6.6011,6.5986,5.6219,5.6219,5.6219,5.6326,5.6527,5.6552,5.6677,5.6947,5.723,5.738,5.7455,5.7706,5.8027,5.8208,5.8252,5.8359,5.8604,5.8886,5.9012,5.9081,5.9332,5.9282,5.9156,5.9382,5.9527,5.9527,5.9527,5.9502,5.9527,5.9527,5.9527,5.9527,5.9527,5.9527,5.9533,5.9734,5.9834,5.991,6.008,6.0387,6.0663,6.0688,6.0814,6.116,6.119,6.1285,6.1492,6.1743,6.1692,6.1386,6.1411,6.1542,6.1587,6.1768,6.1868,6.1868,6.1868,6.2044,6.225,6.2325,6.2496,6.2727,6.2802,6.2802,6.2802,6.2802,6.2802,6.2802,6.2802,6.2802,6.2802,6.2802,6.2802,6.2802,6.2802,6.2802,6.2802,6.2802,6.2802,6.2802,6.2802,6.2802,6.2802,6.2802,6.2802,6.2802,6.2802,6.2802,6.2802,6.2827,6.2952,6.3078,6.3224,6.3324,6.35,6.3827,6.4053,6.4153,6.4425,6.4601,6.4526,6.45,6.4701,6.4953,6.5358,6.566,6.5735,6.5835,6.5911,6.6011,6.6112,6.6112,6.6112,6.6112,6.6112,5.6376,5.6376,5.6376,5.6652,5.706,5.7085,5.7355,5.7801,5.7926,5.7976,5.8001,5.8052,5.8428,5.8786,5.8805,5.9031,5.9433,5.9382,5.9433,5.9452,5.9502,5.9452,5.9452,5.9458,5.9527,5.9527,5.9527,5.9527,5.9527,5.9527,5.9578,5.9633,5.9633,5.9703,5.991,6.0211,6.0387,6.0487,6.0808,6.1085,6.124,6.1266,6.1386,6.1542,6.1567,6.1718,6.2094,6.24,6.2325,6.1436,6.1818,6.2069,6.2144,6.2551,6.2727,6.2676,6.2626,6.2676,6.2777,6.2727,6.2777,6.2802,6.2802,6.2802,6.2802,6.2802,6.2802,6.2802,6.2802,6.2802,6.2802,6.2802,6.2802,6.2802,6.2802,6.2802,6.2802,6.2802,6.2802,6.2802,6.2802,6.2802,6.2802,6.2827,6.2852,6.3128,6.3128,6.3224,6.3299,6.3425,6.355,6.3726,6.3827,6.3973,6.4199,6.4475,6.4651,6.4802,6.5128,6.5279,6.5103,6.5128,6.5283,6.5509,6.5735,6.5886,6.5986,6.6061,6.6112,6.6112,6.6112,6.6112,6.6112,6.6112,6.6112,5.7549,5.7524,5.7549,5.76,5.77,5.77,5.7801,5.7976,5.8378,5.8535,5.861,5.8956,5.9182,5.9307,5.9282,5.9408,5.9483,5.9527,5.9527,5.9527,5.9527,5.9527,5.9508,5.9558,5.9533,5.9552,5.9527,5.9527,5.9533,5.9659,5.9734,6.0091,6.0161,6.0362,6.0758,6.0858,6.1009,6.1059,6.1185,6.1486,6.1793,6.1843,6.2019,6.23,6.2375,6.245,6.2576,6.2752,6.2676,6.2551,6.2526,6.2576,6.2601,6.2727,6.2802,6.2802,6.2802,6.2802,6.2802,6.2802,6.2802,6.2802,6.2802,6.2802,6.2802,6.2802,6.2802,6.2802,6.2802,6.2802,6.2802,6.2802,6.2852,6.2877,6.2902,6.2902,6.2827,6.2827,6.2802,6.2852,6.2852,6.2827,6.2852,6.2927,6.3078,6.3375,6.3576,6.3701,6.3827,6.3973,6.4103,6.4254,6.4375,6.4475,6.4777,6.5028,6.5204,6.5283,6.5584,6.576,6.5584,6.5584,6.571,6.5835,6.5986,6.6065,6.6112,6.6112,6.6112,6.6112,6.6112,6.6112,6.6112,6.6112,6.6112,5.7901,5.7901,5.7901,5.8052,5.8252,5.8284,5.8428,5.8679,5.893,5.9062,5.9112,5.9408,5.9502,5.9527,5.9527,5.9502,5.9527,5.9527,5.9527,5.9558,5.9734,5.9885,5.9985,6.0111,6.0186,5.9935,5.9885,5.9985,6.0211,6.0261,6.0462,6.0688,6.0713,6.0839,6.1235,6.1441,6.1542,6.1642,6.1843,6.2119,6.2325,6.2375,6.245,6.2752,6.2802,6.2802,6.2802,6.2802,6.2802,6.2802,6.2802,6.2802,6.2802,6.2802,6.2802,6.2802,6.2802,6.2802,6.2802,6.2802,6.2802,6.2802,6.2802,6.2802,6.2802,6.2802,6.2802,6.2802,6.2802,6.2802,6.2827,6.3149,6.3199,6.3299,6.345,6.3576,6.35,6.3153,6.2952,6.3103,6.3254,6.3425,6.3475,6.3425,6.3601,6.4023,6.4073,6.4174,6.4174,6.4325,6.4576,6.4705,6.4827,6.5003,6.5304,6.5534,6.5735,6.581,6.5886,6.5986,6.5911,6.5961,6.6061,6.6112,6.6065,6.609,6.6112,6.6112,6.6112,6.6112,6.6112,6.6112,6.6112,6.6112,6.6112,5.8133,5.8152,5.8152,5.8403,5.8786,5.8811,5.9056,5.9408,5.9527,5.9433,5.9502,5.9527,5.9527,5.9527,5.9527,5.9533,5.9633,5.9684,5.9759,6.0004,6.0286,6.0437,6.0563,6.0763,6.0914,6.0543,6.0468,6.0713,6.0964,6.119,6.111,6.1285,6.1311,6.1441,6.1567,6.1868,6.2119,6.2174,6.245,6.2651,6.2727,6.2727,6.2777,6.2802,6.2802,6.2802,6.2802,6.2802,6.2802,6.2802,6.2802,6.2802,6.2802,6.2802,6.2802,6.2802,6.2802,6.2802,6.2802,6.2802,6.2802,6.2802,6.2802,6.2802,6.2802,6.2802,6.2802,6.2852,6.2902,6.3078,6.3099,6.35,6.3797,6.3898,6.427,6.445,6.4325,6.3601,6.35,6.3676,6.3802,6.3927,6.4103,6.4199,6.4425,6.4601,6.4622,6.4672,6.4697,6.4777,6.5078,6.5258,6.5358,6.5409,6.5685,6.5735,6.5986,6.6036,6.6112,6.6112,6.6112,6.6112,6.6112,6.6112,6.6112,6.6112,6.6112,6.6112,6.6112,6.6112,6.6112,6.6112,6.6112,6.6112,6.6112,5.9232,5.9232,5.9232,5.9282,5.9357,5.9357,5.9408,5.9502,5.9527,5.9527,5.9527,5.9527,5.9527,5.9527,5.9508,5.9734,6.0111,6.0191,6.0387,6.0733,6.0964,6.1059,6.109,6.1266,6.1416,6.1542,6.1341,6.1215,6.126,6.119,6.1562,6.1793,6.1868,6.2044,6.235,6.2606,6.2601,6.2551,6.2727,6.2802,6.2802,6.2802,6.2802,6.2802,6.2802,6.2802,6.2802,6.2802,6.2802,6.2802,6.2802,6.2802,6.2802,6.2802,6.2802,6.2802,6.2802,6.2802,6.2802,6.2802,6.2802,6.2802,6.2852,6.2852,6.2852,6.2877,6.3003,6.3053,6.3329,6.3701,6.4174,6.4274,6.435,6.44,6.45,6.4601,6.4572,6.44,6.4228,6.445,6.445,6.445,6.4701,6.4856,6.4957,6.5082,6.5179,6.5329,6.5459,6.5559,6.576,6.5886,6.5961,6.5986,6.6036,6.6011,6.6086,6.6086,6.6112,6.6112,6.6112,6.6112,6.6112,6.6112,6.6112,6.6112,6.6112,6.6112,6.6112,6.6112,6.6112,6.6112,6.6112,6.6112,6.6112,5.9527,5.9527,5.9527,5.9527,5.9527,5.9527,5.9527,5.9527,5.9527,5.9527,5.9527,5.9527,5.9527,5.9583,5.9834,6.0236,6.0638,6.0763,6.0939,6.119,6.1441,6.1617,6.1667,6.1843,6.2144,6.2275,6.2144,6.1994,6.2044,6.2069,6.2144,6.2325,6.24,6.2551,6.2752,6.2777,6.2802,6.2802,6.2802,6.2802,6.2802,6.2802,6.2802,6.2802,6.2802,6.2802,6.2802,6.2802,6.2802,6.2802,6.2802,6.2802,6.2802,6.2802,6.2802,6.2827,6.2827,6.2802,6.2802,6.2802,6.2802,6.2852,6.3053,6.3229,6.3329,6.3525,6.3626,6.3726,6.3802,6.4199,6.4471,6.4752,6.4902,6.4978,6.5128,6.5279,6.5304,6.5283,6.5233,6.5157,6.5032,6.5107,6.5383,6.5484,6.5509,6.5584,6.5685,6.586,6.6086,6.6112,6.6112,6.6112,6.6065,6.609,6.6112,6.6112,6.6112,6.6112,6.6112,6.6112,6.6112,6.6112,6.6112,6.6112,6.6112,6.6112,6.6112,6.6112,6.6112,6.6112,6.6112,6.6112,6.6112,6.6112,6.6112,5.9527,5.9527,5.9527,5.9527,5.9527,5.9527,5.9527,5.9527,5.9527,5.9527,5.9508,5.9633,5.9684,5.9809,6.0261,6.0814,6.1336,6.1361,6.1441,6.1692,6.1948,6.2149,6.2275,6.2526,6.2752,6.2676,6.2701,6.2802,6.2676,6.2676,6.2752,6.2752,6.2777,6.2802,6.2802,6.2802,6.2802,6.2802,6.2802,6.2802,6.2802,6.2802,6.2802,6.2802,6.2802,6.2802,6.2802,6.2802,6.2802,6.2802,6.2802,6.2802,6.2802,6.2802,6.2877,6.2952,6.2877,6.2827,6.2827,6.3003,6.3078,6.3103,6.355,6.3776,6.3923,6.4149,6.445,6.4622,6.4651,6.4752,6.5003,6.5229,6.5409,6.5509,6.581,6.6086,6.5986,6.5936,6.5886,6.5785,6.5634,6.5634,6.581,6.586,6.581,6.581,6.5911,6.5911,6.6112,6.6112,6.6112,6.6112,6.6112,6.6112,6.6112,6.6112,6.6112,6.6112,6.6112,6.6112,6.6112,6.6112,6.6112,6.6112,6.6112,6.6112,6.6112,6.6112,6.6112,6.6112,6.6112,6.6112,6.6112,6.6112,6.6112,5.9527,5.9527,5.9527,5.9527,5.9527,5.9527,5.9527,5.9527,5.9527,5.9527,5.9608,5.9985,6.0166,6.0392,6.0839,6.1391,6.1768,6.1943,6.2094,6.24,6.2551,6.2626,6.2676,6.2752,6.2802,6.2802,6.2802,6.2802,6.2802,6.2802,6.2802,6.2802,6.2802,6.2802,6.2802,6.2802,6.2802,6.2802,6.2802,6.2802,6.2802,6.2802,6.2802,6.2802,6.2802,6.2802,6.2802,6.2802,6.2802,6.2807,6.2827,6.2827,6.2802,6.2802,6.3103,6.3274,6.3174,6.2827,6.3003,6.3329,6.3576,6.3651,6.4099,6.435,6.4526,6.4601,6.4852,6.5204,6.5204,6.5358,6.5634,6.5886,6.6011,6.5986,6.599,6.6112,6.6112,6.6112,6.6112,6.6112,6.586,6.5911,6.6036,6.6061,6.6086,6.6112,6.6112,6.6112,6.6112,6.6112,6.6112,6.6112,6.6112,6.6112,6.6112,6.6112,6.6112,6.6112,6.6112,6.6112,6.6112,6.6112,6.6112,6.6112,6.6112,6.6112,6.6112,6.6112,6.6112,6.6112,6.6112,6.6112,6.6112,6.6112,6.6112,5.9527,5.9527,5.9527,5.9527,5.9527,5.9527,5.9527,5.9527,5.9527,5.9684,5.996,6.0186,6.0618,6.1215,6.1567,6.1923,6.235,6.2425,6.2551,6.2752,6.2802,6.2802,6.2802,6.2802,6.2802,6.2802,6.2802,6.2802,6.2802,6.2802,6.2802,6.2802,6.2802,6.2802,6.2802,6.2802,6.2802,6.2802,6.2802,6.2802,6.2802,6.2802,6.2802,6.2802,6.2827,6.2827,6.2852,6.2802,6.2802,6.2877,6.3053,6.3324,6.34,6.3576,6.3902,6.4073,6.3948,6.3822,6.3847,6.4028,6.4124,6.4274,6.4651,6.5057,6.5283,6.5383,6.543,6.571,6.576,6.5886,6.6015,6.609,6.6112,6.6112,6.6112,6.6112,6.6112,6.6112,6.6112,6.6112,6.6112,6.6112,6.6112,6.6112,6.6112,6.6112,6.6112,6.6112,6.6112,6.6112,6.6112,6.6112,6.6112,6.6112,6.6112,6.6112,6.6112,6.6112,6.6112,6.6112,6.6112,6.6112,6.6112,6.6112,6.6112,6.6112,6.6112,6.6112,6.6112,6.6112,6.6112,6.6112,6.6112,6.6112,6.6112,5.9527,5.9527,5.9527,5.9527,5.9527,5.9527,5.9583,5.9709,5.9734,6.0035,6.0462,6.0719,6.1341,6.2019,6.2199,6.24,6.2777,6.2802,6.2802,6.2802,6.2802,6.2802,6.2802,6.2802,6.2802,6.2802,6.2802,6.2802,6.2802,6.2802,6.2802,6.2802,6.2802,6.2802,6.2802,6.2802,6.2802,6.2802,6.2802,6.2802,6.2802,6.2802,6.2802,6.2852,6.2927,6.3028,6.3053,6.3249,6.3299,6.34,6.3676,6.3898,6.3927,6.4149,6.445,6.4626,6.4626,6.4726,6.4752,6.4827,6.4726,6.4852,6.5179,6.5634,6.5911,6.6112,6.6112,6.6036,6.6061,6.6061,6.6112,6.6112,6.6112,6.6112,6.6112,6.6112,6.6112,6.6112,6.6112,6.6112,6.6112,6.6112,6.6112,6.6112,6.6112,6.6112,6.6112,6.6112,6.6112,6.6112,6.6112,6.6112,6.6112,6.6112,6.6112,6.6112,6.6112,6.6112,6.6112,6.6112,6.6112,6.6112,6.6112,6.6112,6.6112,6.6112,6.6112,6.6112,6.6112,6.6112,6.6112,6.6112,6.6112,6.6112,6.6112,5.9527,5.9527,5.9508,5.9527,5.9527,5.9527,5.9809,6.0166,6.0217,6.0588,6.114,6.1642,6.2124,6.2576,6.2651,6.2701,6.2802,6.2802,6.2802,6.2802,6.2802,6.2802,6.2802,6.2802,6.2802,6.2802,6.2802,6.2802,6.2802,6.2802,6.2802,6.2802,6.2802,6.2802,6.2802,6.2802,6.2802,6.2802,6.2802,6.2852,6.2877,6.2902,6.2902,6.3028,6.3329,6.3626,6.3672,6.3998,6.4174,6.4149,6.435,6.445,6.4475,6.4651,6.4927,6.5179,6.5233,6.5405,6.5559,6.5434,6.5279,6.5409,6.566,6.5986,6.6086,6.6112,6.6112,6.6112,6.6112,6.6112,6.6112,6.6112,6.6112,6.6112,6.6112,6.6112,6.6112,6.6112,6.6112,6.6112,6.6112,6.6112,6.6112,6.6112,6.6112,6.6112,6.6112,6.6112,6.6112,6.6112,6.6112,6.6112,6.6112,6.6112,6.6112,6.6112,6.6112,6.6112,6.6112,6.6112,6.6112,6.6112,6.6112,6.6112,6.6112,6.6112,6.6112,6.6112,6.6112,6.6112,6.6112,6.6112,6.6112,6.6112,6.6112,5.9527,5.9533,5.9859,5.979,5.9533,5.984,6.0111,6.0342,6.0688,6.1165,6.1718,6.225,6.2601,6.2752,6.2802,6.2802,6.2802,6.2802,6.2802,6.2802,6.2802,6.2802,6.2802,6.2802,6.2802,6.2802,6.2802,6.2802,6.2802,6.2802,6.2802,6.2802,6.2852,6.2802,6.2802,6.2852,6.2852,6.2852,6.2877,6.2952,6.3304,6.3375,6.35,6.3898,6.3952,6.4174,6.4224,6.4396,6.445,6.4601,6.4827,6.4953,6.5053,6.5254,6.5484,6.571,6.5735,6.586,6.6011,6.5889,6.581,6.5835,6.5986,6.6112,6.6112,6.6112,6.6112,6.6112,6.6112,6.6112,6.6112,6.6112,6.6112,6.6112,6.6112,6.6112,6.6112,6.6112,6.6112,6.6112,6.6112,6.6112,6.6112,6.6112,6.6112,6.6112,6.6112,6.6112,6.6112,6.6112,6.6112,6.6112,6.6112,6.6112,6.6112,6.6112,6.6112,6.6112,6.6112,6.6112,6.6112,6.6112,6.6112,6.6112,6.6112,6.6112,6.6112,6.6112,6.6112,6.6112,6.6112,6.6112,6.6112,6.6112,6.6112,5.9583,5.9784,6.0141,6.0085,5.9834,6.0317,6.0663,6.0869,6.124,6.1743,6.227,6.2651,6.2802,6.2802,6.2802,6.2802,6.2802,6.2802,6.2802,6.2802,6.2802,6.2802,6.2802,6.2802,6.2802,6.2802,6.2802,6.2802,6.2802,6.2802,6.2952,6.3053,6.3053,6.3028,6.2852,6.3003,6.3103,6.3254,6.3329,6.3475,6.3902,6.3973,6.4023,6.4425,6.4601,6.4726,6.4827,6.4978,6.5078,6.5179,6.5333,6.5509,6.566,6.5814,6.6061,6.6112,6.6112,6.6112,6.6112,6.6112,6.6112,6.6061,6.6086,6.6112,6.6112,6.6112,6.6112,6.6112,6.6112,6.6112,6.6112,6.6112,6.6112,6.6112,6.6112,6.6112,6.6112,6.6112,6.6112,6.6112,6.6112,6.6112,6.6112,6.6112,6.6112,6.6112,6.6112,6.6112,6.6112,6.6112,6.6112,6.6112,6.6112,6.6112,6.6112,6.6112,6.6112,6.6112,6.6112,6.6112,6.6112,6.6112,6.6112,6.6112,6.6112,6.6112,6.6112,6.6112,6.6112,6.6112,6.6112,6.6112,6.6112,6.6112,6.6112,5.9809,6.0267,6.0317,6.0342,6.0437,6.0934,6.1461,6.1768,6.1943,6.227,6.2676,6.2802,6.2802,6.2802,6.2802,6.2802,6.2802,6.2802,6.2802,6.2802,6.2802,6.2802,6.2802,6.2802,6.2802,6.2802,6.2902,6.2952,6.2902,6.3099,6.3279,6.355,6.3626,6.3454,6.2952,6.34,6.3902,6.4325,6.4325,6.435,6.445,6.45,6.4551,6.4827,6.5103,6.5304,6.5333,6.5584,6.571,6.5785,6.5835,6.5961,6.6011,6.6036,6.6112,6.6112,6.6112,6.6112,6.6112,6.6112,6.6112,6.6112,6.6112,6.6112,6.6112,6.6112,6.6112,6.6112,6.6112,6.6112,6.6112,6.6112,6.6112,6.6112,6.6112,6.6112,6.6112,6.6112,6.6112,6.6112,6.6112,6.6112,6.6112,6.6112,6.6112,6.6112,6.6112,6.6112,6.6112,6.6112,6.6112,6.6112,6.6112,6.6112,6.6112,6.6112,6.6112,6.6112,6.6112,6.6112,6.6112,6.6112,6.6112,6.6112,6.6112,6.6112,6.6112,6.6112,6.6112,6.6112,6.6112,6.6112,6.6112,6.6112,6.6112,6.0136,6.0367,6.1095,6.1421,6.1466,6.1642,6.1843,6.2044,6.235,6.2626,6.2777,6.2802,6.2802,6.2802,6.2802,6.2802,6.2802,6.2802,6.2802,6.2802,6.2802,6.2802,6.2827,6.2852,6.2852,6.2927,6.3124,6.34,6.3425,6.3601,6.3923,6.4199,6.4274,6.4124,6.4002,6.4174,6.435,6.445,6.45,6.4626,6.4957,6.5053,6.5179,6.5484,6.571,6.5785,6.576,6.6036,6.6086,6.6112,6.6112,6.6112,6.6112,6.6112,6.6112,6.6112,6.6112,6.6112,6.6112,6.6112,6.6112,6.6112,6.6112,6.6112,6.6112,6.6112,6.6112,6.6112,6.6112,6.6112,6.6112,6.6112,6.6112,6.6112,6.6112,6.6112,6.6112,6.6112,6.6112,6.6112,6.6112,6.6112,6.6112,6.6112,6.6112,6.6112,6.6112,6.6112,6.6112,6.6112,6.6112,6.6112,6.6112,6.6112,6.6112,6.6112,6.6112,6.6112,6.6112,6.6112,6.6112,6.6112,6.6112,6.6112,6.6112,6.6112,6.6112,6.6112,6.6112,6.6112,6.6112,6.6112,6.6112,6.6112,6.6112,6.0518,6.0944,6.1692,6.2119,6.225,6.2295,6.2275,6.2325,6.2651,6.2802,6.2802,6.2802,6.2802,6.2802,6.2802,6.2802,6.2802,6.2802,6.2802,6.2802,6.2802,6.2802,6.2852,6.3003,6.3178,6.3254,6.3626,6.3973,6.3973,6.43,6.4551,6.4752,6.4953,6.5078,6.5028,6.4953,6.4927,6.5078,6.5229,6.5283,6.5509,6.5609,6.5735,6.5961,6.6086,6.6086,6.6112,6.6112,6.6112,6.6112,6.6112,6.6112,6.6112,6.6112,6.6112,6.6112,6.6112,6.6112,6.6112,6.6112,6.6112,6.6112,6.6112,6.6112,6.6112,6.6112,6.6112,6.6112,6.6112,6.6112,6.6112,6.6112,6.6112,6.6112,6.6112,6.6112,6.6112,6.6112,6.6112,6.6112,6.6112,6.6112,6.6112,6.6112,6.6112,6.6112,6.6112,6.6112,6.6112,6.6112,6.6112,6.6112,6.6112,6.6112,6.6112,6.6112,6.6112,6.6112,6.6112,6.6112,6.6112,6.6112,6.6112,6.6112,6.6112,6.6112,6.6112,6.6112,6.6112,6.6112,6.6112,6.6112,6.6112,6.6112,6.6112,6.0995,6.1943,6.2019,6.2325,6.2727,6.2752,6.2777,6.2777,6.2781,6.2802,6.2802,6.2802,6.2802,6.2802,6.2802,6.2802,6.2802,6.2802,6.2802,6.2852,6.2927,6.2902,6.3128,6.345,6.3651,6.3877,6.4199,6.4526,6.4526,6.4777,6.5028,6.5308,6.566,6.576,6.571,6.558,6.5534,6.571,6.5785,6.5835,6.5936,6.6011,6.6011,6.6112,6.6112,6.6112,6.6112,6.6112,6.6112,6.6112,6.6112,6.6112,6.6112,6.6112,6.6112,6.6112,6.6112,6.6112,6.6112,6.6112,6.6112,6.6112,6.6112,6.6112,6.6112,6.6112,6.6112,6.6112,6.6112,6.6112,6.6112,6.6112,6.6112,6.6112,6.6112,6.6112,6.6112,6.6112,6.6112,6.6112,6.6112,6.6112,6.6112,6.6112,6.6112,6.6112,6.6112,6.6112,6.6112,6.6112,6.6112,6.6112,6.6112,6.6112,6.6112,6.6112,6.6112,6.6112,6.6112,6.6112,6.6112,6.6112,6.6112,6.6112,6.6112,6.6112,6.6112,6.6112,6.6112,6.6112,6.6112,6.6112,6.6112,6.6112,6.6112,6.1718,6.2044,6.24,6.2656,6.2802,6.2802,6.2802,6.2802,6.2802,6.2802,6.2802,6.2802,6.2802,6.2802,6.2802,6.2802,6.2802,6.2802,6.2802,6.2927,6.3254,6.3375,6.3626,6.3973,6.422,6.445,6.4752,6.5078,6.5179,6.5354,6.5584,6.5911,6.6011,6.6086,6.6061,6.5961,6.6011,6.604,6.6112,6.6112,6.6112,6.6112,6.6112,6.6112,6.6112,6.6112,6.6112,6.6112,6.6112,6.6112,6.6112,6.6112,6.6112,6.6112,6.6112,6.6112,6.6112,6.6112,6.6112,6.6112,6.6112,6.6112,6.6112,6.6112,6.6112,6.6112,6.6112,6.6112,6.6112,6.6112,6.6112,6.6112,6.6112,6.6112,6.6112,6.6112,6.6112,6.6112,6.6112,6.6112,6.6112,6.6112,6.6112,6.6112,6.6112,6.6112,6.6112,6.6112,6.6112,6.6112,6.6112,6.6112,6.6112,6.6112,6.6112,6.6112,6.6112,6.6112,6.6112,6.6112,6.6112,6.6112,6.6112,6.6112,6.6112,6.6112,6.6112,6.6112,6.6112,6.6112,6.6112,6.6112,6.6112,6.6112,6.6112,6.2099,6.235,6.2651,6.2802,6.2802,6.2802,6.2802,6.2802,6.2802,6.2802,6.2802,6.2802,6.2802,6.2802,6.2802,6.2802,6.2827,6.3103,6.3203,6.3375,6.3751,6.3902,6.4199,6.4526,6.4777,6.5003,6.5258,6.5609,6.5685,6.586,6.6086,6.6086,6.6112,6.6112,6.6086,6.6061,6.6086,6.609,6.6112,6.6112,6.6112,6.6112,6.6112,6.6112,6.6112,6.6112,6.6112,6.6112,6.6112,6.6112,6.6112,6.6112,6.6112,6.6112,6.6112,6.6112,6.6112,6.6112,6.6112,6.6112,6.6112,6.6112,6.6112,6.6112,6.6112,6.6112,6.6112,6.6112,6.6112,6.6112,6.6112,6.6112,6.6112,6.6112,6.6112,6.6112,6.6112,6.6112,6.6112,6.6112,6.6112,6.6112,6.6112,6.6112,6.6112,6.6112,6.6112,6.6112,6.6112,6.6112,6.6112,6.6112,6.6112,6.6112,6.6112,6.6112,6.6112,6.6112,6.6112,6.6112,6.6112,6.6112,6.6112,6.6112,6.6112,6.6112,6.6112,6.6112,6.6112,6.6112,6.6112,6.6112,6.6112,6.6112,6.6112,6.235,6.2756,6.2802,6.2802,6.2802,6.2802,6.2802,6.2802,6.2802,6.2802,6.2802,6.2802,6.2802,6.2802,6.2802,6.2902,6.3078,6.34,6.3651,6.3776,6.43,6.4551,6.4701,6.5078,6.5308,6.5534,6.5714,6.5936,6.6036,6.6112,6.6112,6.6112,6.6112,6.6112,6.6112,6.6112,6.6112,6.6112,6.6112,6.6112,6.6112,6.6112,6.6112,6.6112,6.6112,6.6112,6.6112,6.6112,6.6112,6.6112,6.6112,6.6112,6.6112,6.6112,6.6112,6.6112,6.6112,6.6112,6.6112,6.6112,6.6112,6.6112,6.6112,6.6112,6.6112,6.6112,6.6112,6.6112,6.6112,6.6112,6.6112,6.6112,6.6112,6.6112,6.6112,6.6112,6.6112,6.6112,6.6112,6.6112,6.6112,6.6112,6.6112,6.6112,6.6112,6.6112,6.6112,6.6112,6.6112,6.6112,6.6112,6.6112,6.6112,6.6112,6.6112,6.6112,6.6112,6.6112,6.6112,6.6112,6.6112,6.6112,6.6112,6.6112,6.6112,6.6112,6.6112,6.6112,6.6112,6.6112,6.6112,6.6112,6.6112,6.6112,6.6112,6.2676,6.2802,6.2802,6.2802,6.2802,6.2802,6.2802,6.2802,6.2802,6.2802,6.2802,6.2802,6.2802,6.2802,6.2877,6.3028,6.345,6.3751,6.3948,6.4354,6.4852,6.5103,6.5204,6.5559,6.5835,6.5961,6.6061,6.6112,6.6112,6.6112,6.6112,6.6112,6.6112,6.6112,6.6112,6.6112,6.6112,6.6112,6.6112,6.6112,6.6112,6.6112,6.6112,6.6112,6.6112,6.6112,6.6112,6.6112,6.6112,6.6112,6.6112,6.6112,6.6112,6.6112,6.6112,6.6112,6.6112,6.6112,6.6112,6.6112,6.6112,6.6112,6.6112,6.6112,6.6112,6.6112,6.6112,6.6112,6.6112,6.6112,6.6112,6.6112,6.6112,6.6112,6.6112,6.6112,6.6112,6.6112,6.6112,6.6112,6.6112,6.6112,6.6112,6.6112,6.6112,6.6112,6.6112,6.6112,6.6112,6.6112,6.6112,6.6112,6.6112,6.6112,6.6112,6.6112,6.6112,6.6112,6.6112,6.6112,6.6112,6.6112,6.6112,6.6112,6.6112,6.6112,6.6112,6.6112,6.6112,6.6112,6.6112,6.6112,6.6112,6.6112,6.6112,6.2802,6.2802,6.2802,6.2802,6.2802,6.2802,6.2802,6.2802,6.2802,6.2802,6.2802,6.2802,6.2802,6.2902,6.3053,6.3324,6.3802,6.4228,6.4555,6.4957,6.5308,6.5584,6.5835,6.5939,6.599,6.6112,6.6112,6.6112,6.6112,6.6112,6.6112,6.6112,6.6112,6.6112,6.6112,6.6112,6.6112,6.6112,6.6112,6.6112,6.6112,6.6112,6.6112,6.6112,6.6112,6.6112,6.6112,6.6112,6.6112,6.6112,6.6112,6.6112,6.6112,6.6112,6.6112,6.6112,6.6112,6.6112,6.6112,6.6112,6.6112,6.6112,6.6112,6.6112,6.6112,6.6112,6.6112,6.6112,6.6112,6.6112,6.6112,6.6112,6.6112,6.6112,6.6112,6.6112,6.6112,6.6112,6.6112,6.6112,6.6112,6.6112,6.6112,6.6112,6.6112,6.6112,6.6112,6.6112,6.6112,6.6112,6.6112,6.6112,6.6112,6.6112,6.6112,6.6112,6.6112,6.6112,6.6112,6.6112,6.6112,6.6112,6.6112,6.6112,6.6112,6.6112,6.6112,6.6112,6.6112,6.6112,6.6112,6.6112,6.6112,6.6112,6.6112,6.2802,6.2802,6.2802,6.2802,6.2802,6.2802,6.2802,6.2802,6.2802,6.2802,6.2852,6.2927,6.2902,6.3103,6.3425,6.3676,6.4078,6.4705,6.5132,6.5484,6.5835,6.5936,6.5986,6.6086,6.6112,6.6112,6.6112,6.6112,6.6112,6.6112,6.6112,6.6112,6.6112,6.6112,6.6112,6.6112,6.6112,6.6112,6.6112,6.6112,6.6112,6.6112,6.6112,6.6112,6.6112,6.6112,6.6112,6.6112,6.6112,6.6112,6.6112,6.6112,6.6112,6.6112,6.6112,6.6112,6.6112,6.6112,6.6112,6.6112,6.6112,6.6112,6.6112,6.6112,6.6112,6.6112,6.6112,6.6112,6.6112,6.6112,6.6112,6.6112,6.6112,6.6112,6.6112,6.6112,6.6112,6.6112,6.6112,6.6112,6.6112,6.6112,6.6112,6.6112,6.6112,6.6112,6.6112,6.6112,6.6112,6.6112,6.6112,6.6112,6.6112,6.6112,6.6112,6.6112,6.6112,6.6112,6.6112,6.6112,6.6112,6.6112,6.6112,6.6112,6.6112,6.6112,6.6112,6.6112,6.6112,6.6112,6.6112,6.6112,6.6112,6.6112,6.6112,6.2802,6.2802,6.2802,6.2802,6.2802,6.2802,6.2802,6.2802,6.2802,6.2802,6.2952,6.335,6.3525,6.3525,6.3601,6.4002,6.4781,6.5283,6.5609,6.5939,6.6036,6.6086,6.6112,6.6112,6.6112,6.6112,6.6112,6.6112,6.6112,6.6112,6.6112,6.6112,6.6112,6.6112,6.6112,6.6112,6.6112,6.6112,6.6112,6.6112,6.6112,6.6112,6.6112,6.6112,6.6112,6.6112,6.6112,6.6112,6.6112,6.6112,6.6112,6.6112,6.6112,6.6112,6.6112,6.6112,6.6112,6.6112,6.6112,6.6112,6.6112,6.6112,6.6112,6.6112,6.6112,6.6112,6.6112,6.6112,6.6112,6.6112,6.6112,6.6112,6.6112,6.6112,6.6112,6.6112,6.6112,6.6112,6.6112,6.6112,6.6112,6.6112,6.6112,6.6112,6.6112,6.6112,6.6112,6.6112,6.6112,6.6112,6.6112,6.6112,6.6112,6.6112,6.6112,6.6112,6.6112,6.6112,6.6112,6.6112,6.6112,6.6112,6.6112,6.6112,6.6112,6.6112,6.6112,6.6112,6.6112,6.6112,6.6112,6.6112,6.6112,6.6112,6.6112]},{"header":{"parameterUnit":"m.s-1","parameterCategory":1,"la1":31.0,"la2":29.5877,"lo1":-88.7671,"lo2":-86.6584,"dx":0.0162,"dy":0.0185,"nx":115,"ny":88,"refTime":"2022-11-04T06:00:00:Z","depth":0,"parameterNumber":3,"parameterNumberName":"V-component_of_WINDS"},"data":[0.0,0.0,0.0,0.0,0.0,0.0,0.0,0.0,0.0,0.0,0.0,0.0,0.0,0.0,0.0,0.0,0.0,0.0,0.0,0.0,0.0,0.0,0.0,0.0,0.0,0.0,0.0,0.0,0.0,0.0,0.0,0.0,0.0,0.0,0.0,0.0,0.0,0.0,0.0,0.0,0.0,0.0,0.0,0.0,0.0,0.0,0.0,0.0,0.0,0.0,0.0,0.0,0.0,0.0,0.0,0.0,0.0,0.0,0.0,0.0,0.0,0.0,0.0,0.0,0.0,0.0,0.0,0.0,0.0,0.0,0.0,0.0,0.0,0.0,0.0,0.0,0.0,0.0,0.0,0.0,0.0,0.0,0.0,0.0,0.0,0.0,0.0,0.0,0.0,0.0,0.0,0.0,0.0,0.0,0.0,0.0,0.0,0.0,0.0,0.0,0.0,0.0,0.0,0.0,0.0,0.0,0.0,0.0,0.0,0.0,0.0,0.0,0.0,0.0,0.0,0.0,0.0,0.0,0.0,0.0,0.0,0.0,0.0,0.0,0.0,0.0,0.0,0.0,0.0,0.0,0.0,0.0,0.0,0.0,0.0,0.0,0.0,0.0,0.0,0.0,0.0,0.0,0.0,0.0,0.0,0.0,0.0,0.0,0.0,0.0,0.0,0.0,0.0,0.0,0.0,0.0,0.0,0.0,0.0,0.0,0.0,0.0,0.0,0.0,0.0,0.0,0.0,0.0,0.0,0.0,0.0,0.0,0.0,0.0,0.0,0.0,0.0,0.0,0.0,0.0,0.0,0.0,0.0,0.0,0.0,0.0,0.0,0.0,0.0,0.0,0.0,0.0,0.0,0.0,0.0,0.0,0.0,0.0,0.0,0.0,0.0,0.0,0.0,0.0,0.0,0.0,0.0,0.0,0.0,0.0,0.0,0.0,0.0,0.0,0.0,0.0,0.0,0.0,0.0,0.0,0.0,0.0,0.0,0.0,0.0,0.0,0.0,0.0,0.0,0.0,0.0,0.0,0.0,0.0,0.0,0.0,0.0,0.0,0.0,0.0,0.0,0.0,0.0,0.0,0.0,0.0,0.0,0.0,0.0,0.0,0.0,0.0,0.0,0.0,0.0,0.0,0.0,0.0,0.0,0.0,0.0,0.0,0.0,0.0,0.0,0.0,0.0,0.0,0.0,0.0,0.0,0.0,0.0,0.0,0.0,0.0,0.0,0.0,0.0,0.0,0.0,0.0,0.0,0.0,0.0,0.0,0.0,0.0,0.0,0.0,0.0,0.0,0.0,0.0,0.0,0.0,0.0,0.0,0.0,0.0,0.0,0.0,0.0,0.0,0.0,0.0,0.0,0.0,0.0,0.0,0.0,0.0,0.0,0.0,0.0,0.0,0.0,0.0,0.0,0.0,0.0,0.0,0.0,0.0,0.0,0.0,0.0,0.0,0.0,0.0,0.0,0.0,0.0,0.0,0.0,0.0,0.0,0.0,0.0,0.0,0.0,0.0,0.0,0.0,0.0,0.0,0.0,0.0,0.0,0.0,0.0,0.0,0.0,0.0,0.0,0.0,0.0,0.0,0.0,0.0,0.0,0.0,0.0,0.0,0.0,0.0,0.0,0.0,0.0,0.0,0.0,0.0,0.0,0.0,0.0,0.0,0.0,0.0,0.0,0.0,0.0,0.0,0.0,0.0,0.0,0.0,0.0,0.0,0.0,0.0,0.0,0.0,0.0,0.0,0.0,0.0,0.0,0.0,0.0,0.0,0.0,0.0,0.0,0.0,0.0,0.0,0.0,0.0,0.0,0.0,0.0,0.0,0.0,0.0,0.0,0.0,0.0,0.0,0.0,0.0,0.0,0.0,0.0,0.0,0.0,0.0,0.0,0.0,0.0,0.0,0.0,0.0,0.0,0.0,0.0,0.0,0.0,0.0,0.0,0.0,0.0,0.0,0.0,0.0,0.0,0.0,0.0,0.0,0.0,0.0,0.0,0.0,0.0,0.0,0.0,0.0,0.0,0.0,0.0,0.0,0.0,0.0,0.0,0.0,0.0,0.0,0.0,0.0,0.0,0.0,0.0,0.0,0.0,0.0,0.0,0.0,0.0,0.0,0.0,0.0,0.0,0.0,0.0,0.0,0.0,0.0,0.0,0.0,0.0,0.0,0.0,0.0,0.0,0.0,0.0,0.0,0.0,0.0,0.0,0.0,0.0,0.0,0.0,0.0,0.0,0.0,0.0,0.0,0.0,0.0,0.0,0.0,0.0,0.0,0.0,0.0,0.0,0.0,0.0,0.0,0.0,0.0,0.0,0.0,0.0,0.0,0.0,0.0,0.0,0.0,0.0,0.0,0.0,0.0,0.0,0.0,0.0,0.0,0.0,0.0,0.0,0.0,0.0,0.0,0.0,0.0,0.0,0.0,0.0,0.0,0.0,0.0,0.0,0.0,0.0,0.0,0.0,0.0,0.0,0.0,0.0,0.0,0.0,0.0,0.0,0.0,0.0,0.0,0.0,0.0,0.0,0.0,0.0,0.0,0.0,0.0,0.0,0.0,0.0,0.0,0.0,0.0,0.0,0.0,0.0,0.0,0.0,0.0,0.0,0.0,0.0,0.0,0.0,0.0,0.0,0.0,0.0,0.0,0.0,0.0,0.0,0.0,0.0,0.0,0.0,0.0,0.0,0.0,0.0,0.0,0.0,0.0,0.0,0.0,0.0,0.0,0.0,0.0,0.0,0.0,0.0,0.0,0.0,0.0,0.0,0.0,0.0,0.0,0.0,0.0,0.0,0.0,0.0,0.0,0.0,0.0,0.0,0.0,0.0,0.0,0.0,0.0,0.0,0.0,0.0,0.0,0.0,0.0,0.0,0.0,0.0,0.0,0.0,0.0,0.0,0.0,0.0,0.0,0.0,0.0,0.0,0.0,0.0,0.0,0.0,0.0,0.0,0.0,0.0,0.0,0.0,0.0,0.0,0.0,0.0,0.0,0.0,0.0,0.0,0.0,0.0,0.0,0.0,0.0,0.0,0.0,0.0,0.0,0.0,0.0,0.0,0.0,0.0,0.0,0.0,0.0,0.0,0.0,0.0,0.0,0.0,0.0,0.0,0.0,0.0,0.0,0.0,0.0,0.0,0.0,0.0,0.0,0.0,0.0,0.0,0.0,0.0,0.0,0.0,0.0,0.0,0.0,0.0,0.0,0.0,0.0,0.0,0.0,0.0,0.0,0.0,0.0,0.0,0.0,0.0,0.0,0.0,0.0,0.0,0.0,0.0,0.0,0.0,0.0,0.0,0.0,0.0,0.0,0.0,0.0,0.0,0.0,0.0,0.0,0.0,0.0,0.0,0.0,0.0,0.0,0.0,0.0,0.0,0.0,0.0,0.0,0.0,0.0,0.0,0.0,0.0,0.0,0.0,0.0,0.0,0.0,0.0,0.0,0.0,0.0,0.0,0.0,0.0,0.0,0.0,0.0,0.0,0.0,0.0,0.0,0.0,0.0,0.0,0.0,0.0,0.0,0.0,0.0,0.0,0.0,0.0,0.0,0.0,0.0,0.0,0.0,0.0,0.0,0.0,0.0,0.0,0.0,0.0,0.0,0.0,0.0,0.0,0.0,0.0,0.0,0.0,0.0,0.0,0.0,0.0,0.0,0.0,0.0,0.0,0.0,0.0,0.0,0.0,0.0,0.0,0.0,0.0,0.0,0.0,0.0,0.0,0.0,0.0,0.0,0.0,0.0,0.0,0.0,0.0,0.0,0.0,0.0,0.0,0.0,0.0,0.0,0.0,0.0,0.0,0.0,0.0,0.0,0.0,0.0,0.0,0.0,0.0,0.0,0.0,0.0,0.0,0.0,0.0,0.0,0.0,0.0,0.0,0.0,0.0,0.0,0.0,0.0,0.0,0.0,0.0,0.0,0.0,0.0,0.0,0.0,0.0,0.0,0.0,0.0,0.0,0.0,0.0,0.0,0.0,0.0,0.0,0.0,0.0,0.0,0.0,0.0,0.0,0.0,0.0,0.0,0.0,0.0,0.0,0.0,0.0,0.0,0.0,0.0,0.0,0.0,0.0,0.0,0.0,0.0,0.0,0.0,0.0,0.0,0.0,0.0,0.0,0.0,0.0,0.0,0.0,0.0,0.0,0.0,0.0,0.0,0.0,0.0,0.0,0.0,0.0,0.0,0.0,0.0,0.0,0.0,0.0,0.0,0.0,0.0,0.0,0.0,0.0,0.0,0.0,0.0,0.0,0.0,1.9817,0.0,0.0,0.0,2.0201,0.0,0.0,0.0,0.0,0.0,0.0,0.0,0.0,0.0,0.0,0.0,0.0,0.0,0.0,0.0,0.0,0.0,0.0,0.0,0.0,0.0,0.0,0.0,0.0,0.0,0.0,0.0,0.0,0.0,0.0,0.0,0.0,0.0,0.0,0.0,0.0,0.0,0.0,0.0,0.0,0.0,0.0,0.0,0.0,0.0,0.0,0.0,0.0,0.0,0.0,0.0,0.0,0.0,0.0,0.0,0.0,0.0,0.0,0.0,0.0,0.0,0.0,0.0,0.0,0.0,0.0,0.0,0.0,0.0,0.0,0.0,0.0,0.0,0.0,0.0,0.0,0.0,0.0,0.0,0.0,0.0,0.0,0.0,0.0,0.0,0.0,0.0,0.0,0.0,0.0,0.0,0.0,0.0,0.0,0.0,0.0,0.0,0.0,0.0,0.0,0.0,0.0,0.0,0.0,0.0,0.0,0.0,0.0,0.0,0.0,2.0722,2.0722,2.099,2.1129,2.1136,0.0,0.0,0.0,0.0,0.0,0.0,0.0,0.0,0.0,0.0,0.0,0.0,0.0,0.0,0.0,0.0,0.0,0.0,0.0,0.0,0.0,0.0,0.0,0.0,0.0,0.0,0.0,0.0,0.0,0.0,0.0,0.0,0.0,0.0,0.0,0.0,0.0,0.0,0.0,0.0,0.0,0.0,0.0,0.0,0.0,0.0,0.0,0.0,0.0,0.0,0.0,0.0,0.0,0.0,0.0,0.0,0.0,0.0,0.0,0.0,0.0,0.0,0.0,0.0,0.0,0.0,0.0,0.0,0.0,0.0,0.0,0.0,0.0,0.0,0.0,0.0,0.0,0.0,0.0,0.0,0.0,0.0,0.0,0.0,0.0,0.0,0.0,0.0,0.0,0.0,0.0,0.0,0.0,0.0,0.0,0.0,0.0,0.0,0.0,0.0,0.0,0.0,0.0,0.0,0.0,0.0,0.0,0.0,0.0,0.0,0.0,0.0,2.176,2.192,2.1995,0.0,0.0,0.0,0.0,0.0,0.0,0.0,0.0,0.0,0.0,0.0,0.0,0.0,0.0,0.0,0.0,0.0,0.0,0.0,0.0,0.0,0.0,0.0,0.0,0.0,0.0,0.0,0.0,0.0,0.0,0.0,0.0,0.0,0.0,0.0,0.0,0.0,0.0,0.0,0.0,0.0,0.0,0.0,0.0,0.0,0.0,0.0,0.0,0.0,0.0,0.0,0.0,0.0,0.0,0.0,0.0,0.0,0.0,0.0,0.0,0.0,0.0,0.0,0.0,0.0,0.0,0.0,0.0,0.0,0.0,0.0,0.0,0.0,0.0,0.0,0.0,0.0,0.0,0.0,0.0,0.0,0.0,0.0,0.0,0.0,0.0,0.0,0.0,0.0,0.0,0.0,0.0,0.0,0.0,0.0,0.0,0.0,0.0,0.0,0.0,0.0,0.0,0.0,0.0,0.0,0.0,0.0,0.0,0.0,0.0,2.1493,2.1507,2.1767,0.0,2.2328,0.0,0.0,0.0,0.0,0.0,0.0,0.0,0.0,0.0,0.0,0.0,0.0,0.0,0.0,0.0,0.0,0.0,0.0,0.0,0.0,0.0,0.0,0.0,0.0,0.0,0.0,0.0,0.0,0.0,0.0,0.0,0.0,0.0,0.0,0.0,0.0,0.0,0.0,0.0,0.0,0.0,0.0,0.0,0.0,0.0,0.0,0.0,0.0,0.0,0.0,0.0,0.0,0.0,0.0,0.0,0.0,0.0,0.0,0.0,0.0,0.0,0.0,0.0,0.0,0.0,0.0,0.0,0.0,0.0,0.0,0.0,0.0,0.0,0.0,0.0,0.0,0.0,0.0,0.0,0.0,0.0,0.0,0.0,0.0,0.0,0.0,0.0,0.0,0.0,0.0,0.0,0.0,0.0,0.0,0.0,0.0,0.0,0.0,0.0,0.0,0.0,0.0,0.0,0.0,0.0,0.0,0.0,0.0,0.0,0.0,2.2509,2.2618,2.2915,2.318,0.0,0.0,0.0,0.0,0.0,0.0,0.0,0.0,0.0,0.0,0.0,0.0,0.0,0.0,0.0,0.0,0.0,0.0,0.0,0.0,0.0,0.0,0.0,0.0,0.0,0.0,0.0,0.0,0.0,0.0,0.0,0.0,0.0,0.0,0.0,0.0,0.0,0.0,0.0,0.0,0.0,0.0,0.0,0.0,0.0,0.0,0.0,0.0,0.0,0.0,0.0,0.0,0.0,0.0,0.0,0.0,0.0,0.0,0.0,0.0,0.0,0.0,0.0,0.0,0.0,0.0,0.0,0.0,0.0,0.0,0.0,0.0,0.0,0.0,0.0,0.0,0.0,0.0,0.0,0.0,0.0,0.0,0.0,0.0,0.0,0.0,0.0,0.0,0.0,0.0,0.0,0.0,0.0,0.0,0.0,0.0,0.0,0.0,0.0,0.0,0.0,0.0,0.0,0.0,0.0,0.0,0.0,0.0,0.0,0.0,2.3053,2.3445,2.3664,2.3964,2.4127,2.4111,0.0,0.0,0.0,0.0,0.0,0.0,0.0,0.0,0.0,0.0,0.0,0.0,0.0,0.0,0.0,0.0,0.0,0.0,0.0,0.0,0.0,0.0,0.0,0.0,0.0,0.0,0.0,0.0,0.0,0.0,0.0,0.0,0.0,0.0,0.0,0.0,0.0,0.0,0.0,0.0,0.0,0.0,0.0,0.0,0.0,0.0,0.0,0.0,0.0,0.0,0.0,0.0,0.0,0.0,0.0,0.0,0.0,0.0,0.0,0.0,0.0,0.0,0.0,0.0,0.0,0.0,0.0,0.0,0.0,0.0,0.0,0.0,0.0,0.0,0.0,0.0,0.0,0.0,0.0,0.0,0.0,0.0,0.0,0.0,0.0,0.0,0.0,0.0,0.0,0.0,0.0,0.0,0.0,0.0,0.0,0.0,0.0,0.0,0.0,0.0,0.0,0.0,0.0,0.0,0.0,0.0,0.0,0.0,2.3103,2.3645,2.4094,2.4338,2.4568,2.4491,0.0,0.0,0.0,0.0,0.0,0.0,0.0,0.0,0.0,0.0,0.0,0.0,0.0,0.0,0.0,0.0,0.0,0.0,0.0,0.0,0.0,0.0,0.0,0.0,0.0,0.0,0.0,0.0,0.0,0.0,0.0,0.0,0.0,0.0,0.0,0.0,0.0,0.0,0.0,0.0,0.0,0.0,0.0,0.0,0.0,0.0,0.0,0.0,0.0,0.0,0.0,0.0,0.0,0.0,0.0,0.0,0.0,0.0,0.0,0.0,0.0,0.0,0.0,0.0,0.0,0.0,0.0,0.0,0.0,0.0,0.0,0.0,0.0,0.0,0.0,0.0,0.0,0.0,0.0,0.0,0.0,0.0,0.0,0.0,0.0,0.0,0.0,0.0,0.0,0.0,0.0,0.0,0.0,0.0,0.0,0.0,0.0,0.0,0.0,0.0,0.0,0.0,0.0,0.0,0.0,0.0,0.0,0.0,0.0,2.371,2.4434,2.4886,2.4979,2.5236,2.5344,0.0,0.0,0.0,0.0,0.0,0.0,0.0,0.0,0.0,0.0,0.0,0.0,0.0,0.0,0.0,0.0,0.0,0.0,0.0,0.0,0.0,0.0,0.0,0.0,0.0,0.0,0.0,0.0,0.0,0.0,0.0,0.0,0.0,0.0,0.0,0.0,0.0,0.0,0.0,0.0,0.0,0.0,0.0,0.0,0.0,0.0,0.0,0.0,0.0,0.0,0.0,0.0,0.0,0.0,0.0,0.0,0.0,0.0,0.0,0.0,0.0,0.0,0.0,0.0,0.0,0.0,0.0,0.0,0.0,0.0,0.0,0.0,0.0,0.0,0.0,0.0,0.0,0.0,0.0,0.0,0.0,0.0,0.0,0.0,0.0,0.0,0.0,0.0,0.0,0.0,0.0,0.0,0.0,0.0,0.0,0.0,0.0,0.0,0.0,0.0,0.0,0.0,0.0,0.0,0.0,0.0,0.0,0.0,0.0,2.4547,2.5203,2.5576,2.5568,2.5903,2.6025,0.0,0.0,0.0,0.0,0.0,0.0,0.0,0.0,0.0,0.0,0.0,0.0,0.0,0.0,0.0,0.0,0.0,0.0,0.0,0.0,0.0,0.0,0.0,0.0,0.0,0.0,0.0,0.0,0.0,0.0,0.0,0.0,0.0,0.0,0.0,0.0,0.0,0.0,0.0,0.0,0.0,0.0,0.0,0.0,0.0,0.0,0.0,0.0,0.0,0.0,0.0,0.0,0.0,0.0,0.0,0.0,0.0,0.0,0.0,0.0,0.0,0.0,0.0,0.0,0.0,0.0,0.0,0.0,0.0,0.0,0.0,0.0,0.0,0.0,0.0,0.0,0.0,0.0,0.0,0.0,0.0,0.0,0.0,0.0,0.0,0.0,0.0,0.0,0.0,0.0,0.0,0.0,0.0,0.0,0.0,0.0,0.0,0.0,0.0,0.0,0.0,0.0,0.0,0.0,0.0,0.0,0.0,0.0,2.5076,2.5586,2.5993,2.6165,2.6107,2.6491,2.6441,0.0,0.0,0.0,0.0,0.0,0.0,0.0,0.0,0.0,0.0,0.0,0.0,0.0,0.0,0.0,0.0,0.0,0.0,0.0,0.0,0.0,0.0,0.0,0.0,0.0,0.0,0.0,0.0,0.0,0.0,0.0,0.0,0.0,0.0,0.0,0.0,0.0,0.0,0.0,0.0,0.0,0.0,0.0,0.0,0.0,0.0,0.0,0.0,0.0,0.0,0.0,0.0,0.0,0.0,0.0,0.0,0.0,0.0,0.0,0.0,0.0,0.0,0.0,0.0,0.0,0.0,0.0,0.0,0.0,0.0,0.0,0.0,0.0,0.0,0.0,0.0,0.0,0.0,0.0,0.0,0.0,0.0,0.0,0.0,0.0,0.0,0.0,0.0,0.0,0.0,0.0,0.0,0.0,0.0,0.0,0.0,0.0,0.0,0.0,0.0,0.0,0.0,0.0,0.0,0.0,0.0,0.0,0.0,0.0,2.6358,2.6629,2.6814,2.693,2.7138,2.7175,0.0,0.0,0.0,0.0,0.0,0.0,0.0,0.0,0.0,0.0,0.0,0.0,0.0,0.0,0.0,0.0,0.0,0.0,0.0,0.0,0.0,0.0,0.0,0.0,0.0,0.0,0.0,0.0,0.0,0.0,0.0,0.0,0.0,0.0,0.0,0.0,0.0,0.0,0.0,0.0,0.0,0.0,0.0,0.0,0.0,0.0,0.0,0.0,0.0,0.0,0.0,0.0,0.0,0.0,0.0,0.0,0.0,0.0,0.0,0.0,0.0,0.0,0.0,0.0,0.0,0.0,0.0,0.0,0.0,0.0,0.0,0.0,0.0,0.0,0.0,0.0,0.0,0.0,0.0,0.0,0.0,0.0,0.0,0.0,0.0,0.0,0.0,0.0,0.0,0.0,0.0,0.0,0.0,0.0,0.0,0.0,0.0,0.0,0.0,0.0,0.0,0.0,0.0,0.0,0.0,0.0,0.0,0.0,0.0,2.7435,2.7369,2.7404,2.7583,2.7744,2.7757,2.7615,0.0,0.0,0.0,0.0,0.0,0.0,0.0,0.0,0.0,0.0,0.0,0.0,0.0,0.0,0.0,0.0,0.0,0.0,0.0,0.0,0.0,0.0,0.0,0.0,0.0,0.0,0.0,0.0,0.0,0.0,0.0,0.0,0.0,0.0,0.0,0.0,0.0,0.0,0.0,0.0,0.0,0.0,0.0,0.0,0.0,0.0,0.0,0.0,0.0,0.0,0.0,0.0,0.0,0.0,0.0,0.0,0.0,0.0,0.0,0.0,0.0,0.0,0.0,0.0,0.0,0.0,0.0,0.0,0.0,0.0,0.0,0.0,0.0,0.0,0.0,0.0,0.0,0.0,0.0,0.0,0.0,0.0,0.0,0.0,0.0,0.0,0.0,0.0,0.0,0.0,0.0,0.0,0.0,0.0,0.0,0.0,0.0,0.0,0.0,0.0,0.0,0.0,0.0,0.0,0.0,0.0,0.0,0.0,2.8728,2.826,2.8065,2.8161,2.836,2.827,0.0,0.0,0.0,0.0,0.0,0.0,0.0,0.0,0.0,0.0,0.0,0.0,0.0,0.0,0.0,0.0,0.0,0.0,0.0,0.0,0.0,0.0,0.0,0.0,0.0,0.0,0.0,0.0,0.0,0.0,0.0,0.0,0.0,0.0,0.0,0.0,0.0,0.0,0.0,0.0,0.0,0.0,0.0,0.0,0.0,0.0,0.0,0.0,0.0,0.0,0.0,0.0,0.0,0.0,0.0,0.0,0.0,0.0,0.0,0.0,0.0,0.0,0.0,0.0,0.0,0.0,0.0,0.0,0.0,0.0,0.0,0.0,0.0,0.0,0.0,0.0,0.0,0.0,0.0,0.0,0.0,0.0,0.0,0.0,0.0,0.0,0.0,0.0,0.0,0.0,0.0,0.0,0.0,0.0,0.0,0.0,0.0,0.0,0.0,0.0,0.0,0.0,0.0,0.0,0.0,0.0,0.0,0.0,0.0,2.9274,2.9301,2.9198,2.8995,2.903,2.9083,0.0,0.0,0.0,0.0,0.0,0.0,0.0,0.0,0.0,0.0,0.0,0.0,0.0,0.0,0.0,0.0,0.0,0.0,0.0,0.0,0.0,0.0,0.0,0.0,0.0,0.0,0.0,0.0,0.0,0.0,0.0,0.0,0.0,0.0,0.0,0.0,0.0,0.0,0.0,0.0,0.0,0.0,0.0,0.0,0.0,0.0,0.0,0.0,0.0,0.0,0.0,0.0,0.0,0.0,0.0,0.0,0.0,0.0,0.0,0.0,0.0,0.0,0.0,0.0,0.0,0.0,0.0,0.0,0.0,0.0,0.0,0.0,0.0,0.0,0.0,0.0,0.0,0.0,0.0,0.0,0.0,0.0,0.0,0.0,0.0,0.0,0.0,0.0,0.0,0.0,0.0,0.0,0.0,0.0,0.0,0.0,0.0,0.0,0.0,0.0,0.0,0.0,0.0,0.0,0.0,0.0,0.0,0.0,2.9353,2.9881,3.0068,3.0127,3.0024,2.9771,2.9643,0.0,0.0,0.0,0.0,0.0,0.0,0.0,0.0,0.0,0.0,0.0,0.0,0.0,0.0,0.0,0.0,0.0,0.0,0.0,0.0,0.0,0.0,0.0,0.0,0.0,0.0,0.0,0.0,0.0,0.0,0.0,0.0,0.0,0.0,0.0,0.0,0.0,0.0,0.0,0.0,0.0,0.0,0.0,0.0,0.0,0.0,0.0,0.0,0.0,0.0,0.0,0.0,0.0,0.0,0.0,0.0,0.0,0.0,0.0,0.0,0.0,0.0,0.0,0.0,0.0,0.0,0.0,0.0,0.0,0.0,0.0,0.0,0.0,0.0,0.0,0.0,0.0,0.0,0.0,0.0,0.0,0.0,0.0,0.0,0.0,0.0,0.0,0.0,0.0,0.0,0.0,0.0,0.0,0.0,0.0,0.0,0.0,0.0,0.0,0.0,0.0,0.0,0.0,0.0,0.0,0.0,0.0,0.0,3.0343,3.0615,3.0812,3.1012,3.1156,3.0564,3.0161,0.0,0.0,0.0,0.0,0.0,0.0,0.0,0.0,0.0,0.0,0.0,0.0,0.0,0.0,0.0,0.0,0.0,0.0,0.0,0.0,0.0,0.0,0.0,0.0,0.0,0.0,0.0,0.0,0.0,0.0,0.0,0.0,0.0,0.0,0.0,0.0,0.0,0.0,0.0,0.0,0.0,0.0,0.0,0.0,0.0,0.0,0.0,0.0,0.0,0.0,0.0,0.0,0.0,0.0,0.0,0.0,0.0,0.0,0.0,0.0,0.0,0.0,0.0,0.0,0.0,0.0,0.0,0.0,0.0,0.0,0.0,0.0,0.0,0.0,0.0,0.0,0.0,0.0,0.0,0.0,0.0,0.0,0.0,0.0,0.0,0.0,0.0,0.0,0.0,0.0,0.0,0.0,0.0,0.0,0.0,0.0,0.0,0.0,0.0,0.0,0.0,0.0,0.0,0.0,0.0,0.0,0.0,0.0,3.1279,3.1969,3.2166,3.2293,3.2342,3.151,3.109,0.0,0.0,0.0,0.0,0.0,0.0,0.0,0.0,0.0,0.0,0.0,0.0,0.0,0.0,0.0,0.0,0.0,0.0,0.0,0.0,0.0,0.0,0.0,0.0,0.0,0.0,0.0,0.0,0.0,0.0,0.0,0.0,0.0,0.0,0.0,0.0,0.0,0.0,0.0,0.0,0.0,0.0,0.0,0.0,0.0,0.0,0.0,0.0,3.7003,0.0,0.0,0.0,0.0,0.0,0.0,0.0,0.0,0.0,0.0,0.0,0.0,0.0,0.0,0.0,0.0,0.0,0.0,0.0,0.0,0.0,0.0,0.0,0.0,0.0,0.0,0.0,0.0,0.0,0.0,0.0,0.0,0.0,0.0,0.0,0.0,0.0,0.0,0.0,0.0,0.0,0.0,0.0,0.0,0.0,0.0,0.0,0.0,0.0,0.0,0.0,0.0,0.0,0.0,0.0,0.0,0.0,0.0,0.0,3.1971,3.239,3.2599,3.2748,3.282,3.2455,3.2148,0.0,0.0,0.0,0.0,0.0,0.0,0.0,0.0,0.0,0.0,0.0,0.0,0.0,0.0,0.0,0.0,0.0,0.0,0.0,0.0,0.0,0.0,0.0,0.0,0.0,0.0,0.0,0.0,0.0,0.0,0.0,0.0,0.0,0.0,0.0,0.0,0.0,0.0,0.0,0.0,0.0,0.0,0.0,0.0,0.0,0.0,0.0,0.0,0.0,0.0,0.0,0.0,0.0,0.0,0.0,0.0,0.0,0.0,0.0,0.0,0.0,0.0,0.0,0.0,0.0,0.0,0.0,0.0,0.0,0.0,0.0,0.0,0.0,0.0,0.0,0.0,0.0,0.0,0.0,0.0,0.0,0.0,0.0,0.0,0.0,0.0,0.0,0.0,0.0,0.0,0.0,0.0,0.0,0.0,0.0,0.0,0.0,0.0,0.0,0.0,0.0,0.0,0.0,0.0,0.0,0.0,0.0,3.2359,3.2592,3.2699,3.291,3.3109,3.3262,3.3418,3.3233,3.2734,0.0,0.0,0.0,0.0,0.0,0.0,0.0,0.0,0.0,0.0,0.0,0.0,0.0,0.0,0.0,0.0,0.0,0.0,0.0,0.0,0.0,0.0,0.0,0.0,0.0,0.0,0.0,0.0,0.0,0.0,0.0,0.0,0.0,0.0,0.0,0.0,0.0,0.0,3.4016,3.5219,0.0,0.0,0.0,0.0,0.0,0.0,0.0,0.0,3.8038,0.0,0.0,0.0,0.0,0.0,0.0,0.0,0.0,0.0,0.0,0.0,0.0,0.0,0.0,0.0,0.0,0.0,0.0,0.0,0.0,0.0,0.0,0.0,0.0,0.0,0.0,0.0,0.0,0.0,0.0,0.0,0.0,0.0,0.0,0.0,0.0,0.0,0.0,0.0,0.0,0.0,0.0,0.0,0.0,0.0,0.0,0.0,0.0,0.0,0.0,0.0,0.0,0.0,0.0,0.0,0.0,3.3038,3.3136,3.3445,3.4058,3.4332,3.4466,3.448,3.4373,3.4268,3.4134,0.0,0.0,0.0,0.0,0.0,0.0,0.0,0.0,0.0,0.0,0.0,0.0,0.0,0.0,0.0,0.0,0.0,0.0,0.0,0.0,0.0,0.0,0.0,0.0,0.0,0.0,0.0,0.0,0.0,0.0,0.0,0.0,0.0,0.0,0.0,0.0,0.0,0.0,0.0,3.6449,3.7252,0.0,0.0,0.0,0.0,0.0,0.0,0.0,0.0,4.054,0.0,0.0,0.0,0.0,0.0,0.0,0.0,0.0,0.0,0.0,0.0,0.0,0.0,0.0,0.0,0.0,0.0,0.0,0.0,0.0,0.0,0.0,0.0,0.0,0.0,0.0,0.0,0.0,0.0,0.0,0.0,0.0,0.0,0.0,0.0,0.0,0.0,0.0,0.0,0.0,0.0,0.0,0.0,0.0,0.0,0.0,0.0,0.0,0.0,0.0,0.0,0.0,0.0,0.0,0.0,3.4084,3.4261,3.469,3.5478,3.5611,3.5791,3.6023,3.5659,3.5541,0.0,0.0,0.0,0.0,0.0,0.0,0.0,0.0,0.0,0.0,0.0,0.0,0.0,0.0,0.0,0.0,0.0,0.0,0.0,0.0,0.0,0.0,0.0,0.0,0.0,0.0,0.0,0.0,0.0,0.0,0.0,0.0,0.0,0.0,0.0,0.0,0.0,0.0,0.0,0.0,3.7669,3.8429,3.8429,0.0,0.0,0.0,0.0,0.0,0.0,4.1113,4.1113,0.0,0.0,0.0,0.0,0.0,0.0,0.0,0.0,0.0,0.0,0.0,0.0,0.0,0.0,0.0,0.0,0.0,0.0,0.0,0.0,0.0,0.0,0.0,0.0,0.0,0.0,0.0,0.0,0.0,0.0,0.0,0.0,0.0,0.0,0.0,0.0,0.0,0.0,0.0,0.0,0.0,0.0,0.0,0.0,0.0,0.0,0.0,0.0,0.0,0.0,0.0,0.0,0.0,0.0,0.0,3.5176,3.5411,3.5872,3.6547,3.6617,3.6811,3.7177,3.6835,3.6785,0.0,0.0,0.0,0.0,0.0,0.0,0.0,0.0,0.0,0.0,0.0,0.0,0.0,0.0,0.0,0.0,0.0,0.0,0.0,0.0,0.0,0.0,0.0,0.0,0.0,0.0,0.0,0.0,0.0,0.0,0.0,0.0,0.0,0.0,0.0,0.0,0.0,0.0,0.0,0.0,0.0,3.9671,3.966,4.0583,0.0,0.0,0.0,0.0,4.1791,4.1878,0.0,0.0,0.0,0.0,0.0,0.0,0.0,0.0,0.0,0.0,0.0,0.0,0.0,0.0,0.0,0.0,0.0,0.0,0.0,0.0,0.0,0.0,0.0,0.0,0.0,0.0,0.0,0.0,0.0,0.0,0.0,0.0,0.0,0.0,0.0,0.0,0.0,0.0,0.0,0.0,0.0,0.0,0.0,0.0,0.0,0.0,0.0,0.0,0.0,0.0,0.0,0.0,0.0,0.0,0.0,0.0,3.6301,3.6349,3.6542,3.6833,3.7043,3.7161,3.7198,3.7547,3.7745,0.0,0.0,0.0,0.0,0.0,0.0,0.0,0.0,0.0,0.0,0.0,0.0,0.0,0.0,0.0,0.0,0.0,0.0,0.0,0.0,0.0,0.0,0.0,0.0,0.0,0.0,0.0,0.0,0.0,0.0,0.0,0.0,0.0,0.0,0.0,0.0,0.0,0.0,0.0,0.0,0.0,4.0897,4.0908,4.1451,4.2086,0.0,0.0,4.3673,4.4203,4.4469,0.0,0.0,0.0,0.0,0.0,0.0,0.0,0.0,0.0,0.0,0.0,0.0,0.0,0.0,0.0,0.0,0.0,0.0,0.0,0.0,0.0,0.0,0.0,0.0,0.0,0.0,0.0,0.0,0.0,0.0,0.0,0.0,0.0,0.0,0.0,0.0,0.0,0.0,0.0,0.0,0.0,0.0,0.0,0.0,0.0,0.0,0.0,0.0,0.0,0.0,0.0,0.0,0.0,0.0,0.0,3.6332,3.6995,3.7126,3.745,3.8012,3.8138,3.8303,3.8602,3.8475,3.8507,0.0,0.0,0.0,0.0,0.0,0.0,0.0,0.0,0.0,0.0,0.0,0.0,0.0,0.0,0.0,0.0,0.0,0.0,0.0,0.0,0.0,0.0,0.0,0.0,0.0,0.0,0.0,0.0,0.0,0.0,0.0,0.0,0.0,0.0,0.0,0.0,0.0,0.0,0.0,0.0,0.0,0.0,4.2114,4.3046,0.0,0.0,0.0,4.4864,4.5114,0.0,0.0,0.0,0.0,0.0,0.0,0.0,0.0,0.0,0.0,0.0,0.0,0.0,0.0,0.0,0.0,0.0,0.0,0.0,0.0,0.0,0.0,0.0,0.0,0.0,0.0,0.0,0.0,0.0,0.0,0.0,0.0,0.0,0.0,0.0,0.0,0.0,0.0,0.0,0.0,0.0,0.0,0.0,0.0,0.0,0.0,0.0,0.0,0.0,0.0,0.0,0.0,0.0,0.0,0.0,0.0,0.0,3.8205,3.8374,3.8796,3.9519,3.9557,3.9759,4.0227,3.9848,0.0,0.0,0.0,0.0,0.0,0.0,0.0,0.0,0.0,0.0,0.0,0.0,0.0,0.0,0.0,0.0,0.0,0.0,0.0,0.0,0.0,0.0,0.0,0.0,0.0,0.0,0.0,3.3831,0.0,0.0,0.0,0.0,0.0,0.0,0.0,0.0,0.0,0.0,0.0,0.0,0.0,0.0,4.3609,4.3758,4.4847,4.5698,0.0,0.0,4.6414,4.6414,4.6465,4.6515,0.0,0.0,0.0,0.0,0.0,0.0,0.0,0.0,0.0,0.0,0.0,0.0,0.0,0.0,0.0,0.0,0.0,0.0,0.0,0.0,0.0,0.0,0.0,0.0,0.0,0.0,0.0,0.0,0.0,0.0,0.0,0.0,0.0,0.0,0.0,0.0,0.0,0.0,0.0,0.0,0.0,0.0,0.0,0.0,0.0,0.0,0.0,0.0,0.0,0.0,0.0,0.0,0.0,0.0,3.9108,4.0436,4.0486,4.0742,4.1285,4.1336,4.1446,4.1747,4.1891,4.1959,0.0,0.0,0.0,0.0,0.0,0.0,0.0,0.0,0.0,0.0,0.0,0.0,0.0,0.0,0.0,0.0,0.0,0.0,0.0,0.0,0.0,0.0,0.0,0.0,0.0,0.0,0.0,0.0,0.0,0.0,0.0,0.0,0.0,0.0,0.0,0.0,0.0,0.0,0.0,0.0,0.0,4.5507,4.6072,4.6722,4.7371,0.0,0.0,4.8862,4.8848,4.9047,4.9234,4.9234,0.0,0.0,0.0,0.0,0.0,0.0,0.0,0.0,0.0,0.0,0.0,0.0,0.0,0.0,0.0,0.0,0.0,0.0,0.0,0.0,0.0,0.0,0.0,0.0,0.0,0.0,0.0,0.0,0.0,0.0,0.0,0.0,0.0,0.0,0.0,0.0,0.0,0.0,0.0,0.0,0.0,0.0,0.0,0.0,0.0,0.0,0.0,0.0,0.0,0.0,0.0,0.0,0.0,4.0229,4.0928,4.1106,4.1376,4.1732,4.1743,4.1858,4.2069,4.2143,4.2351,0.0,0.0,0.0,0.0,0.0,0.0,0.0,0.0,0.0,0.0,0.0,0.0,0.0,0.0,0.0,0.0,0.0,0.0,0.0,0.0,0.0,0.0,0.0,0.0,0.0,0.0,0.0,0.0,3.8331,3.9258,4.008,0.0,0.0,0.0,0.0,0.0,0.0,0.0,0.0,0.0,0.0,4.6816,4.7422,4.8176,0.0,0.0,4.969,5.0215,5.0215,5.0603,5.0923,5.0923,5.1017,0.0,0.0,0.0,0.0,0.0,0.0,0.0,0.0,0.0,0.0,0.0,0.0,0.0,0.0,0.0,0.0,0.0,0.0,0.0,0.0,0.0,0.0,0.0,0.0,0.0,0.0,0.0,0.0,0.0,0.0,0.0,0.0,0.0,0.0,0.0,0.0,0.0,0.0,0.0,0.0,0.0,0.0,0.0,0.0,0.0,0.0,0.0,0.0,0.0,0.0,0.0,0.0,4.187,4.2386,4.2579,4.283,4.3115,4.3103,4.325,4.3523,4.3366,4.3425,0.0,0.0,0.0,0.0,0.0,0.0,0.0,0.0,0.0,0.0,0.0,0.0,0.0,0.0,0.0,0.0,0.0,0.0,0.0,0.0,0.0,0.0,0.0,0.0,0.0,0.0,0.0,0.0,4.0471,4.1685,4.259,0.0,0.0,0.0,0.0,0.0,0.0,0.0,0.0,0.0,0.0,4.8391,4.9168,4.9801,5.0327,5.069,5.1381,5.1866,5.1866,5.2314,5.2651,5.2651,0.0,0.0,0.0,0.0,0.0,0.0,0.0,0.0,0.0,0.0,0.0,0.0,0.0,0.0,0.0,0.0,0.0,0.0,0.0,0.0,0.0,0.0,0.0,0.0,0.0,0.0,0.0,0.0,0.0,0.0,3.3352,0.0,0.0,0.0,0.0,0.0,0.0,0.0,0.0,0.0,0.0,0.0,0.0,0.0,0.0,0.0,0.0,0.0,0.0,0.0,0.0,0.0,0.0,4.4218,4.5351,4.5321,4.5515,4.5776,4.5804,4.6017,4.651,4.5959,4.5742,4.6,0.0,0.0,0.0,0.0,0.0,0.0,0.0,0.0,0.0,0.0,0.0,0.0,0.0,0.0,0.0,0.0,0.0,0.0,0.0,0.0,0.0,0.0,0.0,0.0,0.0,0.0,4.131,4.2995,4.4367,0.0,0.0,0.0,0.0,0.0,0.0,0.0,0.0,0.0,0.0,4.9526,5.0367,5.1562,5.1731,5.2194,5.336,5.3838,5.4049,5.4006,5.4328,5.4536,0.0,0.0,0.0,0.0,0.0,0.0,0.0,0.0,0.0,0.0,0.0,0.0,0.0,0.0,0.0,0.0,0.0,0.0,0.0,0.0,0.0,0.0,0.0,0.0,0.0,0.0,0.0,3.4553,3.4871,0.0,0.0,0.0,0.0,0.0,0.0,0.0,0.0,0.0,0.0,0.0,3.9985,4.0631,0.0,0.0,0.0,0.0,0.0,0.0,0.0,0.0,0.0,0.0,0.0,0.0,4.5173,4.5737,4.5749,4.5998,4.6397,4.645,4.6591,4.6968,4.6728,4.6733,4.6958,0.0,0.0,0.0,0.0,0.0,0.0,0.0,0.0,0.0,0.0,0.0,0.0,0.0,0.0,0.0,0.0,0.0,0.0,0.0,0.0,0.0,0.0,0.0,0.0,0.0,4.2688,0.0,0.0,0.0,0.0,0.0,0.0,0.0,0.0,0.0,0.0,0.0,5.028,5.1318,5.1644,5.2226,5.3491,5.3661,5.3832,0.0,0.0,0.0,0.0,0.0,0.0,0.0,0.0,0.0,0.0,0.0,0.0,0.0,0.0,5.6403,5.4332,5.3977,5.3921,5.3854,0.0,0.0,0.0,0.0,0.0,0.0,0.0,0.0,0.0,0.0,0.0,0.0,0.0,0.0,3.6678,0.0,3.7057,0.0,0.0,0.0,0.0,0.0,0.0,0.0,0.0,4.1013,4.1529,4.174,4.2419,4.2893,0.0,4.4117,4.426,0.0,0.0,0.0,0.0,0.0,0.0,0.0,0.0,4.7069,4.7443,4.7556,4.7769,4.8088,4.8128,4.815,4.8206,4.786,4.7623,4.7546,4.7711,4.7428,0.0,0.0,0.0,0.0,0.0,0.0,0.0,0.0,0.0,0.0,0.0,0.0,0.0,0.0,0.0,0.0,0.0,0.0,0.0,0.0,0.0,0.0,0.0,4.4929,0.0,0.0,0.0,0.0,0.0,0.0,0.0,0.0,0.0,5.0945,5.1205,5.1935,5.3193,5.3364,5.3835,5.5079,0.0,0.0,0.0,0.0,0.0,0.0,0.0,5.8663,5.8663,5.8663,5.8663,5.8663,5.8839,5.9058,5.9263,0.0,0.0,5.6606,5.6248,5.622,5.6078,5.6064,5.6036,5.5922,5.5865,5.5894,0.0,0.0,0.0,0.0,0.0,0.0,0.0,0.0,3.8311,3.8338,0.0,3.894,0.0,0.0,0.0,0.0,0.0,4.1778,0.0,0.0,4.231,4.2668,4.3277,4.409,4.4802,4.538,4.6051,4.6478,4.6668,4.6029,0.0,0.0,0.0,0.0,0.0,0.0,4.9823,5.032,5.058,5.0776,5.0761,5.0761,5.0631,5.0293,4.9319,4.8554,4.7968,4.7979,4.795,4.7892,4.815,0.0,0.0,0.0,0.0,0.0,0.0,0.0,0.0,0.0,0.0,0.0,0.0,0.0,0.0,0.0,0.0,0.0,0.0,0.0,0.0,4.6145,0.0,0.0,0.0,0.0,0.0,0.0,0.0,0.0,0.0,0.0,5.2929,5.2846,5.3249,5.4548,0.0,0.0,0.0,0.0,5.6981,5.8125,5.8633,5.8839,5.8839,5.9117,5.9364,5.9379,0.0,0.0,5.935,5.9364,5.9379,5.935,5.9422,5.9364,5.9321,5.9161,5.9059,5.8768,5.8666,5.865,5.8399,5.814,5.8183,3.9645,0.0,0.0,0.0,0.0,3.9924,4.015,4.0222,4.0648,4.093,4.1046,4.1224,0.0,0.0,0.0,0.0,0.0,0.0,4.4882,4.4922,4.5418,4.5794,4.5976,4.6194,4.6429,4.6616,4.7657,4.8194,4.8284,4.895,4.8808,4.7974,0.0,0.0,0.0,0.0,5.0505,5.0689,5.0766,5.0895,5.1075,5.1075,5.1116,5.1226,5.0954,5.0701,5.0498,5.0696,5.0586,5.0184,4.9944,0.0,0.0,0.0,0.0,0.0,0.0,0.0,0.0,0.0,0.0,0.0,0.0,0.0,0.0,0.0,0.0,0.0,0.0,0.0,4.7509,4.8362,4.9204,0.0,0.0,0.0,0.0,0.0,0.0,0.0,0.0,0.0,5.5863,5.5184,5.5098,0.0,0.0,5.7006,5.8307,5.8494,5.8624,5.8971,0.0,0.0,0.0,6.0263,6.0671,6.0642,6.0642,6.0642,6.0671,6.0642,6.0642,6.0642,6.0642,6.0671,6.0613,5.9887,5.9335,5.9161,5.9146,5.9131,5.9044,5.9015,5.9043,4.2027,4.088,4.0852,4.0875,4.0963,4.1329,4.1725,4.2166,4.2546,4.2946,4.3398,4.364,4.3844,4.3998,4.4264,0.0,0.0,0.0,4.65,4.6528,4.7169,4.7586,4.7831,4.8085,4.8342,4.8587,4.9306,4.9686,4.9844,5.1103,5.1384,5.0743,0.0,0.0,5.1535,5.1911,5.2221,5.2464,5.2569,5.2688,5.2846,5.2615,5.2629,5.2872,5.2406,5.2207,5.2292,5.2222,5.1987,5.1642,5.1493,5.1212,0.0,0.0,0.0,0.0,0.0,0.0,0.0,0.0,0.0,0.0,0.0,4.5683,4.6319,0.0,0.0,0.0,4.8267,4.8876,4.9773,5.0465,0.0,0.0,0.0,0.0,0.0,0.0,0.0,5.6191,5.635,5.6901,5.8238,5.7785,5.7496,5.8028,5.8073,5.845,5.951,0.0,5.9829,6.0322,6.0729,6.1063,6.1309,6.1687,6.1994,6.213,6.2281,6.2357,6.2328,6.2328,6.2372,6.2328,6.2328,6.2343,6.2328,6.1729,6.1012,6.0527,6.0409,6.0496,6.0729,6.0816,6.0816,4.429,4.4183,4.2858,4.2409,4.2552,4.2574,4.3172,4.4135,4.4146,4.4607,4.5379,4.5928,4.6214,4.6299,4.6964,0.0,4.7348,4.7417,4.7487,4.7487,4.8035,4.8583,4.9114,4.9737,5.0351,5.0856,5.0971,5.1128,5.1433,5.267,5.3395,5.3606,5.2525,5.2303,5.293,5.376,5.4486,5.5006,5.5238,5.5416,5.5415,5.4905,5.4762,5.4967,5.387,5.3383,5.3605,5.3069,5.2745,5.2745,5.2951,5.3057,5.2998,0.0,0.0,0.0,0.0,0.0,0.0,0.0,0.0,0.0,0.0,0.0,0.0,0.0,0.0,4.9699,5.0673,0.0,5.1777,5.2429,0.0,0.0,0.0,5.489,5.5572,5.563,5.6234,5.7809,0.0,0.0,6.0097,0.0,6.0146,5.9655,5.9539,5.9728,6.0353,6.0557,6.0919,6.2085,6.2258,6.2475,6.2944,6.3118,6.3211,6.3502,6.388,6.3988,6.3988,6.3988,6.4048,6.3959,6.4078,6.4033,6.4078,6.39,6.3719,6.251,6.2273,6.2432,6.2899,6.3016,6.3002,4.6066,4.6078,4.5938,4.5784,4.5666,4.5855,4.6094,4.6331,4.6331,4.6452,4.6654,4.6797,4.71,4.7586,4.8382,4.9055,4.9556,5.022,5.0539,5.0539,5.0671,5.0845,5.0948,5.1134,5.1278,5.1481,5.2406,5.2895,5.3019,5.4235,5.4884,5.4925,5.4672,5.4618,5.4749,5.4991,5.5163,5.5307,5.5376,5.5525,5.5755,5.5652,5.5699,5.595,5.5669,5.5561,5.5598,5.566,5.5675,5.5645,5.55,5.5163,5.4642,5.4065,0.0,0.0,0.0,0.0,0.0,0.0,0.0,0.0,0.0,5.0094,5.0784,0.0,5.1038,0.0,5.2404,5.3078,5.3691,5.4338,0.0,0.0,5.5768,5.6327,5.7486,5.7604,5.8131,5.9482,5.9643,5.9966,6.0848,6.1364,6.1792,6.2115,6.1762,6.166,6.2291,6.285,6.3262,6.3541,6.3584,6.3673,6.3864,6.385,6.3894,6.3956,6.4077,6.4078,6.4093,6.4078,6.4078,6.4078,6.4078,6.4078,6.4197,6.4078,6.4254,6.4232,6.3952,6.3673,6.385,6.3864,6.3879,4.7681,4.7751,4.8551,4.8845,4.8636,4.786,4.7888,4.8513,4.8513,4.8747,4.9104,4.9104,4.9305,4.9638,5.0092,5.0543,5.089,5.1393,5.1617,5.163,5.2169,5.243,5.2472,5.3023,5.3297,5.3313,5.401,5.4409,5.4629,5.5548,5.6098,5.6263,5.6817,5.7066,5.7066,5.636,5.6146,5.6465,5.6865,5.7339,5.7798,5.7811,5.7936,5.8181,5.7675,5.7433,5.7525,5.712,5.6871,5.6871,5.67,5.6462,5.606,5.5688,5.5329,0.0,0.0,0.0,0.0,0.0,0.0,0.0,0.0,0.0,0.0,0.0,5.3035,5.3799,5.4492,5.4973,5.5198,5.6126,5.6834,5.7161,5.7692,5.8327,5.9078,5.9166,5.9577,6.0665,6.1079,6.158,6.2333,6.2986,6.3491,6.3906,6.3906,6.3743,6.3592,6.3871,6.4211,6.4461,6.4505,6.4623,6.4888,6.5086,6.5162,6.5178,6.53,6.5407,6.5391,6.5644,6.5838,6.5852,6.606,6.6298,6.6298,6.6282,6.6401,6.6623,6.652,6.5967,6.5127,6.4947,6.5006,4.92,4.934,5.0695,5.1299,5.1216,4.9461,4.9383,5.0459,5.0459,5.089,5.1588,5.1617,5.1701,5.1884,5.1913,5.2026,5.2197,5.2209,5.2209,5.2255,5.3331,5.3867,5.3925,5.5002,5.5525,5.5525,5.5599,5.5777,5.6106,5.6782,5.7257,5.7562,5.8754,5.9314,5.9284,5.7988,5.7556,5.8099,5.8922,5.9623,6.0242,6.0227,6.037,6.0609,5.9581,5.9109,5.9325,5.8231,5.7603,5.7616,5.7616,5.7513,5.7363,5.7334,5.7274,0.0,5.7094,0.0,0.0,0.0,0.0,0.0,0.0,0.0,0.0,5.4568,5.4946,5.5805,5.6578,5.6915,5.6675,5.7874,5.8672,5.8701,5.9663,6.0358,6.0417,6.0505,6.0915,6.1796,6.2494,6.3251,6.3978,6.471,6.5144,6.5144,6.5622,6.5635,6.4883,6.4629,6.4822,6.5203,6.5321,6.5768,6.6315,6.6664,6.6851,6.6852,6.7052,6.7238,6.7207,6.7672,6.8062,6.8106,6.8404,6.8823,6.9004,6.8898,6.8898,6.8807,6.8747,6.8245,6.6898,6.6461,6.6576,5.0768,5.081,5.1324,5.1827,5.2333,5.2413,5.2037,5.1364,5.1364,5.1434,5.1617,5.1617,5.2322,5.3516,5.3545,5.4231,5.5397,5.5397,5.5397,5.5426,5.5675,5.5779,5.5779,5.6014,5.6132,5.6161,5.669,5.6982,5.7066,5.8199,5.8772,5.8872,5.9624,6.0008,6.0022,0.0,0.0,0.0,5.9934,6.018,6.0511,6.0525,6.0667,6.0992,6.0767,0.0,6.0701,6.0462,6.0356,6.0342,6.0342,0.0,0.0,0.0,0.0,0.0,0.0,0.0,0.0,0.0,0.0,0.0,5.6645,5.6419,5.6526,5.6555,5.6619,5.6849,5.7955,5.8602,5.8592,5.9758,6.0578,6.0578,6.0773,6.1131,6.1652,6.2233,6.2829,6.3456,6.4128,6.4591,6.48,6.5398,6.5817,6.5877,6.64,6.6908,6.7174,6.6695,6.6502,6.6635,6.7007,6.762,6.8336,6.8413,6.8369,6.8536,6.8552,6.8585,6.8555,6.8675,6.8794,6.8794,6.8914,6.9034,6.9034,6.9004,6.9093,6.9004,6.9034,6.8882,6.8517,6.8426,6.8486,5.2059,0.0,5.2855,5.3505,0.0,5.4539,5.4415,5.3932,5.3775,5.3789,5.3932,5.3932,5.4361,5.5122,5.5151,5.5554,5.6305,5.6305,5.6305,5.6335,5.6646,5.6793,5.6823,5.7442,5.7721,5.7737,5.8415,5.8809,5.8964,5.9569,5.9979,6.0149,6.0803,6.1144,6.1144,6.1613,6.1613,6.1144,6.1144,6.1363,6.179,6.1834,6.1905,6.2061,0.0,0.0,0.0,0.0,0.0,0.0,0.0,0.0,0.0,0.0,0.0,5.9115,5.9069,5.9056,5.9069,5.9099,5.9069,5.9056,5.9069,5.88,5.8141,5.871,5.9099,5.9099,5.9727,6.0073,6.0133,6.1014,6.1732,6.2032,6.2361,6.2795,6.3423,6.3812,6.4156,6.447,6.5069,6.5488,6.5488,6.64,6.6954,6.6999,6.7567,6.8076,6.8361,6.7912,6.7583,6.7926,6.8226,6.86,6.8914,6.9004,6.9004,6.9004,6.9004,6.9004,6.9004,6.9273,6.9482,6.9512,6.9722,6.9931,6.9961,6.9931,6.9931,6.9931,6.9931,6.9931,6.9901,6.9453,6.9123,5.3397,5.3894,5.4499,5.5196,5.5906,5.6077,5.6383,5.6684,0.0,0.0,0.0,5.6305,5.6378,5.6549,5.6667,5.6812,5.6998,5.7089,5.7175,5.7162,5.7723,5.7976,5.8035,5.904,5.9527,5.9557,6.0105,6.0469,6.0681,6.08,6.1,6.1315,6.1942,6.2301,6.2495,6.3003,6.3063,6.263,6.248,6.269,6.3257,6.3363,6.3452,6.3452,6.2899,6.257,6.2421,6.1898,6.1569,6.1449,6.1449,6.1389,6.1269,6.1269,6.1239,6.109,6.109,6.109,6.109,6.109,6.109,6.109,6.121,6.0761,5.9534,6.0462,6.109,6.109,6.1299,6.1449,6.1463,6.2181,6.2839,6.3393,6.3887,6.4381,6.4919,6.5129,6.5144,6.5263,6.5877,6.637,6.643,6.7403,6.8181,6.8241,6.8555,6.9093,6.9064,6.86,6.8421,6.899,6.9153,6.9213,6.9333,6.9423,6.9333,6.9453,6.9393,6.9333,6.9423,6.9798,7.0127,7.0157,7.059,7.0859,7.1009,7.1038,7.1128,7.1232,7.1278,7.1278,7.1188,7.044,6.9901,5.5053,5.5169,5.5542,5.5778,5.5949,5.6779,5.758,5.824,5.6861,5.6265,5.6305,5.6305,5.6734,5.7538,5.8132,5.8819,5.9588,6.0172,6.044,0.0,6.053,6.056,6.0576,6.0725,6.0815,6.0829,6.0934,6.0992,6.108,6.1602,6.1899,6.2032,6.2614,6.3213,6.3677,6.3827,6.4126,6.456,6.4006,6.3767,6.3901,6.4441,6.474,6.4725,6.462,6.4321,6.3737,6.3617,6.3348,6.2854,6.2838,6.2555,6.2002,6.2002,6.1702,6.115,6.112,6.109,6.112,6.109,6.109,6.112,6.1642,6.1628,6.091,6.1,6.109,6.115,6.2181,6.2794,6.2884,6.3842,6.4516,6.471,6.4785,6.4904,6.5114,6.5577,6.5906,6.5996,6.6984,6.7688,6.7732,6.8361,6.8854,6.8854,6.9064,6.9243,6.9648,6.9273,6.9199,6.9678,6.9858,7.0067,7.035,7.062,7.056,7.062,7.059,7.0573,7.0649,7.0769,7.0859,7.0799,7.0979,7.1188,7.1653,7.1773,7.1936,7.2355,7.2475,7.2488,7.2458,7.2235,7.1906,5.5851,5.6199,5.6499,5.6964,5.7481,5.8418,5.9263,5.991,5.922,5.8689,5.8375,5.8375,5.88,5.9536,5.9864,6.0231,6.0655,6.097,6.109,6.109,6.109,6.109,6.115,6.1463,6.1628,6.1658,6.2002,6.2181,6.2211,6.2495,6.278,6.3169,6.3797,6.4261,6.453,6.453,6.4695,6.4994,6.471,6.453,6.4575,6.4845,6.4994,6.4994,6.4994,6.4845,6.456,6.456,6.4411,6.4156,6.4156,6.4006,6.3693,6.3663,6.3543,6.3244,6.3199,6.3214,6.3214,6.3214,6.3199,6.3229,6.3483,6.3543,6.3229,6.2885,6.2825,6.317,6.3812,6.4111,6.4156,6.465,6.5144,6.5503,6.5532,6.5847,6.652,6.6849,6.7224,6.7597,6.8136,6.8541,6.8525,6.9109,6.9558,6.9558,6.9782,7.0141,7.044,7.026,7.0111,7.0426,7.0486,7.059,7.0889,7.0903,7.1038,7.1368,7.1427,7.1607,7.1876,7.1996,7.195,7.198,7.195,7.2069,7.2415,7.2445,7.2595,7.2744,7.2924,7.2924,7.2924,7.2924,7.2668,5.6724,5.7364,5.7723,5.8365,5.9307,6.0034,6.0611,6.109,6.109,6.0894,6.0579,6.04,6.0625,6.109,6.1239,6.1329,6.1329,6.1479,6.1539,6.1539,6.1539,6.1553,6.1583,6.2091,6.2391,6.254,6.3063,6.3363,6.3512,6.3542,6.3737,6.4246,6.474,6.5054,6.5248,6.5203,6.5308,6.5428,6.5443,6.5383,6.5248,6.5353,6.5458,6.5443,6.5458,6.5368,6.5233,6.5233,6.5144,6.4994,6.4994,6.4994,6.4994,6.4994,6.4994,6.4994,6.4994,6.4994,6.4994,6.4994,6.4994,6.4994,6.4994,6.5054,6.5144,6.477,6.4575,6.4949,6.5084,6.5203,6.5248,6.5577,6.5877,6.64,6.661,6.7119,6.8002,6.8227,6.8407,6.8914,6.9123,6.9213,6.9333,6.9798,7.0171,7.0277,7.0739,7.1098,7.1128,7.1218,7.1321,7.1308,7.1248,7.1248,7.1308,7.1427,7.1637,7.2056,7.2116,7.2325,7.2684,7.2864,7.2894,7.2787,7.2817,7.2907,7.3073,7.3133,7.3223,7.3432,7.3522,7.3416,7.3445,7.3462,7.3313,5.8152,5.8946,5.9312,6.0035,6.0825,6.097,6.106,6.115,6.112,6.1419,6.1822,6.1269,6.106,6.118,6.1762,6.2002,6.2061,6.2644,6.2884,6.2884,6.2914,6.2914,6.2914,6.2974,6.3303,6.3737,6.3887,6.4216,6.471,6.4755,6.4845,6.4904,6.4994,6.5338,6.5847,6.5906,6.6191,6.6789,6.6835,6.652,6.5966,6.652,6.6835,6.6819,6.6789,6.652,6.5936,6.5906,6.5637,6.5054,6.5039,6.5024,6.5024,6.5024,6.5024,6.5024,6.5024,6.4994,6.5024,6.4994,6.5054,6.4994,6.5129,6.5353,6.5922,6.5877,6.5577,6.5353,6.5637,6.5966,6.5966,6.6954,6.7613,6.7703,6.8196,6.8794,6.8854,6.8914,6.8944,6.8974,6.9572,6.9887,6.9961,7.0456,7.0799,7.0949,7.1427,7.1833,7.1863,7.2206,7.2548,7.2548,7.2235,7.2116,7.2428,7.2698,7.2638,7.2757,7.2817,7.2907,7.3073,7.3103,7.2954,7.3283,7.3073,7.3283,7.3642,7.3821,7.4018,7.4317,7.445,7.4616,7.4676,7.4587,7.4377,5.9691,6.0054,6.0378,6.0976,6.1658,6.1702,6.1912,6.2285,6.2271,6.2435,6.2644,6.2405,6.2285,6.2301,6.2584,6.2704,6.2734,6.3318,6.3632,6.3647,6.4036,6.4216,6.4231,6.4216,6.4381,6.459,6.459,6.474,6.5039,6.5398,6.5607,6.5637,6.5966,6.634,6.658,6.658,6.6729,6.6969,6.6999,6.6849,6.6685,6.6849,6.6999,6.6999,6.6999,6.6879,6.664,6.658,6.646,6.6191,6.6191,6.6191,6.6191,6.6191,6.6191,6.6191,6.6191,6.6191,6.6191,6.6176,6.637,6.6729,6.6759,6.7059,6.7687,6.7777,6.7657,6.7418,6.7268,6.7313,6.7717,6.8286,6.86,6.8615,6.8854,6.9169,6.9558,6.9572,6.9708,7.0035,7.035,7.0546,7.062,7.1115,7.1637,7.1966,7.2355,7.2475,7.2535,7.2744,7.3043,7.3373,7.3223,7.3013,7.3013,7.2924,7.3086,7.3356,7.3492,7.3552,7.3941,7.4061,7.4091,7.4031,7.3971,7.4061,7.4407,7.4497,7.4616,7.4886,7.4886,7.4886,7.4886,7.4886,7.4736,6.0786,6.1063,6.1484,6.1942,6.2375,6.2375,6.2644,6.3093,6.3287,6.3333,6.3377,6.3542,6.3632,6.3602,6.3452,6.3452,6.3647,6.4066,6.4261,6.4321,6.4785,6.4994,6.4994,6.4994,6.5099,6.5248,6.5263,6.5368,6.5577,6.6011,6.6281,6.634,6.6759,6.6999,6.6999,6.6999,6.7104,6.7254,6.7254,6.7373,6.7508,6.7553,6.7373,6.7029,6.6999,6.7074,6.7284,6.7268,6.7373,6.7537,6.7553,6.7537,6.7553,6.7553,6.7537,6.7537,6.7537,6.7537,6.7537,6.7553,6.7762,6.8211,6.8287,6.8481,6.8884,6.9004,6.9093,6.9183,6.8856,6.872,6.8914,6.9153,6.9273,6.9273,6.9393,6.9752,7.0187,7.0247,7.047,7.1055,7.1158,7.1278,7.1487,7.1906,7.2355,7.2727,7.3027,7.3176,7.3223,7.3343,7.3672,7.4108,7.4168,7.3971,7.3552,7.3552,7.3732,7.3911,7.4168,7.4347,7.4796,7.4856,7.4856,7.4527,7.4796,7.4856,7.4766,7.4826,7.4856,7.4886,7.4886,7.4886,7.4886,7.4886,7.4886,6.1137,6.2063,6.2734,6.2974,6.3078,6.3063,6.3078,6.3273,6.3752,6.3977,6.4066,6.456,6.4874,6.4859,6.4276,6.4321,6.4815,6.4919,6.4934,6.4979,6.5054,6.5024,6.4994,6.4994,6.5368,6.5906,6.5936,6.6251,6.6789,6.6894,6.6984,6.6954,6.7044,6.7029,6.7089,6.7119,6.7343,6.7882,6.7942,6.8227,6.8764,6.8854,6.8226,6.7238,6.7029,6.7373,6.7868,6.7942,6.8211,6.8854,6.8824,6.8854,6.8884,6.8854,6.8824,6.8824,6.8854,6.8854,6.8824,6.8794,6.8854,6.8944,6.8944,6.9004,6.9153,6.9183,6.9393,6.9887,6.9917,6.9738,6.9349,6.9708,6.9947,6.9977,7.047,7.0769,7.0859,7.0949,7.1158,7.1667,7.1846,7.2102,7.2668,7.2817,7.2924,7.3133,7.3492,7.3851,7.3911,7.4347,7.4646,7.4736,7.4766,7.4826,7.4766,7.4497,7.4587,7.4706,7.4646,7.4796,7.4856,7.4886,7.4886,7.4886,7.4886,7.4886,7.4886,7.4886,7.4886,7.4886,7.4886,7.4886,7.4886,7.4886,7.4976,6.241,6.2764,6.2974,6.3303,6.3662,6.3692,6.3917,6.4321,6.453,6.465,6.4665,6.4904,6.5233,6.5637,6.5368,6.5159,6.5054,6.5428,6.5637,6.5697,6.6086,6.6281,6.6281,6.6265,6.64,6.661,6.6655,6.6759,6.6939,6.6999,6.7224,6.7583,6.7643,6.7852,6.8196,6.8286,6.8421,6.8615,6.863,6.8764,6.9004,6.9004,6.8734,6.8315,6.8256,6.8375,6.863,6.8645,6.878,6.9004,6.9004,6.9004,6.9004,6.9004,6.9004,6.9004,6.9004,6.9004,6.9004,6.9004,6.9183,6.9588,6.9648,6.9812,7.0111,7.0231,7.032,7.059,7.1025,7.1055,7.0905,7.0726,7.056,7.0649,7.1128,7.1517,7.1623,7.1906,7.2279,7.2475,7.2565,7.2834,7.3343,7.3552,7.3702,7.4091,7.436,7.4497,7.4557,7.4766,7.4886,7.4886,7.4886,7.4886,7.4886,7.4886,7.4886,7.4886,7.4886,7.4856,7.4886,7.4886,7.4886,7.4886,7.4886,7.4886,7.4886,7.4886,7.4886,7.5006,7.4976,7.5065,7.4886,7.5155,7.5335,6.3707,6.3722,6.3707,6.3947,6.4306,6.4291,6.456,6.5024,6.5233,6.5323,6.5368,6.5547,6.5906,6.6281,6.634,6.6101,6.5697,6.6116,6.634,6.637,6.6805,6.6999,6.6999,6.6999,6.6999,6.7029,6.7254,6.7433,6.7643,6.7643,6.7882,6.8301,6.8331,6.8541,6.8944,6.9004,6.9109,6.9273,6.9349,6.9423,6.9572,6.9632,6.9602,6.9632,6.9632,6.9512,6.9333,6.9303,6.9423,6.9556,6.9602,6.9602,6.9632,6.9632,6.9602,6.9602,6.9632,6.9602,6.9602,6.9602,6.9812,7.0231,7.0306,7.0546,7.1128,7.1234,7.1308,7.1577,7.1906,7.2206,7.2162,7.1816,7.1531,7.1577,7.1966,7.2206,7.2235,7.2624,7.2954,7.3176,7.3462,7.3762,7.4121,7.418,7.4407,7.4873,7.4886,7.4886,7.4886,7.4886,7.4886,7.4886,7.4886,7.4886,7.4886,7.4886,7.4886,7.4886,7.4886,7.4886,7.4886,7.4886,7.4886,7.4886,7.4916,7.4886,7.4886,7.4916,7.5006,7.5155,7.5335,7.5467,7.5497,7.5634,7.5826,6.4964,6.4904,6.4994,6.4934,6.4994,6.4994,6.5024,6.5248,6.5757,6.5996,6.6056,6.661,6.6819,6.6939,6.6879,6.6909,6.6819,6.6939,6.6954,6.6909,6.6969,6.7029,6.7104,6.7119,6.7194,6.7238,6.7732,6.8331,6.8794,6.8794,6.8854,6.8958,6.9004,6.9093,6.9064,6.9213,6.9423,6.9842,7.0007,7.026,7.0799,7.0753,7.0709,7.0753,7.0769,7.05,6.9991,7.0007,7.0247,7.0693,7.0783,7.0843,7.0739,7.0723,7.0813,7.0723,7.0799,7.0829,7.0859,7.0859,7.0829,7.1038,7.0979,7.1278,7.1787,7.1923,7.2116,7.2548,7.2817,7.2894,7.2907,7.2907,7.2817,7.2847,7.2817,7.2894,7.2907,7.2937,7.3176,7.3821,7.433,7.4796,7.4856,7.4796,7.4826,7.4856,7.4886,7.4886,7.4886,7.4886,7.4886,7.4886,7.4886,7.4886,7.4886,7.4886,7.4886,7.4886,7.4886,7.4886,7.4886,7.4886,7.4886,7.4916,7.5185,7.5185,7.5275,7.5335,7.5587,7.5736,7.5839,7.5988,7.6125,7.6275,7.6544,6.4994,6.4994,6.4994,6.5278,6.5667,6.5697,6.5906,6.637,6.661,6.67,6.6729,6.6909,6.6999,6.6999,6.6999,6.6999,6.7029,6.7433,6.7433,6.7089,6.7029,6.7284,6.7613,6.7673,6.7942,6.8361,6.86,6.8794,6.8974,6.9034,6.9183,6.9588,6.9678,6.9901,7.0231,7.0304,7.044,7.056,7.062,7.0739,7.0873,7.0903,7.0903,7.0903,7.0903,7.0799,7.062,7.062,7.0709,7.0903,7.0903,7.0903,7.0903,7.0903,7.0903,7.0903,7.0903,7.1128,7.1517,7.1623,7.1787,7.2146,7.2265,7.2355,7.2565,7.2595,7.2684,7.2967,7.3313,7.3582,7.3642,7.4031,7.3851,7.2997,7.3296,7.3582,7.3642,7.3958,7.4347,7.4527,7.4783,7.4886,7.4886,7.4886,7.4886,7.4886,7.4886,7.4886,7.4886,7.4886,7.4886,7.4886,7.4886,7.4886,7.4886,7.4886,7.4886,7.4886,7.4886,7.4886,7.4886,7.4886,7.4886,7.5125,7.5365,7.5574,7.5647,7.5826,7.6078,7.6347,7.6497,7.6647,7.6766,7.6976,7.7245,6.5727,6.5727,6.5727,6.5966,6.634,6.637,6.661,6.6969,6.6999,6.6999,6.6999,6.6999,6.7164,6.7313,6.7373,6.7523,6.7792,6.8181,6.8151,6.7792,6.7762,6.8002,6.8331,6.8361,6.872,6.9243,6.9379,6.9482,6.9692,6.9722,6.9901,7.0277,7.032,7.05,7.0873,7.0903,7.0903,7.0903,7.0873,7.0903,7.0903,7.0903,7.0903,7.0903,7.0903,7.1022,7.1218,7.1248,7.1158,7.1009,7.1128,7.1294,7.1278,7.1517,7.1637,7.1637,7.1697,7.1876,7.2206,7.2265,7.2445,7.2817,7.2924,7.3043,7.3193,7.3283,7.3343,7.3672,7.4001,7.4287,7.4347,7.4616,7.4467,7.3762,7.4001,7.4257,7.4347,7.4616,7.4826,7.4856,7.4886,7.4886,7.4886,7.4886,7.4886,7.4886,7.4886,7.4886,7.4886,7.4886,7.4886,7.4886,7.4886,7.4886,7.4886,7.4886,7.4886,7.4886,7.4886,7.4886,7.4886,7.4916,7.4916,7.5467,7.5826,7.6155,7.6258,7.6407,7.6647,7.6868,7.7215,7.7394,7.7592,7.7711,7.7951,6.6969,6.6999,6.6969,6.6909,6.6939,6.6939,6.6939,6.7014,6.7089,6.7119,6.7089,6.7238,6.7553,6.7972,6.8077,6.8331,6.8884,6.9004,6.9034,6.9019,6.9049,6.9123,6.9064,6.9153,6.9512,6.9977,7.0037,7.0306,7.0633,7.0679,7.0889,7.0829,7.0829,7.0873,7.0903,7.0903,7.0903,7.0903,7.0903,7.0903,7.1009,7.1009,7.1052,7.1112,7.1172,7.1427,7.1846,7.1936,7.1667,7.1218,7.1683,7.1953,7.2072,7.2565,7.2774,7.2698,7.2847,7.2864,7.2907,7.2954,7.3043,7.3206,7.3253,7.3236,7.3851,7.3941,7.4121,7.4587,7.4766,7.4826,7.4826,7.4856,7.4826,7.4856,7.4736,7.4796,7.4856,7.4903,7.4886,7.4886,7.4886,7.4886,7.4886,7.4886,7.4886,7.4886,7.4886,7.4886,7.4886,7.4886,7.4886,7.4886,7.4886,7.4886,7.4886,7.5245,7.5275,7.5318,7.5318,7.5347,7.5288,7.5258,7.5377,7.5916,7.6425,7.6706,7.6976,7.7125,7.7365,7.7694,7.7981,7.822,7.831,7.834,7.837,6.6999,6.6999,6.6999,6.6999,6.6999,6.6999,6.6999,6.7074,6.7553,6.7732,6.7822,6.8271,6.8495,6.875,6.875,6.8854,6.9153,6.9558,6.9738,6.9812,7.0247,7.0111,6.9947,7.0201,7.044,7.062,7.062,7.0769,7.0873,7.0903,7.0903,7.0903,7.0903,7.0903,7.0903,7.0903,7.0903,7.0903,7.0903,7.1218,7.1577,7.1637,7.1876,7.2339,7.2309,7.2428,7.2608,7.2638,7.2595,7.2428,7.2535,7.2654,7.2638,7.2847,7.3043,7.3027,7.2967,7.3163,7.3552,7.3642,7.3851,7.4317,7.4257,7.4467,7.4616,7.4616,7.4736,7.4886,7.4886,7.4886,7.4886,7.4886,7.4886,7.4886,7.4886,7.4886,7.4886,7.4886,7.4886,7.4886,7.4886,7.4886,7.4886,7.4886,7.4886,7.4886,7.4886,7.4886,7.4886,7.4886,7.4916,7.4916,7.4916,7.4886,7.5006,7.5407,7.5677,7.5796,7.5946,7.6168,7.6108,7.6078,7.6258,7.6617,7.7173,7.7514,7.7741,7.7951,7.825,7.837,7.846,7.8579,7.8609,7.8669,7.8639,6.6999,6.6999,6.6999,6.7164,6.7403,6.7433,6.7583,6.7867,6.8241,6.8421,6.8511,6.881,6.9153,6.9409,6.9423,6.9588,6.9842,7.0217,7.0366,7.041,7.0709,7.0649,7.05,7.0769,7.0903,7.0903,7.0903,7.0873,7.0903,7.0903,7.0903,7.0903,7.0903,7.0903,7.0949,7.1188,7.1308,7.1398,7.1561,7.1966,7.2295,7.2325,7.2475,7.2847,7.2924,7.2997,7.3283,7.3582,7.3522,7.3116,7.3146,7.3343,7.3356,7.3612,7.3732,7.3732,7.3732,7.3941,7.4227,7.4317,7.448,7.4796,7.4886,7.4886,7.4886,7.4886,7.4886,7.4886,7.4886,7.4886,7.4886,7.4886,7.4886,7.4886,7.4886,7.4886,7.4886,7.4886,7.4886,7.4886,7.4886,7.4886,7.4886,7.4886,7.4886,7.4886,7.4886,7.4886,7.4886,7.4916,7.5065,7.5215,7.5347,7.5467,7.5677,7.6066,7.6335,7.6455,7.6736,7.6946,7.6856,7.6826,7.7065,7.7365,7.7891,7.825,7.834,7.846,7.8549,7.8669,7.8789,7.8789,7.8789,7.8789,7.8789,6.7224,6.7224,6.7224,6.7553,6.8077,6.8107,6.8391,6.8884,6.9034,6.9093,6.9123,6.9183,6.9632,7.0097,7.0081,7.035,7.0829,7.0769,7.0829,7.0813,7.0873,7.0813,7.0813,7.0859,7.0903,7.0903,7.0903,7.0903,7.0903,7.0903,7.0962,7.1068,7.1068,7.1112,7.1398,7.1757,7.1966,7.2086,7.2428,7.2757,7.2984,7.3013,7.3116,7.3343,7.3373,7.3552,7.4001,7.4407,7.4317,7.3176,7.3672,7.3971,7.4061,7.4587,7.4796,7.4736,7.4676,7.4736,7.4856,7.4796,7.4856,7.4886,7.4886,7.4886,7.4886,7.4886,7.4886,7.4886,7.4886,7.4886,7.4886,7.4886,7.4886,7.4886,7.4886,7.4886,7.4886,7.4886,7.4886,7.4886,7.4886,7.4886,7.4886,7.4916,7.4946,7.5275,7.5275,7.5347,7.5437,7.5587,7.5736,7.5946,7.6066,7.6198,7.6467,7.6796,7.7006,7.7185,7.7574,7.7753,7.7544,7.7574,7.7801,7.8071,7.834,7.8519,7.8639,7.8729,7.8789,7.8789,7.8789,7.8789,7.8789,7.8789,7.8789,6.8585,6.8555,6.8585,6.8645,6.8764,6.8764,6.8884,6.9093,6.9572,6.9798,6.9887,7.026,7.053,7.0679,7.0649,7.0799,7.0889,7.0903,7.0903,7.0903,7.0903,7.0903,7.0919,7.0979,7.0949,7.0932,7.0903,7.0903,7.0949,7.1098,7.1188,7.1653,7.1697,7.1936,7.2368,7.2488,7.2668,7.2727,7.2877,7.3236,7.3642,7.3702,7.3911,7.4287,7.4377,7.4467,7.4616,7.4826,7.4736,7.4587,7.4557,7.4616,7.4646,7.4796,7.4886,7.4886,7.4886,7.4886,7.4886,7.4886,7.4886,7.4886,7.4886,7.4886,7.4886,7.4886,7.4886,7.4886,7.4886,7.4886,7.4886,7.4886,7.4946,7.4976,7.5006,7.5006,7.4916,7.4916,7.4886,7.4946,7.4946,7.4916,7.4946,7.5035,7.5215,7.5527,7.5766,7.5916,7.6066,7.6198,7.6395,7.6574,7.6676,7.6796,7.7155,7.7454,7.7664,7.7801,7.816,7.837,7.816,7.816,7.831,7.846,7.8639,7.8777,7.8789,7.8789,7.8789,7.8789,7.8789,7.8789,7.8789,7.8789,7.8789,6.9004,6.9004,6.9004,6.9183,6.9423,6.9498,6.9632,6.9931,7.0231,7.0426,7.0486,7.0799,7.0873,7.0903,7.0903,7.0873,7.0903,7.0903,7.0903,7.0979,7.1188,7.1368,7.1487,7.1637,7.1727,7.1427,7.1368,7.1487,7.1757,7.1816,7.2056,7.2325,7.2355,7.2505,7.2937,7.3223,7.3343,7.3462,7.3702,7.4031,7.4317,7.4377,7.4467,7.4826,7.4886,7.4886,7.4886,7.4886,7.4886,7.4886,7.4886,7.4886,7.4886,7.4886,7.4886,7.4886,7.4886,7.4886,7.4886,7.4886,7.4886,7.4886,7.4886,7.4886,7.4886,7.4886,7.4886,7.4886,7.4886,7.4886,7.4916,7.5258,7.5318,7.5437,7.5617,7.5766,7.5677,7.5305,7.5065,7.5245,7.5425,7.5587,7.5647,7.5587,7.5796,7.6258,7.6317,7.6437,7.6437,7.6617,7.6916,7.7113,7.7215,7.7424,7.7783,7.81,7.834,7.843,7.8519,7.8639,7.8549,7.8609,7.8729,7.8789,7.8777,7.8807,7.8789,7.8789,7.8789,7.8789,7.8789,7.8789,7.8789,7.8789,7.8789,6.9319,6.9303,6.9303,6.9602,7.0097,7.0127,7.038,7.0799,7.0903,7.0829,7.0873,7.0903,7.0903,7.0903,7.0903,7.0949,7.1068,7.1128,7.1218,7.1471,7.1846,7.2026,7.2176,7.2415,7.2595,7.2192,7.2102,7.2355,7.2654,7.2924,7.2787,7.2997,7.3027,7.3223,7.3373,7.3732,7.4031,7.4138,7.4467,7.4706,7.4796,7.4796,7.4856,7.4886,7.4886,7.4886,7.4886,7.4886,7.4886,7.4886,7.4886,7.4886,7.4886,7.4886,7.4886,7.4886,7.4886,7.4886,7.4886,7.4886,7.4886,7.4886,7.4886,7.4886,7.4886,7.4886,7.4886,7.4946,7.5006,7.5215,7.5198,7.5677,7.5988,7.6108,7.6509,7.6766,7.6617,7.5796,7.5677,7.5886,7.6036,7.6185,7.6395,7.6467,7.6736,7.6946,7.6928,7.6988,7.7018,7.7155,7.7514,7.7771,7.7891,7.7951,7.828,7.834,7.8639,7.8699,7.8789,7.8789,7.8789,7.8789,7.8789,7.8789,7.8789,7.8789,7.8789,7.8789,7.8789,7.8789,7.8789,7.8789,7.8789,7.8789,7.8789,7.059,7.059,7.059,7.0649,7.0739,7.0739,7.0799,7.0873,7.0903,7.0903,7.0903,7.0903,7.0903,7.0903,7.0919,7.1188,7.1637,7.1773,7.1966,7.2339,7.2654,7.2727,7.2804,7.3013,7.3193,7.3343,7.3103,7.2954,7.2967,7.2924,7.3326,7.3642,7.3732,7.3941,7.4347,7.4693,7.4646,7.4587,7.4796,7.4886,7.4886,7.4886,7.4886,7.4886,7.4886,7.4886,7.4886,7.4886,7.4886,7.4886,7.4886,7.4886,7.4886,7.4886,7.4886,7.4886,7.4886,7.4886,7.4886,7.4886,7.4886,7.4886,7.4946,7.4946,7.4946,7.4976,7.5125,7.5185,7.5514,7.5916,7.6437,7.6557,7.6647,7.6706,7.6826,7.6946,7.6868,7.6706,7.6544,7.6766,7.6766,7.6766,7.7065,7.7293,7.7412,7.7562,7.7634,7.7813,7.8011,7.813,7.837,7.8519,7.8609,7.8639,7.8699,7.8669,7.8759,7.8759,7.8789,7.8789,7.8789,7.8789,7.8789,7.8789,7.8789,7.8789,7.8789,7.8789,7.8789,7.8789,7.8789,7.8789,7.8789,7.8789,7.8789,7.0903,7.0903,7.0903,7.0903,7.0903,7.0903,7.0903,7.0903,7.0903,7.0903,7.0903,7.0903,7.0903,7.1009,7.1308,7.1787,7.2265,7.2415,7.2624,7.2924,7.3223,7.3432,7.3492,7.3702,7.4061,7.4257,7.4061,7.3881,7.3941,7.3971,7.4061,7.4317,7.4407,7.4587,7.4826,7.4856,7.4886,7.4886,7.4886,7.4886,7.4886,7.4886,7.4886,7.4886,7.4886,7.4886,7.4886,7.4886,7.4886,7.4886,7.4886,7.4886,7.4886,7.4886,7.4886,7.4916,7.4916,7.4886,7.4886,7.4886,7.4886,7.4946,7.5185,7.5395,7.5514,7.5707,7.5826,7.5946,7.6036,7.6467,7.6749,7.7125,7.7305,7.7394,7.7574,7.7753,7.7783,7.7801,7.7741,7.7652,7.7502,7.7592,7.7921,7.8041,7.8071,7.816,7.828,7.8489,7.8759,7.8789,7.8789,7.8789,7.8777,7.8807,7.8789,7.8789,7.8789,7.8789,7.8789,7.8789,7.8789,7.8789,7.8789,7.8789,7.8789,7.8789,7.8789,7.8789,7.8789,7.8789,7.8789,7.8789,7.8789,7.8789,7.8789,7.0903,7.0903,7.0903,7.0903,7.0903,7.0903,7.0903,7.0903,7.0903,7.0903,7.0919,7.1068,7.1128,7.1278,7.1816,7.2475,7.3057,7.3086,7.3223,7.3522,7.3868,7.4108,7.4257,7.4557,7.4826,7.4736,7.4766,7.4886,7.4736,7.4736,7.4826,7.4826,7.4856,7.4886,7.4886,7.4886,7.4886,7.4886,7.4886,7.4886,7.4886,7.4886,7.4886,7.4886,7.4886,7.4886,7.4886,7.4886,7.4886,7.4886,7.4886,7.4886,7.4886,7.4886,7.4976,7.5065,7.4976,7.4916,7.4916,7.5125,7.5215,7.5245,7.5736,7.6006,7.6138,7.6407,7.6766,7.6928,7.7006,7.7125,7.7424,7.7694,7.7951,7.8071,7.843,7.8759,7.8639,7.8579,7.8519,7.84,7.822,7.822,7.843,7.8489,7.843,7.843,7.8549,7.8549,7.8789,7.8789,7.8789,7.8789,7.8789,7.8789,7.8789,7.8789,7.8789,7.8789,7.8789,7.8789,7.8789,7.8789,7.8789,7.8789,7.8789,7.8789,7.8789,7.8789,7.8789,7.8789,7.8789,7.8789,7.8789,7.8789,7.8789,7.0903,7.0903,7.0903,7.0903,7.0903,7.0903,7.0903,7.0903,7.0903,7.0903,7.1038,7.1487,7.1743,7.2013,7.2505,7.3163,7.3612,7.3821,7.4001,7.4407,7.4587,7.4676,7.4736,7.4826,7.4886,7.4886,7.4886,7.4886,7.4886,7.4886,7.4886,7.4886,7.4886,7.4886,7.4886,7.4886,7.4886,7.4886,7.4886,7.4886,7.4886,7.4886,7.4886,7.4886,7.4886,7.4886,7.4886,7.4886,7.4886,7.4933,7.4916,7.4916,7.4886,7.4886,7.5245,7.5407,7.5288,7.4916,7.5125,7.5514,7.5766,7.5856,7.6347,7.6647,7.6856,7.6946,7.7245,7.7664,7.7664,7.7891,7.822,7.8519,7.8669,7.8639,7.8687,7.8789,7.8789,7.8789,7.8789,7.8789,7.8489,7.8549,7.8699,7.8729,7.8759,7.8789,7.8789,7.8789,7.8789,7.8789,7.8789,7.8789,7.8789,7.8789,7.8789,7.8789,7.8789,7.8789,7.8789,7.8789,7.8789,7.8789,7.8789,7.8789,7.8789,7.8789,7.8789,7.8789,7.8789,7.8789,7.8789,7.8789,7.8789,7.8789,7.8789,7.0903,7.0903,7.0903,7.0903,7.0903,7.0903,7.0903,7.0903,7.0903,7.1128,7.1457,7.1727,7.2282,7.2954,7.3373,7.3838,7.4347,7.4437,7.4587,7.4826,7.4886,7.4886,7.4886,7.4886,7.4886,7.4886,7.4886,7.4886,7.4886,7.4886,7.4886,7.4886,7.4886,7.4886,7.4886,7.4886,7.4886,7.4886,7.4886,7.4886,7.4886,7.4886,7.4886,7.4886,7.4916,7.4916,7.4946,7.4886,7.4886,7.4976,7.5185,7.5467,7.5557,7.5766,7.6155,7.6317,7.6168,7.6018,7.6048,7.6305,7.6377,7.6557,7.7006,7.7532,7.7801,7.7921,7.7933,7.831,7.837,7.8519,7.8717,7.8807,7.8789,7.8789,7.8789,7.8789,7.8789,7.8789,7.8789,7.8789,7.8789,7.8789,7.8789,7.8789,7.8789,7.8789,7.8789,7.8789,7.8789,7.8789,7.8789,7.8789,7.8789,7.8789,7.8789,7.8789,7.8789,7.8789,7.8789,7.8789,7.8789,7.8789,7.8789,7.8789,7.8789,7.8789,7.8789,7.8789,7.8789,7.8789,7.8789,7.8789,7.8789,7.8789,7.8789,7.0903,7.0903,7.0903,7.0903,7.0903,7.0903,7.1009,7.1158,7.1188,7.1547,7.2056,7.2402,7.3103,7.3911,7.4168,7.4407,7.4856,7.4886,7.4886,7.4886,7.4886,7.4886,7.4886,7.4886,7.4886,7.4886,7.4886,7.4886,7.4886,7.4886,7.4886,7.4886,7.4886,7.4886,7.4886,7.4886,7.4886,7.4886,7.4886,7.4886,7.4886,7.4886,7.4886,7.4946,7.5035,7.5155,7.5185,7.5377,7.5437,7.5557,7.5886,7.6108,7.6185,7.6407,7.6766,7.6976,7.6976,7.7095,7.7125,7.7215,7.7095,7.7245,7.7634,7.822,7.8549,7.8789,7.8789,7.8699,7.8729,7.8729,7.8789,7.8789,7.8789,7.8789,7.8789,7.8789,7.8789,7.8789,7.8789,7.8789,7.8789,7.8789,7.8789,7.8789,7.8789,7.8789,7.8789,7.8789,7.8789,7.8789,7.8789,7.8789,7.8789,7.8789,7.8789,7.8789,7.8789,7.8789,7.8789,7.8789,7.8789,7.8789,7.8789,7.8789,7.8789,7.8789,7.8789,7.8789,7.8789,7.8789,7.8789,7.8789,7.8789,7.8789,7.8789,7.0903,7.0903,7.0919,7.0903,7.0903,7.0903,7.1278,7.1743,7.1803,7.2206,7.2864,7.3462,7.4078,7.4616,7.4706,7.4766,7.4886,7.4886,7.4886,7.4886,7.4886,7.4886,7.4886,7.4886,7.4886,7.4886,7.4886,7.4886,7.4886,7.4886,7.4886,7.4886,7.4886,7.4886,7.4886,7.4886,7.4886,7.4886,7.4886,7.4946,7.4976,7.5006,7.5006,7.5155,7.5514,7.5826,7.5839,7.6228,7.6437,7.6407,7.6647,7.6766,7.6796,7.7006,7.7335,7.7634,7.7741,7.7903,7.813,7.7981,7.7753,7.7951,7.825,7.8639,7.8759,7.8789,7.8789,7.8789,7.8789,7.8789,7.8789,7.8789,7.8789,7.8789,7.8789,7.8789,7.8789,7.8789,7.8789,7.8789,7.8789,7.8789,7.8789,7.8789,7.8789,7.8789,7.8789,7.8789,7.8789,7.8789,7.8789,7.8789,7.8789,7.8789,7.8789,7.8789,7.8789,7.8789,7.8789,7.8789,7.8789,7.8789,7.8789,7.8789,7.8789,7.8789,7.8789,7.8789,7.8789,7.8789,7.8789,7.8789,7.8789,7.8789,7.8789,7.0903,7.0949,7.1338,7.1294,7.0949,7.1354,7.1637,7.1953,7.2325,7.2894,7.3552,7.4227,7.4646,7.4826,7.4886,7.4886,7.4886,7.4886,7.4886,7.4886,7.4886,7.4886,7.4886,7.4886,7.4886,7.4886,7.4886,7.4886,7.4886,7.4886,7.4886,7.4886,7.4946,7.4886,7.4886,7.4946,7.4946,7.4946,7.4976,7.5065,7.5484,7.5527,7.5677,7.6108,7.6215,7.6437,7.6497,7.6659,7.6766,7.6946,7.7215,7.7365,7.7484,7.7724,7.8041,7.831,7.834,7.8489,7.8669,7.8567,7.843,7.846,7.8639,7.8789,7.8789,7.8789,7.8789,7.8789,7.8789,7.8789,7.8789,7.8789,7.8789,7.8789,7.8789,7.8789,7.8789,7.8789,7.8789,7.8789,7.8789,7.8789,7.8789,7.8789,7.8789,7.8789,7.8789,7.8789,7.8789,7.8789,7.8789,7.8789,7.8789,7.8789,7.8789,7.8789,7.8789,7.8789,7.8789,7.8789,7.8789,7.8789,7.8789,7.8789,7.8789,7.8789,7.8789,7.8789,7.8789,7.8789,7.8789,7.8789,7.8789,7.8789,7.8789,7.1009,7.1248,7.1713,7.1607,7.1308,7.1923,7.2295,7.2581,7.2984,7.3582,7.421,7.4706,7.4886,7.4886,7.4886,7.4886,7.4886,7.4886,7.4886,7.4886,7.4886,7.4886,7.4886,7.4886,7.4886,7.4886,7.4886,7.4886,7.4886,7.4886,7.5065,7.5185,7.5185,7.5155,7.4946,7.5125,7.5245,7.5425,7.5514,7.5647,7.6155,7.6198,7.6258,7.6736,7.6946,7.7095,7.7215,7.7394,7.7514,7.7634,7.7861,7.8071,7.825,7.8477,7.8729,7.8789,7.8789,7.8789,7.8789,7.8789,7.8789,7.8729,7.8759,7.8789,7.8789,7.8789,7.8789,7.8789,7.8789,7.8789,7.8789,7.8789,7.8789,7.8789,7.8789,7.8789,7.8789,7.8789,7.8789,7.8789,7.8789,7.8789,7.8789,7.8789,7.8789,7.8789,7.8789,7.8789,7.8789,7.8789,7.8789,7.8789,7.8789,7.8789,7.8789,7.8789,7.8789,7.8789,7.8789,7.8789,7.8789,7.8789,7.8789,7.8789,7.8789,7.8789,7.8789,7.8789,7.8789,7.8789,7.8789,7.8789,7.8789,7.8789,7.8789,7.1278,7.1863,7.1923,7.1953,7.2026,7.2578,7.3206,7.3612,7.3821,7.421,7.4736,7.4886,7.4886,7.4886,7.4886,7.4886,7.4886,7.4886,7.4886,7.4886,7.4886,7.4886,7.4886,7.4886,7.4886,7.4886,7.5006,7.5065,7.5006,7.5198,7.5455,7.5736,7.5826,7.5664,7.5065,7.5557,7.6155,7.6617,7.6617,7.6647,7.6766,7.6826,7.6886,7.7215,7.7544,7.7783,7.7861,7.816,7.831,7.84,7.846,7.8609,7.8669,7.8699,7.8789,7.8789,7.8789,7.8789,7.8789,7.8789,7.8789,7.8789,7.8789,7.8789,7.8789,7.8789,7.8789,7.8789,7.8789,7.8789,7.8789,7.8789,7.8789,7.8789,7.8789,7.8789,7.8789,7.8789,7.8789,7.8789,7.8789,7.8789,7.8789,7.8789,7.8789,7.8789,7.8789,7.8789,7.8789,7.8789,7.8789,7.8789,7.8789,7.8789,7.8789,7.8789,7.8789,7.8789,7.8789,7.8789,7.8789,7.8789,7.8789,7.8789,7.8789,7.8789,7.8789,7.8789,7.8789,7.8789,7.8789,7.8789,7.8789,7.8789,7.8789,7.1667,7.1983,7.2851,7.324,7.3253,7.3462,7.3702,7.3941,7.4347,7.4676,7.4856,7.4886,7.4886,7.4886,7.4886,7.4886,7.4886,7.4886,7.4886,7.4886,7.4886,7.4886,7.4916,7.4946,7.4946,7.5035,7.5228,7.5557,7.5587,7.5796,7.6138,7.6467,7.6557,7.6377,7.6275,7.6437,7.6647,7.6766,7.6826,7.6976,7.7412,7.7484,7.7634,7.8041,7.831,7.84,7.837,7.8699,7.8759,7.8789,7.8789,7.8789,7.8789,7.8789,7.8789,7.8789,7.8789,7.8789,7.8789,7.8789,7.8789,7.8789,7.8789,7.8789,7.8789,7.8789,7.8789,7.8789,7.8789,7.8789,7.8789,7.8789,7.8789,7.8789,7.8789,7.8789,7.8789,7.8789,7.8789,7.8789,7.8789,7.8789,7.8789,7.8789,7.8789,7.8789,7.8789,7.8789,7.8789,7.8789,7.8789,7.8789,7.8789,7.8789,7.8789,7.8789,7.8789,7.8789,7.8789,7.8789,7.8789,7.8789,7.8789,7.8789,7.8789,7.8789,7.8789,7.8789,7.8789,7.8789,7.8789,7.8789,7.8789,7.8789,7.8789,7.2162,7.2671,7.3522,7.4031,7.4227,7.424,7.4257,7.4317,7.4706,7.4886,7.4886,7.4886,7.4886,7.4886,7.4886,7.4886,7.4886,7.4886,7.4886,7.4886,7.4886,7.4886,7.4946,7.5125,7.5335,7.5425,7.5826,7.6198,7.6198,7.6587,7.6886,7.7125,7.7365,7.7514,7.7454,7.7365,7.7335,7.7514,7.7694,7.7801,7.8071,7.819,7.834,7.8609,7.8759,7.8759,7.8789,7.8789,7.8789,7.8789,7.8789,7.8789,7.8789,7.8789,7.8789,7.8789,7.8789,7.8789,7.8789,7.8789,7.8789,7.8789,7.8789,7.8789,7.8789,7.8789,7.8789,7.8789,7.8789,7.8789,7.8789,7.8789,7.8789,7.8789,7.8789,7.8789,7.8789,7.8789,7.8789,7.8789,7.8789,7.8789,7.8789,7.8789,7.8789,7.8789,7.8789,7.8789,7.8789,7.8789,7.8789,7.8789,7.8789,7.8789,7.8789,7.8789,7.8789,7.8789,7.8789,7.8789,7.8789,7.8789,7.8789,7.8789,7.8789,7.8789,7.8789,7.8789,7.8789,7.8789,7.8789,7.8789,7.8789,7.8789,7.8789,7.2731,7.3821,7.3911,7.4317,7.4796,7.4826,7.4856,7.4856,7.4903,7.4886,7.4886,7.4886,7.4886,7.4886,7.4886,7.4886,7.4886,7.4886,7.4886,7.4946,7.5035,7.5006,7.5275,7.5617,7.5856,7.6125,7.6467,7.6856,7.6856,7.7155,7.7454,7.7831,7.825,7.837,7.831,7.8112,7.81,7.831,7.84,7.846,7.8579,7.8669,7.8669,7.8789,7.8789,7.8789,7.8789,7.8789,7.8789,7.8789,7.8789,7.8789,7.8789,7.8789,7.8789,7.8789,7.8789,7.8789,7.8789,7.8789,7.8789,7.8789,7.8789,7.8789,7.8789,7.8789,7.8789,7.8789,7.8789,7.8789,7.8789,7.8789,7.8789,7.8789,7.8789,7.8789,7.8789,7.8789,7.8789,7.8789,7.8789,7.8789,7.8789,7.8789,7.8789,7.8789,7.8789,7.8789,7.8789,7.8789,7.8789,7.8789,7.8789,7.8789,7.8789,7.8789,7.8789,7.8789,7.8789,7.8789,7.8789,7.8789,7.8789,7.8789,7.8789,7.8789,7.8789,7.8789,7.8789,7.8789,7.8789,7.8789,7.8789,7.8789,7.8789,7.3552,7.3941,7.4407,7.4753,7.4886,7.4886,7.4886,7.4886,7.4886,7.4886,7.4886,7.4886,7.4886,7.4886,7.4886,7.4886,7.4886,7.4886,7.4886,7.5035,7.5425,7.5527,7.5826,7.6198,7.645,7.6766,7.7125,7.7514,7.7634,7.7843,7.816,7.8549,7.8669,7.8759,7.8729,7.8609,7.8669,7.8747,7.8789,7.8789,7.8789,7.8789,7.8789,7.8789,7.8789,7.8789,7.8789,7.8789,7.8789,7.8789,7.8789,7.8789,7.8789,7.8789,7.8789,7.8789,7.8789,7.8789,7.8789,7.8789,7.8789,7.8789,7.8789,7.8789,7.8789,7.8789,7.8789,7.8789,7.8789,7.8789,7.8789,7.8789,7.8789,7.8789,7.8789,7.8789,7.8789,7.8789,7.8789,7.8789,7.8789,7.8789,7.8789,7.8789,7.8789,7.8789,7.8789,7.8789,7.8789,7.8789,7.8789,7.8789,7.8789,7.8789,7.8789,7.8789,7.8789,7.8789,7.8789,7.8789,7.8789,7.8789,7.8789,7.8789,7.8789,7.8789,7.8789,7.8789,7.8789,7.8789,7.8789,7.8789,7.8789,7.8789,7.8789,7.4048,7.4347,7.4706,7.4886,7.4886,7.4886,7.4886,7.4886,7.4886,7.4886,7.4886,7.4886,7.4886,7.4886,7.4886,7.4886,7.4916,7.5245,7.5365,7.5527,7.5976,7.6155,7.6467,7.6856,7.7155,7.7424,7.7771,7.819,7.828,7.8489,7.8759,7.8759,7.8789,7.8789,7.8759,7.8729,7.8759,7.8807,7.8789,7.8789,7.8789,7.8789,7.8789,7.8789,7.8789,7.8789,7.8789,7.8789,7.8789,7.8789,7.8789,7.8789,7.8789,7.8789,7.8789,7.8789,7.8789,7.8789,7.8789,7.8789,7.8789,7.8789,7.8789,7.8789,7.8789,7.8789,7.8789,7.8789,7.8789,7.8789,7.8789,7.8789,7.8789,7.8789,7.8789,7.8789,7.8789,7.8789,7.8789,7.8789,7.8789,7.8789,7.8789,7.8789,7.8789,7.8789,7.8789,7.8789,7.8789,7.8789,7.8789,7.8789,7.8789,7.8789,7.8789,7.8789,7.8789,7.8789,7.8789,7.8789,7.8789,7.8789,7.8789,7.8789,7.8789,7.8789,7.8789,7.8789,7.8789,7.8789,7.8789,7.8789,7.8789,7.8789,7.8789,7.4347,7.4873,7.4886,7.4886,7.4886,7.4886,7.4886,7.4886,7.4886,7.4886,7.4886,7.4886,7.4886,7.4886,7.4886,7.5006,7.5215,7.5557,7.5856,7.6006,7.6587,7.6886,7.7065,7.7514,7.7831,7.81,7.8358,7.8579,7.8699,7.8789,7.8789,7.8789,7.8789,7.8789,7.8789,7.8789,7.8789,7.8789,7.8789,7.8789,7.8789,7.8789,7.8789,7.8789,7.8789,7.8789,7.8789,7.8789,7.8789,7.8789,7.8789,7.8789,7.8789,7.8789,7.8789,7.8789,7.8789,7.8789,7.8789,7.8789,7.8789,7.8789,7.8789,7.8789,7.8789,7.8789,7.8789,7.8789,7.8789,7.8789,7.8789,7.8789,7.8789,7.8789,7.8789,7.8789,7.8789,7.8789,7.8789,7.8789,7.8789,7.8789,7.8789,7.8789,7.8789,7.8789,7.8789,7.8789,7.8789,7.8789,7.8789,7.8789,7.8789,7.8789,7.8789,7.8789,7.8789,7.8789,7.8789,7.8789,7.8789,7.8789,7.8789,7.8789,7.8789,7.8789,7.8789,7.8789,7.8789,7.8789,7.8789,7.8789,7.8789,7.8789,7.8789,7.4736,7.4886,7.4886,7.4886,7.4886,7.4886,7.4886,7.4886,7.4886,7.4886,7.4886,7.4886,7.4886,7.4886,7.4976,7.5155,7.5617,7.5976,7.6168,7.6694,7.7245,7.7544,7.7664,7.813,7.846,7.8609,7.8729,7.8789,7.8789,7.8789,7.8789,7.8789,7.8789,7.8789,7.8789,7.8789,7.8789,7.8789,7.8789,7.8789,7.8789,7.8789,7.8789,7.8789,7.8789,7.8789,7.8789,7.8789,7.8789,7.8789,7.8789,7.8789,7.8789,7.8789,7.8789,7.8789,7.8789,7.8789,7.8789,7.8789,7.8789,7.8789,7.8789,7.8789,7.8789,7.8789,7.8789,7.8789,7.8789,7.8789,7.8789,7.8789,7.8789,7.8789,7.8789,7.8789,7.8789,7.8789,7.8789,7.8789,7.8789,7.8789,7.8789,7.8789,7.8789,7.8789,7.8789,7.8789,7.8789,7.8789,7.8789,7.8789,7.8789,7.8789,7.8789,7.8789,7.8789,7.8789,7.8789,7.8789,7.8789,7.8789,7.8789,7.8789,7.8789,7.8789,7.8789,7.8789,7.8789,7.8789,7.8789,7.8789,7.8789,7.8789,7.8789,7.4886,7.4886,7.4886,7.4886,7.4886,7.4886,7.4886,7.4886,7.4886,7.4886,7.4886,7.4886,7.4886,7.5006,7.5185,7.5467,7.6036,7.6544,7.6933,7.7412,7.7831,7.816,7.846,7.8627,7.8687,7.8789,7.8789,7.8789,7.8789,7.8789,7.8789,7.8789,7.8789,7.8789,7.8789,7.8789,7.8789,7.8789,7.8789,7.8789,7.8789,7.8789,7.8789,7.8789,7.8789,7.8789,7.8789,7.8789,7.8789,7.8789,7.8789,7.8789,7.8789,7.8789,7.8789,7.8789,7.8789,7.8789,7.8789,7.8789,7.8789,7.8789,7.8789,7.8789,7.8789,7.8789,7.8789,7.8789,7.8789,7.8789,7.8789,7.8789,7.8789,7.8789,7.8789,7.8789,7.8789,7.8789,7.8789,7.8789,7.8789,7.8789,7.8789,7.8789,7.8789,7.8789,7.8789,7.8789,7.8789,7.8789,7.8789,7.8789,7.8789,7.8789,7.8789,7.8789,7.8789,7.8789,7.8789,7.8789,7.8789,7.8789,7.8789,7.8789,7.8789,7.8789,7.8789,7.8789,7.8789,7.8789,7.8789,7.8789,7.8789,7.8789,7.8789,7.4886,7.4886,7.4886,7.4886,7.4886,7.4886,7.4886,7.4886,7.4886,7.4886,7.4946,7.5035,7.5006,7.5245,7.5587,7.5886,7.6365,7.7113,7.7622,7.8041,7.846,7.8579,7.8639,7.8759,7.8789,7.8789,7.8789,7.8789,7.8789,7.8789,7.8789,7.8789,7.8789,7.8789,7.8789,7.8789,7.8789,7.8789,7.8789,7.8789,7.8789,7.8789,7.8789,7.8789,7.8789,7.8789,7.8789,7.8789,7.8789,7.8789,7.8789,7.8789,7.8789,7.8789,7.8789,7.8789,7.8789,7.8789,7.8789,7.8789,7.8789,7.8789,7.8789,7.8789,7.8789,7.8789,7.8789,7.8789,7.8789,7.8789,7.8789,7.8789,7.8789,7.8789,7.8789,7.8789,7.8789,7.8789,7.8789,7.8789,7.8789,7.8789,7.8789,7.8789,7.8789,7.8789,7.8789,7.8789,7.8789,7.8789,7.8789,7.8789,7.8789,7.8789,7.8789,7.8789,7.8789,7.8789,7.8789,7.8789,7.8789,7.8789,7.8789,7.8789,7.8789,7.8789,7.8789,7.8789,7.8789,7.8789,7.8789,7.8789,7.8789,7.8789,7.8789,7.4886,7.4886,7.4886,7.4886,7.4886,7.4886,7.4886,7.4886,7.4886,7.4886,7.5065,7.5497,7.5707,7.5707,7.5796,7.6275,7.7203,7.7801,7.819,7.8627,7.8699,7.8759,7.8789,7.8789,7.8789,7.8789,7.8789,7.8789,7.8789,7.8789,7.8789,7.8789,7.8789,7.8789,7.8789,7.8789,7.8789,7.8789,7.8789,7.8789,7.8789,7.8789,7.8789,7.8789,7.8789,7.8789,7.8789,7.8789,7.8789,7.8789,7.8789,7.8789,7.8789,7.8789,7.8789,7.8789,7.8789,7.8789,7.8789,7.8789,7.8789,7.8789,7.8789,7.8789,7.8789,7.8789,7.8789,7.8789,7.8789,7.8789,7.8789,7.8789,7.8789,7.8789,7.8789,7.8789,7.8789,7.8789,7.8789,7.8789,7.8789,7.8789,7.8789,7.8789,7.8789,7.8789,7.8789,7.8789,7.8789,7.8789,7.8789,7.8789,7.8789,7.8789,7.8789,7.8789,7.8789,7.8789,7.8789,7.8789,7.8789,7.8789,7.8789,7.8789,7.8789,7.8789,7.8789,7.8789,7.8789,7.8789,7.8789,7.8789,7.8789,7.8789,7.8789]}]]